[[{"header":{"parameterUnit":"m.s-1","parameterCategory":1,"la1":31.0,"la2":29.5877,"lo1":-88.7671,"lo2":-86.6584,"dx":0.0162,"dy":0.0185,"nx":115,"ny":88,"refTime":"2023-01-16T18:00:00:Z","depth":0,"parameterNumber":2,"parameterNumberName":"U-component_of_WINDS"},"data":[0.0,0.0,0.0,0.0,0.0,0.0,0.0,0.0,0.0,0.0,0.0,0.0,0.0,0.0,0.0,0.0,0.0,0.0,0.0,0.0,0.0,0.0,0.0,0.0,0.0,0.0,0.0,0.0,0.0,0.0,0.0,0.0,0.0,0.0,0.0,0.0,0.0,0.0,0.0,0.0,0.0,0.0,0.0,0.0,0.0,0.0,0.0,0.0,0.0,0.0,0.0,0.0,0.0,0.0,0.0,0.0,0.0,0.0,0.0,0.0,0.0,0.0,0.0,0.0,0.0,0.0,0.0,0.0,0.0,0.0,0.0,0.0,0.0,0.0,0.0,0.0,0.0,0.0,0.0,0.0,0.0,0.0,0.0,0.0,0.0,0.0,0.0,0.0,0.0,0.0,0.0,0.0,0.0,0.0,0.0,0.0,0.0,0.0,0.0,0.0,0.0,0.0,0.0,0.0,0.0,0.0,0.0,0.0,0.0,0.0,0.0,0.0,0.0,0.0,0.0,0.0,0.0,0.0,0.0,0.0,0.0,0.0,0.0,0.0,0.0,0.0,0.0,0.0,0.0,0.0,0.0,0.0,0.0,0.0,0.0,0.0,0.0,0.0,0.0,0.0,0.0,0.0,0.0,0.0,0.0,0.0,0.0,0.0,0.0,0.0,0.0,0.0,0.0,0.0,0.0,0.0,0.0,0.0,0.0,0.0,0.0,0.0,0.0,0.0,0.0,0.0,0.0,0.0,0.0,0.0,0.0,0.0,0.0,0.0,0.0,0.0,0.0,0.0,0.0,0.0,0.0,0.0,0.0,0.0,0.0,0.0,0.0,0.0,0.0,0.0,0.0,0.0,0.0,0.0,0.0,0.0,0.0,0.0,0.0,0.0,0.0,0.0,0.0,0.0,0.0,0.0,0.0,0.0,0.0,0.0,0.0,0.0,0.0,0.0,0.0,0.0,0.0,0.0,0.0,0.0,0.0,0.0,0.0,0.0,0.0,0.0,0.0,0.0,0.0,0.0,0.0,0.0,0.0,0.0,0.0,0.0,0.0,0.0,0.0,0.0,0.0,0.0,0.0,0.0,0.0,0.0,0.0,0.0,0.0,0.0,0.0,0.0,0.0,0.0,0.0,0.0,0.0,0.0,0.0,0.0,0.0,0.0,0.0,0.0,0.0,0.0,0.0,0.0,0.0,0.0,0.0,0.0,0.0,0.0,0.0,0.0,0.0,0.0,0.0,0.0,0.0,0.0,0.0,0.0,0.0,0.0,0.0,0.0,0.0,0.0,0.0,0.0,0.0,0.0,0.0,0.0,0.0,0.0,0.0,0.0,0.0,0.0,0.0,0.0,0.0,0.0,0.0,0.0,0.0,0.0,0.0,0.0,0.0,0.0,0.0,0.0,0.0,0.0,0.0,0.0,0.0,0.0,0.0,0.0,0.0,0.0,0.0,0.0,0.0,0.0,0.0,0.0,0.0,0.0,0.0,0.0,0.0,0.0,0.0,0.0,0.0,0.0,0.0,0.0,0.0,0.0,0.0,0.0,0.0,0.0,0.0,0.0,0.0,0.0,0.0,0.0,0.0,0.0,0.0,0.0,0.0,0.0,0.0,0.0,0.0,0.0,0.0,0.0,0.0,0.0,0.0,0.0,0.0,0.0,0.0,0.0,0.0,0.0,0.0,0.0,0.0,0.0,0.0,0.0,0.0,0.0,0.0,0.0,0.0,0.0,0.0,0.0,0.0,0.0,0.0,0.0,0.0,0.0,0.0,0.0,0.0,0.0,0.0,0.0,0.0,0.0,0.0,0.0,0.0,0.0,0.0,0.0,0.0,0.0,0.0,0.0,0.0,0.0,0.0,0.0,0.0,0.0,0.0,0.0,0.0,0.0,0.0,0.0,0.0,0.0,0.0,0.0,0.0,0.0,0.0,0.0,0.0,0.0,0.0,0.0,0.0,0.0,0.0,0.0,0.0,0.0,0.0,0.0,0.0,0.0,0.0,0.0,0.0,0.0,0.0,0.0,0.0,0.0,0.0,0.0,0.0,0.0,0.0,0.0,0.0,0.0,0.0,0.0,0.0,0.0,0.0,0.0,0.0,0.0,0.0,0.0,0.0,0.0,0.0,0.0,0.0,0.0,0.0,0.0,0.0,0.0,0.0,0.0,0.0,0.0,0.0,0.0,0.0,0.0,0.0,0.0,0.0,0.0,0.0,0.0,0.0,0.0,0.0,0.0,0.0,0.0,0.0,0.0,0.0,0.0,0.0,0.0,0.0,0.0,0.0,0.0,0.0,0.0,0.0,0.0,0.0,0.0,0.0,0.0,0.0,0.0,0.0,0.0,0.0,0.0,0.0,0.0,0.0,0.0,0.0,0.0,0.0,0.0,0.0,0.0,0.0,0.0,0.0,0.0,0.0,0.0,0.0,0.0,0.0,0.0,0.0,0.0,0.0,0.0,0.0,0.0,0.0,0.0,0.0,0.0,0.0,0.0,0.0,0.0,0.0,0.0,0.0,0.0,0.0,0.0,0.0,0.0,0.0,0.0,0.0,0.0,0.0,0.0,0.0,0.0,0.0,0.0,0.0,0.0,0.0,0.0,0.0,0.0,0.0,0.0,0.0,0.0,0.0,0.0,0.0,0.0,0.0,0.0,0.0,0.0,0.0,0.0,0.0,0.0,0.0,0.0,0.0,0.0,0.0,0.0,0.0,0.0,0.0,0.0,0.0,0.0,0.0,0.0,0.0,0.0,0.0,0.0,0.0,0.0,0.0,0.0,0.0,0.0,0.0,0.0,0.0,0.0,0.0,0.0,0.0,0.0,0.0,0.0,0.0,0.0,0.0,0.0,0.0,0.0,0.0,0.0,0.0,0.0,0.0,0.0,0.0,0.0,0.0,0.0,0.0,0.0,0.0,0.0,0.0,0.0,0.0,0.0,0.0,0.0,0.0,0.0,0.0,0.0,0.0,0.0,0.0,0.0,0.0,0.0,0.0,0.0,0.0,0.0,0.0,0.0,0.0,0.0,0.0,0.0,0.0,0.0,0.0,0.0,0.0,0.0,0.0,0.0,0.0,0.0,0.0,0.0,0.0,0.0,0.0,0.0,0.0,0.0,0.0,0.0,0.0,0.0,0.0,0.0,0.0,0.0,0.0,0.0,0.0,0.0,0.0,0.0,0.0,0.0,0.0,0.0,0.0,0.0,0.0,0.0,0.0,0.0,0.0,0.0,0.0,0.0,0.0,0.0,0.0,0.0,0.0,0.0,0.0,0.0,0.0,0.0,0.0,0.0,0.0,0.0,0.0,0.0,0.0,0.0,0.0,0.0,0.0,0.0,0.0,0.0,0.0,0.0,0.0,0.0,0.0,0.0,0.0,0.0,0.0,0.0,0.0,0.0,0.0,0.0,0.0,0.0,0.0,0.0,0.0,0.0,0.0,0.0,0.0,0.0,0.0,0.0,0.0,0.0,0.0,0.0,0.0,0.0,0.0,0.0,0.0,0.0,0.0,0.0,0.0,0.0,0.0,0.0,0.0,0.0,0.0,0.0,0.0,0.0,0.0,0.0,0.0,0.0,0.0,0.0,0.0,0.0,0.0,0.0,0.0,0.0,0.0,0.0,0.0,0.0,0.0,0.0,0.0,0.0,0.0,0.0,0.0,0.0,0.0,0.0,0.0,0.0,0.0,0.0,0.0,0.0,0.0,0.0,0.0,0.0,0.0,0.0,0.0,0.0,0.0,0.0,0.0,0.0,0.0,0.0,0.0,0.0,0.0,0.0,0.0,0.0,0.0,0.0,0.0,0.0,0.0,0.0,0.0,0.0,0.0,0.0,0.0,0.0,0.0,0.0,0.0,0.0,0.0,0.0,0.0,0.0,0.0,0.0,0.0,0.0,0.0,0.0,0.0,0.0,0.0,0.0,0.0,0.0,0.0,0.0,0.0,0.0,0.0,0.0,0.0,0.0,0.0,0.0,0.0,0.0,0.0,0.0,0.0,0.0,0.0,0.0,0.0,0.0,0.0,0.0,0.0,0.0,0.0,0.0,0.0,0.0,0.0,0.0,0.0,0.0,0.0,0.0,0.0,0.0,0.0,0.0,0.0,0.0,0.0,0.0,0.0,0.0,0.0,0.0,0.0,0.0,0.0,0.0,0.0,0.0,0.0,0.0,0.0,0.0,0.0,0.0,0.0,0.0,0.0,0.0,0.0,0.0,0.0,0.0,0.0,0.0,0.0,0.0,0.0,0.0,0.0,0.0,0.0,0.0,0.0,0.0,0.0,0.0,-3.1968,0.0,0.0,0.0,0.0,0.0,0.0,0.0,0.0,0.0,0.0,0.0,0.0,0.0,0.0,0.0,0.0,0.0,0.0,0.0,0.0,0.0,0.0,0.0,0.0,0.0,0.0,0.0,0.0,0.0,0.0,0.0,0.0,0.0,0.0,0.0,0.0,0.0,0.0,0.0,0.0,0.0,0.0,0.0,0.0,0.0,0.0,0.0,0.0,0.0,0.0,0.0,0.0,0.0,0.0,0.0,0.0,0.0,0.0,0.0,0.0,0.0,0.0,0.0,0.0,0.0,0.0,0.0,0.0,0.0,0.0,0.0,0.0,0.0,0.0,0.0,0.0,0.0,0.0,0.0,0.0,0.0,0.0,0.0,0.0,0.0,0.0,0.0,0.0,0.0,0.0,0.0,0.0,0.0,0.0,0.0,0.0,0.0,0.0,0.0,0.0,0.0,0.0,0.0,0.0,0.0,0.0,0.0,0.0,0.0,0.0,-3.3009,-3.1887,-3.383,-3.3897,-3.1867,0.0,0.0,0.0,0.0,0.0,0.0,0.0,0.0,0.0,0.0,0.0,0.0,0.0,0.0,0.0,0.0,0.0,0.0,0.0,0.0,0.0,0.0,0.0,0.0,0.0,0.0,0.0,0.0,0.0,0.0,0.0,0.0,0.0,0.0,0.0,0.0,0.0,0.0,0.0,0.0,0.0,0.0,0.0,0.0,0.0,0.0,0.0,0.0,0.0,0.0,0.0,0.0,0.0,0.0,0.0,0.0,0.0,0.0,0.0,0.0,0.0,0.0,0.0,0.0,0.0,0.0,0.0,0.0,0.0,0.0,0.0,0.0,0.0,0.0,0.0,0.0,0.0,0.0,0.0,0.0,0.0,0.0,0.0,0.0,0.0,0.0,0.0,0.0,0.0,0.0,0.0,0.0,0.0,0.0,0.0,0.0,0.0,0.0,0.0,0.0,0.0,0.0,0.0,0.0,0.0,0.0,0.0,0.0,0.0,0.0,0.0,0.0,-3.4468,-3.4665,-3.2787,0.0,0.0,0.0,0.0,0.0,0.0,0.0,0.0,0.0,0.0,0.0,0.0,0.0,0.0,0.0,0.0,0.0,0.0,0.0,0.0,0.0,0.0,0.0,0.0,0.0,0.0,0.0,0.0,0.0,0.0,0.0,0.0,0.0,0.0,0.0,0.0,0.0,0.0,0.0,0.0,0.0,0.0,0.0,0.0,0.0,0.0,0.0,0.0,0.0,0.0,0.0,0.0,0.0,0.0,0.0,0.0,0.0,0.0,0.0,0.0,0.0,0.0,0.0,0.0,0.0,0.0,0.0,0.0,0.0,0.0,0.0,0.0,0.0,0.0,0.0,0.0,0.0,0.0,0.0,0.0,0.0,0.0,0.0,0.0,0.0,0.0,0.0,0.0,0.0,0.0,0.0,0.0,0.0,0.0,0.0,0.0,0.0,0.0,0.0,0.0,0.0,0.0,0.0,0.0,0.0,0.0,0.0,0.0,0.0,0.0,-3.2714,-3.4215,-3.5252,0.0,-3.5257,0.0,0.0,0.0,0.0,0.0,0.0,0.0,0.0,0.0,0.0,0.0,0.0,0.0,0.0,0.0,0.0,0.0,0.0,0.0,0.0,0.0,0.0,0.0,0.0,0.0,0.0,0.0,0.0,0.0,0.0,0.0,0.0,0.0,0.0,0.0,0.0,0.0,0.0,0.0,0.0,0.0,0.0,0.0,0.0,0.0,0.0,0.0,0.0,0.0,0.0,0.0,0.0,0.0,0.0,0.0,0.0,0.0,0.0,0.0,0.0,0.0,0.0,0.0,0.0,0.0,0.0,0.0,0.0,0.0,0.0,0.0,0.0,0.0,0.0,0.0,0.0,0.0,0.0,0.0,0.0,0.0,0.0,0.0,0.0,0.0,0.0,0.0,0.0,0.0,0.0,0.0,0.0,0.0,0.0,0.0,0.0,0.0,0.0,0.0,0.0,0.0,0.0,0.0,0.0,0.0,0.0,0.0,0.0,0.0,0.0,-3.3496,-3.533,-3.5673,-3.5485,0.0,0.0,0.0,0.0,0.0,0.0,0.0,0.0,0.0,0.0,0.0,0.0,0.0,0.0,0.0,0.0,0.0,0.0,0.0,0.0,0.0,0.0,0.0,0.0,0.0,0.0,0.0,0.0,0.0,0.0,0.0,0.0,0.0,0.0,0.0,0.0,0.0,0.0,0.0,0.0,0.0,0.0,0.0,0.0,0.0,0.0,0.0,0.0,0.0,0.0,0.0,0.0,0.0,0.0,0.0,0.0,0.0,0.0,0.0,0.0,0.0,0.0,0.0,0.0,0.0,0.0,0.0,0.0,0.0,0.0,0.0,0.0,0.0,0.0,0.0,0.0,0.0,0.0,0.0,0.0,0.0,0.0,0.0,0.0,0.0,0.0,0.0,0.0,0.0,0.0,0.0,0.0,0.0,0.0,0.0,0.0,0.0,0.0,0.0,0.0,0.0,0.0,0.0,0.0,0.0,0.0,0.0,0.0,0.0,0.0,-3.2998,-3.4334,-3.6562,-3.6547,-3.5783,-3.4318,0.0,0.0,0.0,0.0,0.0,0.0,0.0,0.0,0.0,0.0,0.0,0.0,0.0,0.0,0.0,0.0,0.0,0.0,0.0,0.0,0.0,0.0,0.0,0.0,0.0,0.0,0.0,0.0,0.0,0.0,0.0,0.0,0.0,0.0,0.0,0.0,0.0,0.0,0.0,0.0,0.0,0.0,0.0,0.0,0.0,0.0,0.0,0.0,0.0,0.0,0.0,0.0,0.0,0.0,0.0,0.0,0.0,0.0,0.0,0.0,0.0,0.0,0.0,0.0,0.0,0.0,0.0,0.0,0.0,0.0,0.0,0.0,0.0,0.0,0.0,0.0,0.0,0.0,0.0,0.0,0.0,0.0,0.0,0.0,0.0,0.0,0.0,0.0,0.0,0.0,0.0,0.0,0.0,0.0,0.0,0.0,0.0,0.0,0.0,0.0,0.0,0.0,0.0,0.0,0.0,0.0,0.0,0.0,0.0,-3.4522,-3.5039,-3.8359,-3.8235,-3.6973,0.0,0.0,0.0,0.0,0.0,0.0,0.0,0.0,0.0,0.0,0.0,0.0,0.0,0.0,0.0,0.0,0.0,0.0,0.0,0.0,0.0,0.0,0.0,0.0,0.0,0.0,0.0,0.0,0.0,0.0,0.0,0.0,0.0,0.0,0.0,0.0,0.0,0.0,0.0,0.0,0.0,0.0,0.0,0.0,0.0,0.0,0.0,0.0,0.0,0.0,0.0,0.0,0.0,0.0,0.0,0.0,0.0,0.0,0.0,0.0,0.0,0.0,0.0,0.0,0.0,0.0,0.0,0.0,0.0,0.0,0.0,0.0,0.0,0.0,0.0,0.0,0.0,0.0,0.0,0.0,0.0,0.0,0.0,0.0,0.0,0.0,0.0,0.0,0.0,0.0,0.0,0.0,0.0,0.0,0.0,0.0,0.0,0.0,0.0,0.0,0.0,0.0,0.0,0.0,0.0,0.0,0.0,0.0,0.0,-3.2856,-3.3732,-3.629,-4.0443,-3.754,-3.6108,0.0,0.0,0.0,0.0,0.0,0.0,0.0,0.0,0.0,0.0,0.0,0.0,0.0,0.0,0.0,0.0,0.0,0.0,0.0,0.0,0.0,0.0,0.0,0.0,0.0,0.0,0.0,0.0,0.0,0.0,0.0,0.0,0.0,0.0,0.0,0.0,0.0,0.0,0.0,0.0,0.0,0.0,0.0,0.0,0.0,0.0,0.0,0.0,0.0,0.0,0.0,0.0,0.0,0.0,0.0,0.0,0.0,0.0,0.0,0.0,0.0,0.0,0.0,0.0,0.0,0.0,0.0,0.0,0.0,0.0,0.0,0.0,0.0,0.0,0.0,0.0,0.0,0.0,0.0,0.0,0.0,0.0,0.0,0.0,0.0,0.0,0.0,0.0,0.0,0.0,0.0,0.0,0.0,0.0,0.0,0.0,0.0,0.0,0.0,0.0,0.0,0.0,0.0,0.0,0.0,0.0,0.0,0.0,0.0,-3.237,0.0,-3.8334,-4.0626,-3.751,-3.5689,0.0,0.0,0.0,0.0,0.0,0.0,0.0,0.0,0.0,0.0,0.0,0.0,0.0,0.0,0.0,0.0,0.0,0.0,0.0,0.0,0.0,0.0,0.0,0.0,0.0,0.0,0.0,0.0,0.0,0.0,0.0,0.0,0.0,0.0,0.0,0.0,0.0,0.0,0.0,0.0,0.0,0.0,0.0,0.0,0.0,0.0,0.0,0.0,0.0,0.0,0.0,0.0,0.0,0.0,0.0,0.0,0.0,0.0,0.0,0.0,0.0,0.0,0.0,0.0,0.0,0.0,0.0,0.0,0.0,0.0,0.0,0.0,0.0,0.0,0.0,0.0,0.0,0.0,0.0,0.0,0.0,0.0,0.0,0.0,0.0,0.0,0.0,0.0,0.0,0.0,0.0,0.0,0.0,0.0,0.0,0.0,0.0,0.0,0.0,0.0,0.0,0.0,0.0,0.0,0.0,0.0,0.0,0.0,-2.9872,-3.5702,-3.9857,-4.0867,-3.8749,-3.8368,-3.5917,0.0,0.0,0.0,0.0,0.0,0.0,0.0,0.0,0.0,0.0,0.0,0.0,0.0,0.0,0.0,0.0,0.0,0.0,0.0,0.0,0.0,0.0,0.0,0.0,0.0,0.0,0.0,0.0,0.0,0.0,0.0,0.0,0.0,0.0,0.0,0.0,0.0,0.0,0.0,0.0,0.0,0.0,0.0,0.0,0.0,0.0,0.0,0.0,0.0,0.0,0.0,0.0,0.0,0.0,0.0,0.0,0.0,0.0,0.0,0.0,0.0,0.0,0.0,0.0,0.0,0.0,0.0,0.0,0.0,0.0,0.0,0.0,0.0,0.0,0.0,0.0,0.0,0.0,0.0,0.0,0.0,0.0,0.0,0.0,0.0,0.0,0.0,0.0,0.0,0.0,0.0,0.0,0.0,0.0,0.0,0.0,0.0,0.0,0.0,0.0,0.0,0.0,0.0,0.0,0.0,0.0,0.0,0.0,0.0,-3.317,-3.7834,-4.0295,-4.0131,-3.8346,-3.7211,0.0,0.0,0.0,0.0,0.0,0.0,0.0,0.0,0.0,0.0,0.0,0.0,0.0,0.0,0.0,0.0,0.0,0.0,0.0,0.0,0.0,0.0,0.0,0.0,0.0,0.0,0.0,0.0,0.0,0.0,0.0,0.0,0.0,0.0,0.0,0.0,0.0,0.0,0.0,0.0,0.0,0.0,0.0,0.0,0.0,0.0,0.0,0.0,0.0,0.0,0.0,0.0,0.0,0.0,0.0,0.0,0.0,0.0,0.0,0.0,0.0,0.0,0.0,0.0,0.0,0.0,0.0,0.0,0.0,0.0,0.0,0.0,0.0,0.0,0.0,0.0,0.0,0.0,0.0,0.0,0.0,0.0,0.0,0.0,0.0,0.0,0.0,0.0,0.0,0.0,0.0,0.0,0.0,0.0,0.0,0.0,0.0,0.0,0.0,0.0,0.0,0.0,0.0,0.0,0.0,0.0,0.0,0.0,0.0,-3.6208,-4.0426,-4.2786,-4.277,-4.0209,-3.8738,-3.8569,0.0,0.0,0.0,0.0,0.0,0.0,0.0,0.0,0.0,0.0,0.0,0.0,0.0,0.0,0.0,0.0,0.0,0.0,0.0,0.0,0.0,0.0,0.0,0.0,0.0,0.0,0.0,0.0,0.0,0.0,0.0,0.0,0.0,0.0,0.0,0.0,0.0,0.0,0.0,0.0,0.0,0.0,0.0,0.0,0.0,0.0,0.0,0.0,0.0,0.0,0.0,0.0,0.0,0.0,0.0,0.0,0.0,0.0,0.0,0.0,0.0,0.0,0.0,0.0,0.0,0.0,0.0,0.0,0.0,0.0,0.0,0.0,0.0,0.0,0.0,0.0,0.0,0.0,0.0,0.0,0.0,0.0,0.0,0.0,0.0,0.0,0.0,0.0,0.0,0.0,0.0,0.0,0.0,0.0,0.0,0.0,0.0,0.0,0.0,0.0,0.0,0.0,0.0,0.0,0.0,0.0,0.0,0.0,-4.347,-4.7068,-4.7999,-4.6191,-4.359,-4.0632,0.0,0.0,0.0,0.0,0.0,0.0,0.0,0.0,0.0,0.0,0.0,0.0,0.0,0.0,0.0,0.0,0.0,0.0,0.0,0.0,0.0,0.0,0.0,0.0,0.0,0.0,0.0,0.0,0.0,0.0,0.0,0.0,0.0,0.0,0.0,0.0,0.0,0.0,0.0,0.0,0.0,0.0,0.0,0.0,0.0,0.0,0.0,0.0,0.0,0.0,0.0,0.0,0.0,0.0,0.0,0.0,0.0,0.0,0.0,0.0,0.0,0.0,0.0,0.0,0.0,0.0,0.0,0.0,0.0,0.0,0.0,0.0,0.0,0.0,0.0,0.0,0.0,0.0,0.0,0.0,0.0,0.0,0.0,0.0,0.0,0.0,0.0,0.0,0.0,0.0,0.0,0.0,0.0,0.0,0.0,0.0,0.0,0.0,0.0,0.0,0.0,0.0,0.0,0.0,0.0,0.0,0.0,0.0,0.0,-4.8519,-5.2049,-5.2442,-4.9593,-4.6415,-4.4053,0.0,0.0,0.0,0.0,0.0,0.0,0.0,0.0,0.0,0.0,0.0,0.0,0.0,0.0,0.0,0.0,0.0,0.0,0.0,0.0,0.0,0.0,0.0,0.0,0.0,0.0,0.0,0.0,0.0,0.0,0.0,0.0,0.0,0.0,0.0,0.0,0.0,0.0,0.0,0.0,0.0,0.0,0.0,0.0,0.0,0.0,0.0,0.0,0.0,0.0,0.0,0.0,0.0,0.0,0.0,0.0,0.0,0.0,0.0,0.0,0.0,0.0,0.0,0.0,0.0,0.0,0.0,0.0,0.0,0.0,0.0,0.0,0.0,0.0,0.0,0.0,0.0,0.0,0.0,0.0,0.0,0.0,0.0,0.0,0.0,0.0,0.0,0.0,0.0,0.0,0.0,0.0,0.0,0.0,0.0,0.0,0.0,0.0,0.0,0.0,0.0,0.0,0.0,0.0,0.0,0.0,0.0,0.0,-4.6047,-5.2174,-5.628,-5.7307,-5.5045,-5.0675,-4.7279,0.0,0.0,0.0,0.0,0.0,0.0,0.0,0.0,0.0,0.0,0.0,0.0,0.0,0.0,0.0,0.0,0.0,0.0,0.0,0.0,0.0,0.0,0.0,0.0,0.0,0.0,0.0,0.0,0.0,0.0,0.0,0.0,0.0,0.0,0.0,0.0,0.0,0.0,0.0,0.0,0.0,0.0,0.0,0.0,0.0,0.0,0.0,0.0,0.0,0.0,0.0,0.0,0.0,0.0,0.0,0.0,0.0,0.0,0.0,0.0,0.0,0.0,0.0,0.0,0.0,0.0,0.0,0.0,0.0,0.0,0.0,0.0,0.0,0.0,0.0,0.0,0.0,0.0,0.0,0.0,0.0,0.0,0.0,0.0,0.0,0.0,0.0,0.0,0.0,0.0,0.0,0.0,0.0,0.0,0.0,0.0,0.0,0.0,0.0,0.0,0.0,0.0,0.0,0.0,0.0,0.0,0.0,0.0,-5.0433,-5.4972,-5.9742,-6.1897,-6.105,-5.5241,-5.0162,0.0,0.0,0.0,0.0,0.0,0.0,0.0,0.0,0.0,0.0,0.0,0.0,0.0,0.0,0.0,0.0,0.0,0.0,0.0,0.0,0.0,0.0,0.0,0.0,0.0,0.0,0.0,0.0,0.0,0.0,0.0,0.0,0.0,0.0,0.0,0.0,0.0,0.0,0.0,0.0,0.0,0.0,0.0,0.0,0.0,0.0,0.0,0.0,0.0,0.0,0.0,0.0,0.0,0.0,0.0,0.0,0.0,0.0,0.0,0.0,0.0,0.0,0.0,0.0,0.0,0.0,0.0,0.0,0.0,0.0,0.0,0.0,0.0,0.0,0.0,0.0,0.0,0.0,0.0,0.0,0.0,0.0,0.0,0.0,0.0,0.0,0.0,0.0,0.0,0.0,0.0,0.0,0.0,0.0,0.0,0.0,0.0,0.0,0.0,0.0,0.0,0.0,0.0,0.0,0.0,0.0,0.0,0.0,-5.2164,-5.828,-6.1473,-6.3281,-6.3743,-5.6742,-5.1597,0.0,0.0,0.0,0.0,0.0,0.0,0.0,0.0,0.0,0.0,0.0,0.0,0.0,0.0,0.0,0.0,0.0,0.0,0.0,0.0,0.0,0.0,0.0,0.0,0.0,0.0,0.0,0.0,0.0,0.0,0.0,0.0,0.0,0.0,0.0,0.0,0.0,0.0,0.0,0.0,0.0,0.0,0.0,0.0,0.0,0.0,0.0,0.0,-2.8788,0.0,0.0,0.0,0.0,0.0,0.0,0.0,0.0,0.0,0.0,0.0,0.0,0.0,0.0,0.0,0.0,0.0,0.0,0.0,0.0,0.0,0.0,0.0,0.0,0.0,0.0,0.0,0.0,0.0,0.0,0.0,0.0,0.0,0.0,0.0,0.0,0.0,0.0,0.0,0.0,0.0,0.0,0.0,0.0,0.0,0.0,0.0,0.0,0.0,0.0,0.0,0.0,0.0,0.0,0.0,0.0,0.0,0.0,0.0,-5.428,-6.0512,-6.3205,-6.4551,-6.4436,-5.9896,-5.4911,0.0,0.0,0.0,0.0,0.0,0.0,0.0,0.0,0.0,0.0,0.0,0.0,0.0,0.0,0.0,0.0,0.0,0.0,0.0,0.0,0.0,0.0,0.0,0.0,0.0,0.0,0.0,0.0,0.0,0.0,0.0,0.0,0.0,0.0,0.0,0.0,0.0,0.0,0.0,0.0,0.0,0.0,0.0,0.0,0.0,0.0,0.0,0.0,0.0,0.0,0.0,0.0,0.0,0.0,0.0,0.0,0.0,0.0,0.0,0.0,0.0,0.0,0.0,0.0,0.0,0.0,0.0,0.0,0.0,0.0,0.0,0.0,0.0,0.0,0.0,0.0,0.0,0.0,0.0,0.0,0.0,0.0,0.0,0.0,0.0,0.0,0.0,0.0,0.0,0.0,0.0,0.0,0.0,0.0,0.0,0.0,0.0,0.0,0.0,0.0,0.0,0.0,0.0,0.0,0.0,0.0,0.0,-5.0048,-5.6088,-6.2255,-6.4705,-6.5551,-6.482,-6.3051,-5.8252,-5.0225,0.0,0.0,0.0,0.0,0.0,0.0,0.0,0.0,0.0,0.0,0.0,0.0,0.0,0.0,0.0,0.0,0.0,0.0,0.0,0.0,0.0,0.0,0.0,0.0,0.0,0.0,0.0,0.0,0.0,0.0,0.0,0.0,0.0,0.0,0.0,0.0,0.0,0.0,-2.8555,-3.1662,0.0,0.0,0.0,0.0,0.0,0.0,0.0,0.0,-3.0111,0.0,0.0,0.0,0.0,0.0,0.0,0.0,0.0,0.0,0.0,0.0,0.0,0.0,0.0,0.0,0.0,0.0,0.0,0.0,0.0,0.0,0.0,0.0,0.0,0.0,0.0,0.0,0.0,0.0,0.0,0.0,0.0,0.0,0.0,0.0,0.0,0.0,0.0,0.0,0.0,0.0,0.0,0.0,0.0,0.0,0.0,0.0,0.0,0.0,0.0,0.0,0.0,0.0,0.0,0.0,0.0,-4.9288,-5.1202,-5.6011,-6.3935,-6.5282,-6.582,-6.5628,-6.3371,-5.8802,-5.1965,0.0,0.0,0.0,0.0,0.0,0.0,0.0,0.0,0.0,0.0,0.0,0.0,0.0,0.0,0.0,0.0,0.0,0.0,0.0,0.0,0.0,0.0,0.0,0.0,0.0,0.0,0.0,0.0,0.0,0.0,0.0,0.0,0.0,0.0,0.0,0.0,0.0,0.0,0.0,-3.585,-3.7229,0.0,0.0,0.0,0.0,0.0,0.0,0.0,0.0,-3.1104,0.0,0.0,0.0,0.0,0.0,0.0,0.0,0.0,0.0,0.0,0.0,0.0,0.0,0.0,0.0,0.0,0.0,0.0,0.0,0.0,0.0,0.0,0.0,0.0,0.0,0.0,0.0,0.0,0.0,0.0,0.0,0.0,0.0,0.0,0.0,0.0,0.0,0.0,0.0,0.0,0.0,0.0,0.0,0.0,0.0,0.0,0.0,0.0,0.0,0.0,0.0,0.0,0.0,0.0,0.0,-4.9048,-5.3626,-5.8896,-6.5013,-6.5667,-6.5897,-6.5871,-6.3885,-5.9244,0.0,0.0,0.0,0.0,0.0,0.0,0.0,0.0,0.0,0.0,0.0,0.0,0.0,0.0,0.0,0.0,0.0,0.0,0.0,0.0,0.0,0.0,0.0,0.0,0.0,0.0,0.0,0.0,0.0,0.0,0.0,0.0,0.0,0.0,0.0,0.0,0.0,0.0,0.0,0.0,-3.7052,-3.8501,-4.0887,0.0,0.0,0.0,0.0,0.0,0.0,-3.4382,-3.2805,0.0,0.0,0.0,0.0,0.0,0.0,0.0,0.0,0.0,0.0,0.0,0.0,0.0,0.0,0.0,0.0,0.0,0.0,0.0,0.0,0.0,0.0,0.0,0.0,0.0,0.0,0.0,0.0,0.0,0.0,0.0,0.0,0.0,0.0,0.0,0.0,0.0,0.0,0.0,0.0,0.0,0.0,0.0,0.0,0.0,0.0,0.0,0.0,0.0,0.0,0.0,0.0,0.0,0.0,0.0,-4.8086,-5.528,-6.132,-6.5897,-6.632,-6.632,-6.6102,-6.4222,-5.9413,0.0,0.0,0.0,0.0,0.0,0.0,0.0,0.0,0.0,0.0,0.0,0.0,0.0,0.0,0.0,0.0,0.0,0.0,0.0,0.0,0.0,0.0,0.0,0.0,0.0,0.0,0.0,0.0,0.0,0.0,0.0,0.0,0.0,0.0,0.0,0.0,0.0,0.0,0.0,0.0,0.0,-3.9585,-4.2543,-4.012,0.0,0.0,0.0,0.0,-3.8006,-3.7163,0.0,0.0,0.0,0.0,0.0,0.0,0.0,0.0,0.0,0.0,0.0,0.0,0.0,0.0,0.0,0.0,0.0,0.0,0.0,0.0,0.0,0.0,0.0,0.0,0.0,0.0,0.0,0.0,0.0,0.0,0.0,0.0,0.0,0.0,0.0,0.0,0.0,0.0,0.0,0.0,0.0,0.0,0.0,0.0,0.0,0.0,0.0,0.0,0.0,0.0,0.0,0.0,0.0,0.0,0.0,0.0,-4.7971,-5.4154,-6.0435,-6.659,-6.7705,-6.7744,-6.6949,-6.3895,-5.9021,0.0,0.0,0.0,0.0,0.0,0.0,0.0,0.0,0.0,0.0,0.0,0.0,0.0,0.0,0.0,0.0,0.0,0.0,0.0,0.0,0.0,0.0,0.0,0.0,0.0,0.0,0.0,0.0,0.0,0.0,0.0,0.0,0.0,0.0,0.0,0.0,0.0,0.0,0.0,0.0,0.0,-4.1625,-4.1389,-4.0377,-3.963,0.0,0.0,-4.0288,-4.3005,-4.316,0.0,0.0,0.0,0.0,0.0,0.0,0.0,0.0,0.0,0.0,0.0,0.0,0.0,0.0,0.0,0.0,0.0,0.0,0.0,0.0,0.0,0.0,0.0,0.0,0.0,0.0,0.0,0.0,0.0,0.0,0.0,0.0,0.0,0.0,0.0,0.0,0.0,0.0,0.0,0.0,0.0,0.0,0.0,0.0,0.0,0.0,0.0,0.0,0.0,0.0,0.0,0.0,0.0,0.0,0.0,-4.3226,-4.9577,-5.7505,-6.3614,-6.7615,-6.7744,-6.7475,-6.709,-6.3433,-5.8324,0.0,0.0,0.0,0.0,0.0,0.0,0.0,0.0,0.0,0.0,0.0,0.0,0.0,0.0,0.0,0.0,0.0,0.0,0.0,0.0,0.0,0.0,0.0,0.0,0.0,0.0,0.0,0.0,0.0,0.0,0.0,0.0,0.0,0.0,0.0,0.0,0.0,0.0,0.0,0.0,0.0,0.0,-4.4874,-4.3451,0.0,0.0,0.0,-4.2994,-4.3444,0.0,0.0,0.0,0.0,0.0,0.0,0.0,0.0,0.0,0.0,0.0,0.0,0.0,0.0,0.0,0.0,0.0,0.0,0.0,0.0,0.0,0.0,0.0,0.0,0.0,0.0,0.0,0.0,0.0,0.0,0.0,0.0,0.0,0.0,0.0,0.0,0.0,0.0,0.0,0.0,0.0,0.0,0.0,0.0,0.0,0.0,0.0,0.0,0.0,0.0,0.0,0.0,0.0,0.0,0.0,0.0,0.0,-5.0769,-6.0425,-6.6368,-6.8308,-6.7975,-6.7552,-6.7064,-6.3709,0.0,0.0,0.0,0.0,0.0,0.0,0.0,0.0,0.0,0.0,0.0,0.0,0.0,0.0,0.0,0.0,0.0,0.0,0.0,0.0,0.0,0.0,0.0,0.0,0.0,0.0,0.0,-2.5471,0.0,0.0,0.0,0.0,0.0,0.0,0.0,0.0,0.0,0.0,0.0,0.0,0.0,0.0,-4.3901,-4.7535,-4.6488,-4.6338,0.0,0.0,-4.5708,-4.5027,-4.7255,-4.6855,0.0,0.0,0.0,0.0,0.0,0.0,0.0,0.0,0.0,0.0,0.0,0.0,0.0,0.0,0.0,0.0,0.0,0.0,0.0,0.0,0.0,0.0,0.0,0.0,0.0,0.0,0.0,0.0,0.0,0.0,0.0,0.0,0.0,0.0,0.0,0.0,0.0,0.0,0.0,0.0,0.0,0.0,0.0,0.0,0.0,0.0,0.0,0.0,0.0,0.0,0.0,0.0,0.0,0.0,0.0,-5.0836,-6.0999,-6.698,-6.8371,-6.9167,-6.8744,-6.7141,-6.5345,-5.9699,0.0,0.0,0.0,0.0,0.0,0.0,0.0,0.0,0.0,0.0,0.0,0.0,0.0,0.0,0.0,0.0,0.0,0.0,0.0,0.0,0.0,0.0,0.0,0.0,0.0,0.0,0.0,0.0,0.0,0.0,0.0,0.0,0.0,0.0,0.0,0.0,0.0,0.0,0.0,0.0,0.0,-4.4342,-4.6819,-4.839,-4.9947,0.0,0.0,-4.8784,-5.02,-5.1777,-5.0112,-4.2219,0.0,0.0,0.0,0.0,0.0,0.0,0.0,0.0,0.0,0.0,0.0,0.0,0.0,0.0,0.0,0.0,0.0,0.0,0.0,0.0,0.0,0.0,0.0,0.0,0.0,0.0,0.0,0.0,0.0,0.0,0.0,0.0,0.0,0.0,0.0,0.0,0.0,0.0,0.0,0.0,0.0,0.0,0.0,0.0,0.0,0.0,0.0,0.0,0.0,0.0,0.0,0.0,0.0,-4.7214,-5.2259,-6.1233,-6.6995,-6.9064,-6.8475,-6.7782,-6.7128,-6.4936,-6.0553,0.0,0.0,0.0,0.0,0.0,0.0,0.0,0.0,0.0,0.0,0.0,0.0,0.0,0.0,0.0,0.0,0.0,0.0,0.0,0.0,0.0,0.0,0.0,0.0,0.0,0.0,0.0,0.0,-3.429,-3.4614,-3.2184,0.0,0.0,0.0,0.0,0.0,0.0,0.0,0.0,0.0,0.0,-4.7312,-4.9128,-5.0511,0.0,0.0,-5.1749,-5.1045,-5.1651,-5.1824,-5.0073,-4.4683,-4.2224,0.0,0.0,0.0,0.0,0.0,0.0,0.0,0.0,0.0,0.0,0.0,0.0,0.0,0.0,0.0,0.0,0.0,0.0,0.0,0.0,0.0,0.0,0.0,0.0,0.0,0.0,0.0,0.0,0.0,0.0,0.0,0.0,0.0,0.0,0.0,0.0,0.0,0.0,0.0,0.0,0.0,0.0,0.0,0.0,0.0,0.0,0.0,0.0,0.0,0.0,0.0,0.0,-4.7909,-5.2916,-6.1299,-6.6605,-6.8656,-6.7653,-6.6974,-6.6705,-6.5013,-6.1609,0.0,0.0,0.0,0.0,0.0,0.0,0.0,0.0,0.0,0.0,0.0,0.0,0.0,0.0,0.0,0.0,0.0,0.0,0.0,0.0,0.0,0.0,0.0,0.0,0.0,0.0,0.0,0.0,-3.5794,-3.5458,-3.2483,0.0,0.0,0.0,0.0,0.0,0.0,0.0,0.0,0.0,0.0,-4.9792,-5.1295,-5.2009,-5.2558,-5.325,-5.1967,-5.1019,-5.1173,-5.1151,-4.983,-4.6144,0.0,0.0,0.0,0.0,0.0,0.0,0.0,0.0,0.0,0.0,0.0,0.0,0.0,0.0,0.0,0.0,0.0,0.0,0.0,0.0,0.0,0.0,0.0,0.0,0.0,0.0,0.0,0.0,0.0,0.0,0.0,0.0,0.0,0.0,0.0,0.0,0.0,0.0,0.0,0.0,0.0,0.0,0.0,0.0,0.0,0.0,0.0,0.0,0.0,0.0,0.0,0.0,0.0,-4.7753,-5.2473,-6.1128,-6.5876,-6.6504,-6.6877,-6.6718,-6.5974,-6.5859,-6.3012,-5.7088,0.0,0.0,0.0,0.0,0.0,0.0,0.0,0.0,0.0,0.0,0.0,0.0,0.0,0.0,0.0,0.0,0.0,0.0,0.0,0.0,0.0,0.0,0.0,0.0,0.0,0.0,-2.8618,-3.0522,-3.1958,0.0,0.0,0.0,0.0,0.0,0.0,0.0,0.0,0.0,0.0,-4.7259,-5.1323,-5.2882,-5.2738,-5.2732,-5.3397,-5.0433,-4.8295,-4.9103,-5.0242,-4.9841,0.0,0.0,0.0,0.0,0.0,0.0,0.0,0.0,0.0,0.0,0.0,0.0,0.0,0.0,0.0,0.0,0.0,0.0,0.0,0.0,0.0,0.0,0.0,0.0,0.0,0.0,0.0,-4.6978,-4.5973,0.0,0.0,0.0,0.0,0.0,0.0,0.0,0.0,0.0,0.0,0.0,-5.5517,-5.5213,0.0,0.0,0.0,0.0,0.0,0.0,0.0,0.0,0.0,0.0,0.0,0.0,-4.9297,-5.3893,-6.1072,-6.5448,-6.6811,-6.6499,-6.6167,-6.5897,-6.5556,-6.2146,-5.5382,0.0,0.0,0.0,0.0,0.0,0.0,0.0,0.0,0.0,0.0,0.0,0.0,0.0,0.0,0.0,0.0,0.0,0.0,0.0,0.0,0.0,0.0,0.0,0.0,0.0,-3.3002,0.0,0.0,0.0,0.0,0.0,0.0,0.0,0.0,0.0,0.0,0.0,-4.1531,-4.5225,-4.8841,-5.1483,-5.241,-5.37,-5.4855,0.0,0.0,0.0,0.0,0.0,0.0,0.0,0.0,0.0,0.0,0.0,0.0,0.0,0.0,-4.7612,-4.2779,-4.1205,-4.0734,-4.1038,0.0,0.0,0.0,0.0,0.0,0.0,0.0,0.0,0.0,0.0,0.0,0.0,0.0,0.0,0.0,0.0,-5.0403,0.0,0.0,0.0,0.0,0.0,0.0,0.0,0.0,-5.6154,-5.8423,-6.0205,-6.0128,-5.9533,0.0,-5.6456,-5.1963,0.0,0.0,0.0,0.0,0.0,0.0,0.0,0.0,-5.0723,-5.554,-6.1392,-6.5069,-6.6312,-6.6064,-6.5743,-6.5436,-6.4676,-6.1842,-5.6798,-5.3532,-4.9806,0.0,0.0,0.0,0.0,0.0,0.0,0.0,0.0,0.0,0.0,0.0,0.0,0.0,0.0,0.0,0.0,0.0,0.0,0.0,0.0,0.0,0.0,0.0,-3.5441,0.0,0.0,0.0,0.0,0.0,0.0,0.0,0.0,0.0,-3.8658,-4.2161,-4.5886,-4.9054,-5.1651,-5.3085,-5.2664,0.0,0.0,0.0,0.0,0.0,0.0,0.0,-5.0055,-5.0528,-4.9292,-4.8268,-4.8434,-5.0726,-5.2357,-5.1739,0.0,0.0,-4.8637,-4.6987,-4.652,-4.679,-4.7716,-4.8338,-4.8092,-4.9548,-5.0751,0.0,0.0,0.0,0.0,0.0,0.0,0.0,0.0,-5.9681,-5.7835,0.0,-5.5937,0.0,0.0,0.0,0.0,0.0,0.0,0.0,0.0,-6.3879,-6.635,-6.5651,-6.4801,-6.4385,-6.4197,-6.1883,-5.9421,-5.6665,-5.201,0.0,0.0,0.0,0.0,0.0,0.0,-5.2114,-5.7487,-6.2108,-6.4643,-6.5092,-6.5572,-6.5423,-6.4539,-6.3255,-6.2125,-6.1069,-5.6855,-5.3452,-5.1064,-4.2589,0.0,0.0,0.0,0.0,0.0,0.0,0.0,0.0,0.0,0.0,0.0,0.0,0.0,0.0,0.0,0.0,0.0,0.0,0.0,0.0,-3.714,0.0,0.0,0.0,0.0,0.0,0.0,0.0,0.0,0.0,0.0,-4.332,-4.6184,-4.971,-5.2928,0.0,0.0,0.0,0.0,-5.4202,-5.2825,-5.0701,-4.9409,-4.9573,-5.1817,-5.3632,-5.3698,0.0,0.0,-5.4943,-5.6324,-5.6734,-5.3802,-5.5688,-5.7406,-5.5713,-5.3401,-5.2257,-5.2944,-5.3092,-5.3458,-5.4323,-5.5713,-5.7379,-6.432,0.0,0.0,0.0,0.0,-6.0512,-6.2397,-6.5718,-6.4158,-6.282,-6.168,-6.1034,0.0,0.0,0.0,0.0,0.0,0.0,-5.9431,-6.3604,-6.4943,-6.7087,-6.9971,-6.9356,-6.8525,-6.7543,-6.6827,-6.5805,-6.4487,-6.2496,-5.5616,-4.4308,0.0,0.0,0.0,0.0,-5.5873,-5.9268,-6.2975,-6.4863,-6.4742,-6.4885,-6.4238,-6.271,-6.2311,-6.1882,-6.1486,-5.9649,-5.709,-5.3765,-4.977,0.0,0.0,0.0,0.0,0.0,0.0,0.0,0.0,0.0,0.0,0.0,0.0,0.0,0.0,0.0,0.0,0.0,0.0,0.0,-3.5078,-3.9548,-4.0925,0.0,0.0,0.0,0.0,0.0,0.0,0.0,0.0,0.0,-5.0109,-5.0748,-5.1557,0.0,0.0,-5.3194,-5.2006,-5.3414,-5.5064,-5.6335,0.0,0.0,0.0,-5.5667,-5.503,-5.6588,-5.7287,-5.7263,-5.636,-5.6272,-5.6233,-5.5755,-5.6474,-5.7122,-5.7227,-5.6713,-5.6235,-5.6474,-5.6508,-5.6577,-5.6885,-5.7535,-5.7947,-7.1822,-6.8257,-6.4436,-6.3974,-6.5743,-6.532,-6.6936,-6.9846,-6.8867,-6.7937,-6.7102,-6.7118,-6.5235,-6.1923,-5.9894,0.0,0.0,0.0,-6.2715,-6.727,-6.7027,-6.8518,-7.1321,-7.0896,-7.0175,-6.9376,-6.9045,-6.8825,-6.8632,-6.7373,-6.1671,-5.1973,0.0,0.0,-5.0487,-5.4701,-5.8418,-6.1469,-6.3879,-6.4953,-6.4615,-6.3974,-6.2915,-6.148,-6.1389,-6.131,-6.1128,-6.097,-5.9816,-5.753,-5.4519,-5.0946,0.0,0.0,0.0,0.0,0.0,0.0,0.0,0.0,0.0,0.0,0.0,-3.2344,-2.8479,0.0,0.0,0.0,-3.7382,-3.8799,-4.1058,-4.4042,0.0,0.0,0.0,0.0,0.0,0.0,0.0,-4.8239,-5.1605,-5.4048,-5.5022,-5.454,-5.4262,-5.4606,-5.4618,-5.4309,-5.3587,0.0,-5.6988,-5.8468,-5.8219,-5.8501,-6.021,-5.8876,-5.8013,-5.9324,-5.883,-5.818,-5.7758,-5.709,-5.6767,-5.7103,-5.7239,-5.7374,-5.7814,-5.7881,-5.7881,-5.7881,-5.7881,-5.7881,-5.7881,-5.8118,-5.8321,-7.8492,-7.7838,-7.0129,-6.8244,-7.0244,-7.0206,-7.1091,-7.2552,-7.3283,-7.2706,-7.1371,-7.3095,-7.1137,-6.6295,-6.2853,0.0,-6.2897,-6.4464,-6.6957,-7.0039,-7.0226,-7.0728,-7.1416,-7.0766,-7.0386,-7.0293,-6.9486,-6.9449,-6.9954,-6.8308,-6.5747,-6.2538,-6.0299,-5.8435,-5.6995,-5.7853,-6.0203,-6.3762,-6.4588,-6.4809,-6.4385,-6.2746,-6.1468,-6.0672,-6.0636,-6.0579,-6.0528,-6.1238,-6.1643,-6.1545,-5.7611,-5.4229,-5.1823,0.0,0.0,0.0,0.0,0.0,0.0,0.0,0.0,0.0,0.0,0.0,0.0,0.0,0.0,0.0,-4.7444,0.0,-5.0875,-4.9627,0.0,0.0,0.0,-4.5039,-4.77,-5.0582,-5.2983,-5.4517,0.0,0.0,-5.8202,0.0,-5.7425,-5.8274,-5.8139,-5.7774,-5.7107,-5.8256,-5.9456,-5.9727,-5.9769,-6.0084,-6.1169,-6.1536,-6.1751,-6.1692,-6.1117,-6.0262,-5.9418,-5.8629,-5.8124,-5.8118,-5.8084,-5.8084,-5.8084,-5.8152,-5.8051,-5.8118,-5.8051,-5.8017,-5.8186,-5.866,-5.9099,-7.8492,-7.8338,-7.6322,-7.5515,-7.5438,-7.4784,-7.4745,-7.5053,-7.463,-7.4168,-7.3769,-7.3644,-7.289,-7.1717,-7.2243,-7.2176,-7.1659,-7.2303,-7.3598,-7.5337,-7.498,-7.496,-7.5275,-7.4101,-7.298,-7.1937,-7.1138,-7.0513,-7.0073,-6.9623,-6.8243,-6.6063,-6.5417,-6.262,-5.7991,-6.021,-6.2378,-6.4141,-6.4144,-6.3578,-6.2568,-6.0936,-6.0045,-6.0108,-6.0491,-6.088,-6.1299,-6.1883,-6.2313,-6.2487,-6.1203,-5.9966,-5.8661,-5.0327,0.0,0.0,0.0,0.0,0.0,0.0,0.0,0.0,0.0,-4.0516,-3.4581,0.0,-4.2018,0.0,-5.3371,-5.55,-5.205,-5.2454,0.0,0.0,-5.0141,-5.0031,-5.484,-5.5574,-5.6054,-5.7107,-5.8812,-5.9709,-5.9095,-5.8853,-5.9203,-6.0539,-5.8709,-5.7327,-5.7846,-5.9199,-6.0666,-6.1844,-6.2567,-6.3282,-6.3947,-6.43,-6.4157,-6.3465,-6.2658,-6.1879,-6.0981,-6.0132,-5.9573,-5.9573,-5.9573,-5.9573,-5.9577,-5.9573,-5.9573,-5.9539,-5.9133,-5.893,-5.9471,-5.9742,-5.9844,-7.9631,-7.9631,-7.9246,-7.8592,-7.7746,-7.6938,-7.613,-7.5438,-7.5322,-7.5284,-7.5284,-7.5207,-7.4704,-7.3903,-7.4562,-7.4334,-7.3466,-7.3972,-7.4913,-7.6086,-7.5644,-7.5666,-7.6097,-7.4807,-7.3942,-7.3416,-7.2704,-7.1931,-7.1051,-7.0754,-6.9714,-6.7986,-6.7605,-6.5473,-6.1739,-6.2631,-6.3074,-6.2959,-6.3188,-6.2819,-6.1935,-6.0956,-5.9682,-5.8109,-6.0096,-6.0604,-5.9515,-6.1168,-6.1487,-6.0215,-5.9967,-5.9492,-5.8557,-5.3203,-5.0355,0.0,0.0,0.0,0.0,0.0,0.0,0.0,0.0,0.0,0.0,0.0,-4.6434,0.0,-5.5207,-5.7519,-5.3445,-5.484,-5.6271,-5.7005,-5.5464,-5.5904,-5.9722,-5.9758,-5.9651,-6.0143,-6.0991,-6.1501,-6.1454,-6.1101,-6.1448,-6.3012,-6.1422,-6.0277,-6.0765,-6.1606,-6.2692,-6.4221,-6.4882,-6.5301,-6.5778,-6.5852,-6.5286,-6.3729,-6.3013,-6.2408,-6.1606,-6.1043,-6.0827,-6.1186,-6.1007,-6.0716,-6.0716,-6.0649,-6.0689,-6.1028,-6.1061,-6.0791,-6.025,-6.0655,-6.1129,-8.1093,-8.1054,-8.0285,-7.9554,-7.8746,-7.8092,-7.6669,-7.4938,-7.5668,-7.5976,-7.6053,-7.6855,-7.6147,-7.4388,-7.3876,-7.3212,-7.2608,-7.3484,-7.4408,-7.5302,-7.496,-7.5085,-7.5622,-7.4411,-7.4126,-7.4625,-7.4097,-7.3351,-7.2383,-7.1775,-7.0615,-6.9007,-6.8188,-6.711,-6.5777,-6.4593,-6.3236,-6.1735,-6.2145,-6.2084,-6.1468,-6.1261,-5.9432,-5.6137,-5.9653,-6.0408,-5.7702,-6.0315,-6.0541,-5.765,-5.7424,-5.7126,-5.6414,-5.5579,-5.4382,0.0,-5.1262,0.0,0.0,0.0,0.0,0.0,0.0,0.0,0.0,-5.1703,-5.1316,-4.9554,-5.5537,-5.84,-5.5721,-5.7373,-5.9171,-6.0529,-6.0713,-6.1263,-6.2622,-6.2805,-6.2805,-6.2805,-6.2915,-6.3282,-6.3844,-6.3503,-6.3734,-6.5007,-6.4662,-6.4207,-6.4468,-6.4406,-6.4882,-6.6439,-6.6733,-6.688,-6.7063,-6.7026,-6.6299,-6.4148,-6.38,-6.3203,-6.2613,-6.244,-6.2576,-6.3143,-6.2784,-6.2195,-6.2056,-6.1947,-6.198,-6.255,-6.3091,-6.2922,-6.1501,-6.1839,-6.2618,-8.1093,-8.1093,-8.0939,-8.0746,-8.0592,-8.0439,-7.8631,-7.5745,-7.5938,-7.5976,-7.6024,-7.6382,-7.5946,-7.5056,-7.6275,-7.6732,-7.6637,-7.7934,-7.8606,-7.8792,-7.7772,-7.701,-7.6391,-7.5263,-7.472,-7.483,-7.472,-7.4243,-7.3423,-7.2627,-7.1315,-6.9509,-6.868,-6.7029,-6.468,0.0,0.0,0.0,-6.2123,-6.0604,-5.916,-5.8258,-5.7418,-5.6685,-5.976,0.0,-6.0938,-6.189,-6.1961,-6.092,-6.0864,0.0,0.0,0.0,0.0,0.0,0.0,0.0,0.0,0.0,0.0,0.0,-5.3367,-5.3077,-5.3111,-5.6404,-5.7629,-5.5574,-5.8804,-6.119,-6.1227,-6.163,-6.2034,-6.2291,-6.234,-6.2475,-6.2805,-6.2805,-6.2805,-6.2842,-6.3429,-6.3906,-6.4127,-6.4494,-6.5191,-6.6072,-6.6145,-6.6329,-6.688,-6.6402,-6.6439,-6.732,-6.7981,-6.8678,-6.9302,-6.9339,-6.8804,-6.7945,-6.7662,-6.7171,-6.6307,-6.6139,-6.621,-6.6443,-6.5759,-6.5075,-6.5073,-6.4551,-6.3971,-6.414,-6.4343,-6.4275,-6.3835,-6.3971,-6.4174,-8.2324,0.0,-8.2324,-8.2093,0.0,-8.1285,-8.0131,-7.8438,-7.7592,-7.6602,-7.5589,-7.5695,-7.5208,-7.4315,-7.5205,-7.5544,-7.5604,-7.6297,-7.6787,-7.7017,-7.6142,-7.5703,-7.5655,-7.4728,-7.4462,-7.4737,-7.4433,-7.3873,-7.2953,-7.2262,-7.1416,-7.0423,-6.9636,-6.8753,-6.7736,-6.7337,-6.6306,-6.4495,-6.3413,-6.2324,-6.1311,-6.0729,-5.9533,-5.7809,0.0,0.0,0.0,0.0,0.0,0.0,0.0,0.0,0.0,0.0,0.0,-5.8034,-5.6065,-5.4828,-5.5025,-5.5246,-5.6549,-5.9153,-6.0,-5.9756,-5.8201,-6.0638,-6.152,-5.9979,-6.13,-6.2365,-6.2768,-6.2805,-6.2805,-6.2805,-6.2805,-6.2805,-6.2879,-6.3172,-6.3429,-6.3503,-6.4163,-6.4824,-6.5228,-6.5595,-6.6219,-6.6953,-6.7467,-6.7797,-6.8164,-6.7944,-6.7981,-6.8715,-6.9192,-6.9633,-7.0,-7.011,-6.9819,-6.9032,-6.878,-6.8625,-6.817,-6.8106,-6.8203,-6.849,-6.7572,-6.667,-6.6597,-6.6135,-6.5696,-6.5764,-6.6305,-6.6779,-6.6745,-6.5933,-6.5121,-8.3439,-8.3593,-8.3593,-8.317,-8.2477,-8.1823,-8.1314,-8.0789,0.0,0.0,0.0,-7.4886,-7.4299,-7.3417,-7.3391,-7.3466,-7.3603,-7.3728,-7.4066,-7.446,-7.3899,-7.3876,-7.4346,-7.3904,-7.395,-7.4423,-7.4069,-7.3397,-7.2481,-7.1849,-7.1439,-7.1219,-7.0477,-7.044,-7.0954,-6.9633,-6.7778,-6.5514,-6.4813,-6.422,-6.3763,-6.3714,-6.2045,-5.8706,-6.1102,-6.1252,-5.8834,-6.0696,-6.0507,-5.7838,-5.7687,-5.7785,-5.7976,-5.7995,-5.9309,-6.2142,-6.2405,-6.2562,-6.2822,-6.3445,-6.4015,-6.4482,-6.5007,-6.4677,-6.3172,-6.3686,-6.3723,-6.2853,-6.2805,-6.2805,-6.2805,-6.2805,-6.2853,-6.3025,-6.3062,-6.3099,-6.3282,-6.3833,-6.431,-6.4383,-6.5007,-6.5742,-6.6329,-6.6586,-6.699,-6.776,-6.8385,-6.9082,-6.9265,-6.9192,-6.9302,-7.0073,-7.0293,-7.0403,-7.0734,-7.0881,-7.0478,-7.0302,-6.9917,-6.9647,-6.9611,-6.9611,-6.9895,-7.0615,-6.9221,-6.8394,-6.8152,-6.7683,-6.7235,-6.7218,-6.8199,-6.9079,-6.8944,-6.776,-6.6663,-8.2939,-8.3593,-8.3593,-8.3532,-8.3401,-8.3285,-8.2109,-8.0163,-7.8521,-7.6804,-7.5054,-7.4079,-7.3553,-7.3391,-7.3391,-7.3789,-7.4474,-7.4972,-7.5268,0.0,-7.4709,-7.4125,-7.3589,-7.3674,-7.3729,-7.3852,-7.4427,-7.4316,-7.3484,-7.27,-7.2018,-7.1293,-7.0513,-7.0183,-7.0183,-6.9376,-6.8705,-6.8262,-6.5186,-6.3237,-6.2516,-6.2197,-6.111,-5.9365,-6.1601,-6.241,-6.1317,-6.1656,-6.158,-6.1128,-6.109,-6.1525,-6.2481,-6.2476,-6.3245,-6.4648,-6.482,-6.4806,-6.4841,-6.4988,-6.5342,-6.6035,-6.5632,-6.4897,-6.4016,-6.4016,-6.3723,-6.2915,-6.2879,-6.2805,-6.2805,-6.2879,-6.3209,-6.3796,-6.3906,-6.4163,-6.4761,-6.5044,-6.5154,-6.5154,-6.5852,-6.6366,-6.6586,-6.7136,-6.7797,-6.8531,-6.8972,-6.9449,-7.055,-7.0367,-7.033,-7.0917,-7.1109,-7.1725,-7.2679,-7.3156,-7.312,-7.3992,-7.2998,-7.2263,-7.2227,-7.2227,-7.2329,-7.2781,-7.1654,-7.1088,-7.105,-6.99,-6.8931,-6.8707,-6.9079,-6.9248,-6.9379,-6.9556,-6.9542,-8.3516,-8.4214,-8.3898,-8.402,-8.4384,-8.4075,-8.2247,-7.9594,-7.8965,-7.747,-7.5494,-7.491,-7.4524,-7.4219,-7.4219,-7.4146,-7.4127,-7.4413,-7.4309,-7.3873,-7.3596,-7.3286,-7.2936,-7.2998,-7.3046,-7.3083,-7.3413,-7.3413,-7.301,-7.2679,-7.2532,-7.2569,-7.2239,-7.1615,-7.077,-7.0403,-6.9752,-6.8898,-6.6821,-6.5558,-6.5189,-6.4604,-6.4151,-6.3794,-6.4568,-6.4739,-6.4368,-6.433,-6.3922,-6.3089,-6.3052,-6.3311,-6.3796,-6.3846,-6.4255,-6.5191,-6.5338,-6.5338,-6.5338,-6.5705,-6.6292,-6.7063,-6.6806,-6.6256,-6.5448,-6.5007,-6.4567,-6.42,-6.4138,-6.4163,-6.4163,-6.4163,-6.4347,-6.4714,-6.4751,-6.4897,-6.5264,-6.5742,-6.5962,-6.6035,-6.6659,-6.7136,-6.7136,-6.7834,-6.8421,-6.8935,-6.9559,-7.077,-7.2312,-7.2275,-7.2165,-7.2532,-7.2606,-7.3083,-7.4081,-7.3836,-7.3765,-7.4061,-7.3274,-7.2689,-7.2584,-7.2584,-7.2584,-7.2549,-7.186,-7.1259,-7.1252,-7.043,-6.9804,-6.9722,-7.006,-7.0405,-7.0986,-7.192,-7.1887,-8.3737,-8.4331,-8.385,-8.3915,-8.428,-8.3686,-8.1771,-7.9303,-7.9247,-7.81,-7.6253,-7.577,-7.5356,-7.4948,-7.4888,-7.4551,-7.4037,-7.3964,-7.3634,-7.3083,-7.3046,-7.3046,-7.301,-7.2863,-7.2753,-7.2753,-7.2606,-7.2532,-7.2532,-7.2532,-7.2826,-7.3377,-7.345,-7.2789,-7.1586,-7.1394,-7.0587,-6.9229,-6.8568,-6.8054,-6.7687,-6.7247,-6.7247,-6.7577,-6.709,-6.6659,-6.6512,-6.6329,-6.5668,-6.4494,-6.4347,-6.4343,-6.4359,-6.4526,-6.4893,-6.5457,-6.571,-6.5925,-6.6145,-6.6659,-6.732,-6.7907,-6.7797,-6.743,-6.6806,-6.6035,-6.5485,-6.5338,-6.5264,-6.5264,-6.5228,-6.5238,-6.5375,-6.5558,-6.5558,-6.5668,-6.5888,-6.6402,-6.688,-6.7063,-6.7614,-6.8017,-6.8274,-6.8788,-6.9265,-6.9669,-7.0844,-7.2349,-7.345,-7.3817,-7.4001,-7.4147,-7.4111,-7.4139,-7.4714,-7.4224,-7.3769,-7.3604,-7.2832,-7.2383,-7.2234,-7.2164,-7.2129,-7.2194,-7.1831,-7.1602,-7.1364,-7.1148,-7.1073,-7.1109,-7.1481,-7.2042,-7.2747,-7.3135,-7.3277,-8.2608,-8.2874,-8.2834,-8.2488,-8.2,-8.1387,-8.0495,-7.9417,-7.8928,-7.8162,-7.7022,-7.5632,-7.5044,-7.4918,-7.4925,-7.4918,-7.4808,-7.4808,-7.4735,-7.4661,-7.4698,-7.4698,-7.4515,-7.3927,-7.3597,-7.3487,-7.2863,-7.2569,-7.2532,-7.2532,-7.2532,-7.2606,-7.2606,-7.2569,-7.2312,-7.166,-7.0852,-7.0,-6.9926,-6.9155,-6.7861,-6.8348,-6.8385,-6.7687,-6.765,-6.7247,-6.6659,-6.5815,-6.5375,-6.5228,-6.5165,-6.5131,-6.5076,-6.577,-6.629,-6.6322,-6.7039,-6.776,-6.8458,-6.8641,-6.8678,-6.8715,-6.8091,-6.765,-6.753,-6.6843,-6.6072,-6.5595,-6.5375,-6.5448,-6.5338,-6.5375,-6.5705,-6.6329,-6.6402,-6.6659,-6.7283,-6.754,-6.7871,-6.8605,-6.8715,-6.9045,-6.9559,-6.9926,-7.033,-7.1027,-7.2386,-7.3487,-7.3891,-7.4441,-7.5065,-7.5506,-7.5322,-7.4842,-7.4744,-7.4591,-7.4295,-7.4146,-7.3366,-7.2765,-7.2643,-7.2712,-7.2712,-7.2873,-7.3144,-7.3288,-7.3318,-7.3382,-7.3049,-7.2744,-7.2971,-7.3345,-7.3611,-7.3447,-7.2932,-8.2152,-8.1879,-8.1528,-8.108,-8.0562,-8.0326,-7.9734,-7.8965,-7.8707,-7.8112,-7.7273,-7.6576,-7.6319,-7.6319,-7.6319,-7.6063,-7.5616,-7.5616,-7.5359,-7.4925,-7.4888,-7.4888,-7.4882,-7.4588,-7.4184,-7.3707,-7.334,-7.2973,-7.2569,-7.2532,-7.2532,-7.2532,-7.2532,-7.2532,-7.243,-7.1623,-7.1258,-7.1476,-7.0492,-6.9916,-6.9834,-6.9669,-6.9706,-6.9816,-6.9816,-6.9449,-6.8678,-6.8311,-6.7241,-6.5403,-6.5202,-6.512,-6.4983,-6.5892,-6.6838,-6.7728,-6.8625,-6.9265,-6.9596,-6.9192,-6.8898,-6.8898,-6.8164,-6.7687,-6.7687,-6.7393,-6.7063,-6.6806,-6.6733,-6.6733,-6.6733,-6.6696,-6.6843,-6.7136,-6.7173,-6.754,-6.8311,-6.8421,-6.8715,-6.9449,-6.9633,-6.9706,-7.0183,-7.0954,-7.1798,-7.2642,-7.3744,-7.4515,-7.4992,-7.5432,-7.5946,-7.654,-7.6497,-7.6053,-7.5417,-7.4726,-7.4429,-7.3992,-7.3238,-7.2644,-7.3123,-7.3181,-7.3318,-7.3772,-7.4159,-7.4364,-7.4218,-7.4207,-7.4086,-7.3908,-7.4138,-7.4419,-7.4506,-7.4691,-7.4643,-8.1534,-8.0718,-7.9913,-7.9363,-7.9134,-7.9103,-7.8772,-7.8295,-7.8259,-7.7892,-7.731,-7.731,-7.731,-7.731,-7.731,-7.6974,-7.6497,-7.646,-7.613,-7.5616,-7.5579,-7.5579,-7.5542,-7.5322,-7.4808,-7.4111,-7.378,-7.3266,-7.2569,-7.2532,-7.2532,-7.2532,-7.2532,-7.2343,-7.2071,-7.1381,-7.1448,-7.1945,-7.1019,-7.0925,-7.1464,-7.1284,-7.1174,-7.1321,-7.1293,-7.1027,-7.044,-6.9766,-6.8327,-6.5928,-6.5364,-6.4912,-6.4629,-6.5927,-6.7433,-6.8941,-6.9725,-7.022,-7.0403,-6.9889,-6.9559,-6.9486,-6.8825,-6.8238,-6.8128,-6.8201,-6.8348,-6.8385,-6.8752,-6.8898,-6.8054,-6.8017,-6.8091,-6.8311,-6.8348,-6.8678,-6.9449,-6.9412,-6.9633,-7.055,-7.0587,-7.0624,-7.1138,-7.2092,-7.3046,-7.3891,-7.4698,-7.5395,-7.5983,-7.624,-7.668,-7.72,-7.7228,-7.6723,-7.5869,-7.5188,-7.4479,-7.3806,-7.3129,-7.3073,-7.3612,-7.3747,-7.4065,-7.458,-7.4924,-7.5249,-7.5438,-7.5296,-7.4931,-7.4509,-7.4628,-7.5072,-7.4802,-7.5489,-7.5497,-8.0587,-7.9218,-7.7969,-7.7573,-7.742,-7.7494,-7.742,-7.742,-7.7414,-7.7347,-7.731,-7.731,-7.731,-7.731,-7.731,-7.7273,-7.7237,-7.7163,-7.7127,-7.7053,-7.709,-7.7163,-7.7127,-7.6423,-7.5616,-7.4735,-7.4111,-7.334,-7.2569,-7.2532,-7.2532,-7.2532,-7.2532,-7.2071,-7.149,-7.1264,-7.1163,-7.1644,-7.1849,-7.2237,-7.2461,-7.3127,-7.2621,-7.1419,-7.1293,-7.1293,-7.0951,-6.8982,-6.7619,-6.7414,-6.5843,-6.4631,-6.4111,-6.6174,-6.8295,-6.9803,-7.0119,-7.0477,-7.1138,-7.1109,-7.1036,-7.0999,-7.0257,-6.9633,-6.8972,-6.9486,-6.9853,-6.9963,-7.1138,-7.1101,-6.9486,-6.9192,-6.9339,-6.9889,-7.0,-7.0367,-7.1101,-7.0587,-7.0844,-7.1835,-7.1762,-7.1872,-7.3193,-7.3597,-7.4074,-7.4771,-7.5542,-7.6166,-7.6387,-7.6864,-7.7273,-7.7406,-7.7255,-7.6625,-7.5711,-7.5215,-7.4682,-7.4116,-7.3753,-7.3747,-7.4187,-7.4627,-7.5067,-7.5608,-7.6318,-7.6724,-7.6792,-7.6555,-7.6082,-7.5655,-7.5351,-7.5395,-7.5343,-7.4814,-7.5022,-8.0785,-7.8551,-7.768,-7.731,-7.731,-7.731,-7.731,-7.731,-7.731,-7.731,-7.731,-7.731,-7.731,-7.731,-7.731,-7.731,-7.731,-7.731,-7.731,-7.731,-7.731,-7.731,-7.7237,-7.698,-7.6166,-7.5028,-7.4625,-7.378,-7.2606,-7.2532,-7.2532,-7.2532,-7.2532,-7.257,-7.2638,-7.2178,-7.2581,-7.3973,-7.2988,-7.2392,-7.2998,-7.288,-7.2227,-7.1277,-7.1758,-7.1538,-7.0411,-6.9519,-6.8095,-6.5932,-6.5198,-6.4485,-6.3985,-6.6532,-6.9025,-7.0674,-7.1321,-7.1762,-7.1945,-7.155,-7.1293,-7.1219,-7.055,-7.0036,-6.9853,-7.0403,-7.0881,-7.1101,-7.1835,-7.2092,-7.2092,-7.1505,-7.1321,-7.1541,-7.1651,-7.1945,-7.2459,-7.2165,-7.2092,-7.2936,-7.2973,-7.3156,-7.3707,-7.4588,-7.5322,-7.5689,-7.6387,-7.7047,-7.7598,-7.8002,-7.8259,-7.8741,-7.878,-7.8336,-7.7082,-7.5755,-7.4918,-7.4558,-7.4322,-7.4965,-7.5473,-7.5811,-7.6183,-7.7063,-7.7841,-7.7638,-7.7435,-7.6589,-7.6284,-7.5946,-7.5709,-7.5946,-7.6048,-7.5777,-7.6115,-7.9991,-7.8062,-7.748,-7.731,-7.731,-7.731,-7.731,-7.731,-7.731,-7.731,-7.731,-7.731,-7.731,-7.731,-7.731,-7.731,-7.731,-7.731,-7.731,-7.731,-7.731,-7.731,-7.731,-7.731,-7.646,-7.5065,-7.4625,-7.3891,-7.3046,-7.3156,-7.3303,-7.3303,-7.3266,-7.334,-7.3508,-7.2975,-7.3631,-7.454,-7.3297,-7.2727,-7.3219,-7.2824,-7.2,-7.1239,-7.1621,-7.1448,-7.0306,-6.9496,-6.8009,-6.5845,-6.4841,-6.4477,-6.501,-6.7236,-6.9569,-7.1414,-7.2165,-7.2532,-7.2459,-7.1982,-7.1688,-7.1688,-7.1248,-7.0881,-7.0917,-7.1835,-7.2357,-7.2614,-7.3487,-7.4331,-7.4588,-7.4368,-7.3854,-7.345,-7.3303,-7.3597,-7.4258,-7.3523,-7.3193,-7.3487,-7.3597,-7.3854,-7.4441,-7.5432,-7.624,-7.679,-7.7414,-7.8038,-7.8772,-7.8993,-7.914,-7.9658,-7.9588,-7.8924,-7.7876,-7.6654,-7.563,-7.5207,-7.4897,-7.5676,-7.6318,-7.6724,-7.7299,-7.8314,-7.8585,-7.8314,-7.7671,-7.6724,-7.6183,-7.5811,-7.6014,-7.6318,-7.6555,-7.6893,-7.7029,-7.8025,-7.7396,-7.731,-7.731,-7.731,-7.731,-7.731,-7.731,-7.731,-7.731,-7.731,-7.731,-7.731,-7.731,-7.731,-7.731,-7.731,-7.731,-7.731,-7.731,-7.731,-7.731,-7.7273,-7.72,-7.6393,-7.4918,-7.4111,-7.3744,-7.3744,-7.4205,-7.4542,-7.4778,-7.4572,-7.4134,-7.3576,-7.3543,-7.3466,-7.3474,-7.3214,-7.3104,-7.3104,-7.2963,-7.2183,-7.0981,-7.0806,-7.0839,-7.0901,-6.8609,-6.7232,-6.6616,-6.4805,-6.4824,-6.6742,-6.8245,-6.9915,-7.1845,-7.2459,-7.2496,-7.2532,-7.2422,-7.2386,-7.2386,-7.2459,-7.2386,-7.2532,-7.378,-7.4698,-7.4845,-7.5916,-7.7017,-7.6943,-7.687,-7.6283,-7.5219,-7.4918,-7.5249,-7.5542,-7.4698,-7.3707,-7.3817,-7.3891,-7.4441,-7.5579,-7.6166,-7.6754,-7.7928,-7.8405,-7.8809,-7.958,-7.98,-7.98,-7.9893,-8.0038,-7.9719,-7.8601,-7.7475,-7.6661,-7.5952,-7.5683,-7.5879,-7.6454,-7.6927,-7.7232,-7.8044,-7.8044,-7.7739,-7.7401,-7.6555,-7.6217,-7.598,-7.6318,-7.6521,-7.669,-7.6927,-7.7333,-7.8299,-7.7335,-7.731,-7.731,-7.731,-7.731,-7.731,-7.731,-7.731,-7.731,-7.731,-7.731,-7.731,-7.731,-7.731,-7.731,-7.731,-7.731,-7.731,-7.731,-7.731,-7.731,-7.72,-7.6754,-7.5946,-7.4918,-7.4074,-7.4001,-7.4389,-7.4119,-7.416,-7.4671,-7.4196,-7.403,-7.4201,-7.4237,-7.4186,-7.3887,-7.3265,-7.2699,-7.2206,-7.2096,-7.1573,-7.0667,-7.0113,-6.9847,-6.9828,-6.8604,-6.7083,-6.5517,-6.468,-6.4988,-6.6564,-6.8518,-7.0235,-7.15,-7.2239,-7.2532,-7.2532,-7.2532,-7.2532,-7.2606,-7.301,-7.3303,-7.3487,-7.4808,-7.5689,-7.5799,-7.6717,-7.731,-7.731,-7.731,-7.7017,-7.6644,-7.654,-7.654,-7.6644,-7.5946,-7.5175,-7.4698,-7.5028,-7.5579,-7.6056,-7.6497,-7.7414,-7.8442,-7.8699,-7.914,-8.0277,-8.0608,-8.0901,-8.1277,-8.1068,-8.0369,-7.9063,-7.8012,-7.7294,-7.6312,-7.5805,-7.5811,-7.642,-7.6792,-7.7164,-7.7333,-7.7299,-7.7164,-7.6826,-7.6487,-7.6082,-7.5912,-7.6014,-7.6251,-7.6521,-7.6927,-7.7401,-7.8245,-7.7335,-7.731,-7.731,-7.731,-7.731,-7.731,-7.731,-7.731,-7.731,-7.731,-7.731,-7.731,-7.731,-7.731,-7.731,-7.731,-7.731,-7.731,-7.731,-7.731,-7.731,-7.7231,-7.6497,-7.5873,-7.5359,-7.4845,-7.4845,-7.5299,-7.4696,-7.4609,-7.5006,-7.4206,-7.3974,-7.4439,-7.444,-7.4293,-7.3737,-7.3131,-7.2382,-7.1737,-7.1507,-7.1163,-7.0408,-6.9928,-6.955,-6.9275,-6.8526,-6.7181,-6.5474,-6.5328,-6.5953,-6.6768,-6.9057,-7.0864,-7.1655,-7.2165,-7.2532,-7.2532,-7.2789,-7.2936,-7.312,-7.3964,-7.4588,-7.4808,-7.5873,-7.6497,-7.6644,-7.7011,-7.731,-7.731,-7.731,-7.731,-7.7273,-7.7237,-7.7163,-7.6907,-7.6717,-7.6203,-7.5689,-7.5763,-7.6313,-7.6974,-7.7378,-7.8295,-7.914,-7.9507,-7.9874,-8.1048,-8.1452,-8.1819,-8.2039,-8.1872,-8.0838,-7.9345,-7.85,-7.7949,-7.6792,-7.5723,-7.5811,-7.6183,-7.6251,-7.6487,-7.6521,-7.6521,-7.6487,-7.6183,-7.6048,-7.5777,-7.5743,-7.5811,-7.6149,-7.6555,-7.713,-7.7634,-7.7997,-7.7335,-7.731,-7.731,-7.731,-7.7384,-7.7384,-7.731,-7.742,-7.7384,-7.731,-7.731,-7.731,-7.731,-7.731,-7.731,-7.731,-7.731,-7.7384,-7.7457,-7.7457,-7.7384,-7.7047,-7.6533,-7.6203,-7.6019,-7.5946,-7.5959,-7.5885,-7.5484,-7.5718,-7.5434,-7.4471,-7.4125,-7.409,-7.4161,-7.3624,-7.2804,-7.2666,-7.215,-7.1389,-7.1334,-7.1029,-7.0395,-7.0192,-6.9853,-6.9286,-6.8303,-6.7217,-6.6201,-6.6793,-6.7375,-6.8024,-7.0018,-7.1704,-7.2349,-7.2496,-7.2569,-7.2716,-7.3193,-7.367,-7.3854,-7.5028,-7.6093,-7.6019,-7.6607,-7.7127,-7.7163,-7.7237,-7.731,-7.731,-7.731,-7.731,-7.7384,-7.753,-7.7194,-7.6423,-7.6937,-7.6974,-7.6423,-7.6276,-7.6754,-7.8222,-7.8479,-7.936,-8.0314,-8.0755,-8.1122,-8.1709,-8.1966,-8.2113,-8.2186,-8.2186,-8.1299,-7.988,-7.8943,-7.8287,-7.7115,-7.5973,-7.5777,-7.5879,-7.5912,-7.5946,-7.5946,-7.5946,-7.5845,-7.5743,-7.5709,-7.5676,-7.5709,-7.5912,-7.6217,-7.6584,-7.7038,-7.7788,-7.8911,-7.7372,-7.731,-7.731,-7.7384,-7.7965,-7.7892,-7.742,-7.8002,-7.7928,-7.7457,-7.731,-7.7347,-7.731,-7.731,-7.731,-7.731,-7.731,-7.7708,-7.8185,-7.8259,-7.7488,-7.6754,-7.6864,-7.6717,-7.6276,-7.6209,-7.6042,-7.5835,-7.512,-7.4756,-7.4647,-7.3694,-7.3171,-7.3171,-7.3171,-7.2666,-7.183,-7.1732,-7.1644,-7.1367,-7.1312,-7.1244,-7.1041,-7.05,-7.0128,-6.9688,-6.8064,-6.7373,-6.7669,-6.8004,-6.8916,-7.0048,-7.1453,-7.2386,-7.2569,-7.2606,-7.2826,-7.3303,-7.3634,-7.4001,-7.4588,-7.5579,-7.6093,-7.613,-7.6864,-7.7237,-7.731,-7.731,-7.731,-7.731,-7.731,-7.753,-7.8148,-7.8185,-7.7855,-7.7341,-7.7708,-7.7928,-7.7231,-7.7524,-7.8075,-7.8626,-7.9213,-7.9874,-8.0755,-8.1122,-8.1305,-8.1966,-8.2186,-8.2186,-8.2186,-8.2051,-8.1405,-8.0514,-7.9536,-7.8536,-7.738,-7.637,-7.5709,-7.5743,-7.5777,-7.5743,-7.5743,-7.5811,-7.5743,-7.5709,-7.5676,-7.5676,-7.5676,-7.5777,-7.5946,-7.6224,-7.665,-7.7606,-7.9108,-7.7818,-7.742,-7.7708,-7.8332,-7.8516,-7.8479,-7.8479,-7.8846,-7.8846,-7.8369,-7.7965,-7.7855,-7.7818,-7.7457,-7.731,-7.731,-7.731,-7.7781,-7.8626,-7.9323,-7.8883,-7.8002,-7.7928,-7.7598,-7.7157,-7.6754,-7.6323,-7.5715,-7.4794,-7.412,-7.3571,-7.2666,-7.215,-7.215,-7.2142,-7.1917,-7.1401,-7.1312,-7.1312,-7.1312,-7.1312,-7.1312,-7.1244,-7.0838,-7.0567,-7.006,-6.891,-6.8342,-6.847,-6.8854,-6.9873,-7.1593,-7.2851,-7.3494,-7.3523,-7.3523,-7.3744,-7.4147,-7.4478,-7.4918,-7.5432,-7.6166,-7.6533,-7.668,-7.7053,-7.731,-7.731,-7.731,-7.731,-7.731,-7.731,-7.7714,-7.8369,-7.8589,-7.8405,-7.7855,-7.8259,-7.8332,-7.8112,-7.8295,-7.8956,-7.9433,-8.0021,-8.0645,-8.1269,-8.1562,-8.1782,-8.2113,-8.215,-8.2186,-8.2186,-8.1985,-8.1405,-8.0477,-7.9458,-7.8119,-7.7016,-7.6416,-7.5723,-7.5676,-7.5676,-7.5676,-7.5676,-7.5676,-7.5676,-7.5676,-7.5676,-7.5676,-7.5676,-7.5676,-7.5771,-7.5973,-7.6826,-7.7727,-7.9071,-7.8552,-7.7781,-7.8332,-7.9507,-7.914,-7.9213,-7.969,-7.9837,-7.98,-7.9543,-7.8993,-7.8736,-7.8662,-7.7965,-7.7494,-7.7494,-7.7567,-7.8185,-7.9213,-8.0241,-8.0571,-7.991,-7.9213,-7.8736,-7.8332,-7.7745,-7.6672,-7.5616,-7.461,-7.369,-7.279,-7.1776,-7.1367,-7.1457,-7.1367,-7.1312,-7.1312,-7.1312,-7.1312,-7.1312,-7.1312,-7.1312,-7.1278,-7.1278,-7.0838,-7.0364,-6.9979,-6.9756,-6.8945,-6.9631,-7.1012,-7.2669,-7.4324,-7.4712,-7.4735,-7.4661,-7.4771,-7.5102,-7.5579,-7.6093,-7.6313,-7.6833,-7.7273,-7.72,-7.7273,-7.731,-7.731,-7.731,-7.731,-7.7347,-7.7347,-7.7855,-7.8442,-7.8589,-7.8589,-7.8589,-7.8662,-7.8699,-7.8662,-7.8662,-7.9617,-8.0461,-8.1122,-8.1379,-8.1709,-8.1929,-8.2003,-8.215,-8.215,-8.2186,-8.2186,-8.1885,-8.1474,-8.044,-7.9302,-7.7779,-7.6462,-7.608,-7.5676,-7.5676,-7.5676,-7.5676,-7.5676,-7.5676,-7.5676,-7.5676,-7.5676,-7.5676,-7.5676,-7.5676,-7.5676,-7.5865,-7.7115,-7.8202,-7.962,-7.8589,-7.8405,-7.8883,-7.9764,-8.0277,-8.0204,-7.991,-8.0498,-8.0424,-7.9874,-7.9617,-7.9543,-7.947,-7.8662,-7.8332,-7.8332,-7.8442,-7.9066,-8.0534,-8.1452,-8.1856,-8.1452,-8.0791,-7.98,-7.8919,-7.8442,-7.7017,-7.5155,-7.4348,-7.3372,-7.1786,-7.1546,-7.1312,-7.1312,-7.1312,-7.1312,-7.1312,-7.1312,-7.1312,-7.1312,-7.1312,-7.1312,-7.1312,-7.1312,-7.0939,-7.0364,-7.0195,-7.082,-7.1683,-7.1867,-7.2616,-7.4592,-7.5055,-7.5072,-7.5072,-7.4999,-7.5249,-7.5763,-7.6056,-7.6387,-7.6907,-7.709,-7.731,-7.731,-7.731,-7.731,-7.731,-7.731,-7.731,-7.742,-7.7965,-7.8332,-7.8552,-7.8552,-7.8552,-7.8699,-7.9103,-7.9103,-7.9029,-7.969,-8.0608,-8.1012,-8.1599,-8.1893,-8.215,-8.2186,-8.2186,-8.2186,-8.2186,-8.2186,-8.2186,-8.2051,-8.1647,-8.0695,-7.938,-7.7598,-7.6358,-7.5879,-7.5676,-7.5676,-7.5676,-7.5676,-7.5676,-7.5676,-7.5676,-7.5676,-7.5676,-7.5676,-7.5676,-7.5723,-7.5818,-7.6266,-7.7476,-7.8659,-8.0304,-7.9171,-7.914,-7.9837,-8.0828,-8.0975,-8.0975,-8.1012,-8.1342,-8.1342,-8.0901,-8.0571,-8.0351,-8.0241,-7.9213,-7.8772,-7.9213,-7.958,-8.0167,-8.1048,-8.1782,-8.215,-8.215,-8.1672,-8.0755,-7.9323,-7.8736,-7.6995,-7.5008,-7.4155,-7.3292,-7.1457,-7.1312,-7.1312,-7.1312,-7.1312,-7.1312,-7.1312,-7.1312,-7.1312,-7.1312,-7.1312,-7.1312,-7.1312,-7.1312,-7.1075,-7.077,-7.0737,-7.1559,-7.2594,-7.3093,-7.4117,-7.6089,-7.6246,-7.6056,-7.5989,-7.6026,-7.6166,-7.6607,-7.6717,-7.6833,-7.7237,-7.731,-7.731,-7.731,-7.731,-7.731,-7.731,-7.731,-7.7384,-7.7855,-7.7745,-7.8222,-7.8846,-7.8442,-7.8332,-7.8956,-7.9213,-7.9323,-7.9323,-8.0204,-8.1012,-8.1562,-8.1966,-8.2076,-8.2186,-8.2186,-8.2186,-8.2186,-8.2186,-8.2186,-8.2186,-8.2186,-8.1782,-8.0947,-7.9497,-7.7467,-7.6404,-7.5771,-7.5676,-7.5676,-7.5676,-7.5676,-7.5676,-7.5676,-7.5676,-7.5676,-7.5676,-7.5676,-7.5676,-7.5771,-7.5973,-7.6611,-7.7907,-7.9023,-8.0976,-7.9832,-7.991,-8.0828,-8.1966,-8.1489,-8.1562,-8.2076,-8.2186,-8.2039,-8.2076,-8.1452,-8.1195,-8.0865,-7.9727,-7.947,-7.9984,-8.0534,-8.0975,-8.1379,-8.1893,-8.215,-8.215,-8.1966,-8.1269,-7.9874,-7.9176,-7.7246,-7.5043,-7.4193,-7.3247,-7.16,-7.1312,-7.1312,-7.1312,-7.1312,-7.1312,-7.1312,-7.1312,-7.1312,-7.1312,-7.1312,-7.1312,-7.1312,-7.1312,-7.1278,-7.121,-7.13,-7.1752,-7.2756,-7.3768,-7.5227,-7.653,-7.7273,-7.7273,-7.7237,-7.709,-7.709,-7.709,-7.72,-7.7237,-7.731,-7.731,-7.731,-7.731,-7.731,-7.731,-7.7384,-7.7457,-7.7855,-7.8442,-7.8369,-7.8479,-7.8809,-7.8112,-7.8332,-7.9066,-7.9066,-7.9323,-7.9947,-8.0755,-8.1525,-8.1856,-8.215,-8.2186,-8.2186,-8.2186,-8.2186,-8.2186,-8.2186,-8.2186,-8.1919,-8.1815,-8.0659,-7.9691,-7.9227,-7.7248,-7.6358,-7.5676,-7.5676,-7.5676,-7.5676,-7.5676,-7.5676,-7.5676,-7.5676,-7.5676,-7.5676,-7.5676,-7.5709,-7.6067,-7.6462,-7.7336,-7.837,-7.938,-8.0976,-7.9837,-8.0534,-8.1342,-8.2076,-8.2039,-8.2039,-8.215,-8.2186,-8.2186,-8.215,-8.2039,-8.1929,-8.1709,-8.1048,-8.0718,-8.0718,-8.1048,-8.1415,-8.1819,-8.215,-8.2186,-8.2186,-8.215,-8.1305,-8.0167,-7.9438,-7.7679,-7.5076,-7.4193,-7.3276,-7.1688,-7.1312,-7.1312,-7.1312,-7.1312,-7.1312,-7.1312,-7.1312,-7.1312,-7.1312,-7.1312,-7.1244,-7.121,-7.1176,-7.121,-7.1244,-7.1323,-7.1776,-7.2756,-7.3733,-7.4795,-7.5851,-7.6683,-7.7169,-7.72,-7.7163,-7.7127,-7.7163,-7.7273,-7.7273,-7.731,-7.731,-7.731,-7.731,-7.7347,-7.7494,-7.7671,-7.8038,-7.8442,-7.8589,-7.8699,-7.8589,-7.8295,-7.8222,-7.8479,-7.8883,-7.936,-7.991,-8.0718,-8.1452,-8.1929,-8.2076,-8.2186,-8.2186,-8.2186,-8.2186,-8.2186,-8.2186,-8.2186,-8.2186,-8.1782,-8.137,-7.9729,-7.8084,-7.7872,-7.6982,-7.6219,-7.5676,-7.5676,-7.5676,-7.5676,-7.5676,-7.5676,-7.5676,-7.5676,-7.5676,-7.5676,-7.5676,-7.5676,-7.6312,-7.7026,-7.7949,-7.8862,-7.9918,-8.1985,-8.053,-8.1305,-8.1819,-8.215,-8.2186,-8.2186,-8.2186,-8.2186,-8.2186,-8.2186,-8.2223,-8.2443,-8.2406,-8.1489,-8.1012,-8.1085,-8.1489,-8.1819,-8.215,-8.2186,-8.2186,-8.2186,-8.2186,-8.1489,-8.0571,-7.9883,-7.8148,-7.5134,-7.4487,-7.3375,-7.2185,-7.1548,-7.1312,-7.1312,-7.1312,-7.1312,-7.1312,-7.1312,-7.1312,-7.1312,-7.1312,-7.1176,-7.0838,-7.077,-7.0737,-7.0737,-7.0737,-7.1128,-7.1979,-7.3068,-7.3818,-7.4724,-7.5782,-7.6717,-7.6717,-7.6717,-7.6717,-7.6827,-7.698,-7.7273,-7.731,-7.7273,-7.731,-7.742,-7.7708,-7.8038,-7.8442,-7.8332,-7.8772,-7.9176,-7.8883,-7.8332,-7.8222,-7.8369,-7.8736,-7.925,-7.9947,-8.0681,-8.1379,-8.1819,-8.2076,-8.2113,-8.2186,-8.2186,-8.2186,-8.2186,-8.2186,-8.2186,-8.2186,-8.2186,-8.1508,-8.0875,-7.9341,-7.7693,-7.716,-7.6837,-7.6114,-7.5676,-7.5676,-7.5676,-7.5676,-7.5676,-7.5676,-7.5676,-7.5913,-7.5676,-7.5676,-7.5676,-7.5818,-7.6645,-7.7433,-7.837,-7.9302,-8.044,-8.2669,-8.1085,-8.1856,-8.2186,-8.2186,-8.2186,-8.2186,-8.2186,-8.2186,-8.2186,-8.2186,-8.2223,-8.2627,-8.292,-8.2223,-8.1452,-8.1342,-8.1966,-8.215,-8.2186,-8.2186,-8.2186,-8.2186,-8.2076,-8.1709,-8.0901,-8.0131,-7.8259,-7.5713,-7.4626,-7.3508,-7.2273,-7.1481,-7.1312,-7.1312,-7.1312,-7.1312,-7.1312,-7.1312,-7.1345,-7.1515,-7.1515,-7.1278,-7.0669,-7.05,-7.0432,-7.0297,-7.0297,-7.0585,-7.1353,-7.234,-7.3288,-7.369,-7.5099,-7.6063,-7.613,-7.613,-7.6019,-7.6019,-7.6313,-7.654,-7.654,-7.69,-7.698,-7.72,-7.7635,-7.8479,-7.9213,-7.9066,-7.8772,-7.9066,-7.8405,-7.8112,-7.8332,-7.8589,-7.8956,-7.9837,-8.0571,-8.1158,-8.1709,-8.2076,-8.2186,-8.2186,-8.2186,-8.2186,-8.2186,-8.2186,-8.2186,-8.2186,-8.2186,-8.1985,-8.1195,-8.0293,-7.8983,-7.7693,-7.6747,-7.6416,-7.5913,-7.5676,-7.5676,-7.5676,-7.5676,-7.5676,-7.5771,-7.6253,-7.6392,-7.602,-7.5818,-7.5926,-7.6312,-7.7026,-7.7992,-7.9143,-8.0144,-8.1195,-8.1771,-8.1085,-8.1856,-8.2186,-8.2186,-8.2186,-8.2186,-8.2186,-8.2186,-8.2186,-8.2186,-8.226,-8.27,-8.3141,-8.3214,-8.2663,-8.226,-8.2076,-8.2186,-8.2186,-8.2186,-8.2186,-8.2186,-8.2186,-8.1819,-8.1122,-8.0277,-7.8191,-7.6111,-7.4912,-7.3386,-7.1995,-7.1718,-7.1379,-7.1616,-7.165,-7.1312,-7.1345,-7.1379,-7.165,-7.209,-7.2191,-7.209,-7.1785,-7.1312,-7.0737,-7.0263,-7.0206,-7.0488,-7.0959,-7.2318,-7.351,-7.4392,-7.5425,-7.6002,-7.613,-7.6056,-7.5799,-7.5395,-7.5616,-7.5769,-7.5953,-7.613,-7.624,-7.6827,-7.7341,-7.8112,-7.8626,-7.8626,-7.8736,-7.8956,-7.8589,-7.8516,-7.8662,-7.8883,-7.958,-8.0461,-8.1012,-8.1599,-8.1856,-8.215,-8.2186,-8.2186,-8.2186,-8.2186,-8.2186,-8.2186,-8.2186,-8.2186,-8.2186,-8.1368,-8.0477,-7.9844,-7.8618,-7.7292,-7.6416,-7.6126,-7.5757,-7.5709,-7.5676,-7.5676,-7.5676,-7.5818,-7.5973,-7.6542,-7.6916,-7.669,-7.6508,-7.645,-7.7016,-7.8034,-7.9103,-8.0218,-8.1124,-8.1852,-8.1544,-8.1709,-8.2076,-8.2186,-8.2186,-8.2186,-8.2186,-8.2186,-8.2186,-8.2186,-8.2296,-8.27,-8.3104,-8.3398,-8.3434,-8.2957,-8.2333,-8.2186,-8.2186,-8.2186,-8.2186,-8.2186,-8.2186,-8.2186,-8.1929,-8.1562,-8.0703,-7.9313,-7.7153,-7.5462,-7.4054,-7.279,-7.2529,-7.2597,-7.2394,-7.2496,-7.2563,-7.2597,-7.2563,-7.2496,-7.2428,-7.2326,-7.1988,-7.1244,-7.0906,-7.0567,-7.0297,-7.0206,-7.0797,-7.1613,-7.282,-7.3582,-7.4564,-7.5457,-7.5946,-7.5469,-7.5873,-7.5909,-7.5726,-7.5983,-7.5989,-7.6209,-7.657,-7.7047,-7.7414,-7.7781,-7.8295,-7.9213,-7.8846,-7.8809,-7.8956,-7.8846,-7.8956,-7.914,-7.9507,-8.0094,-8.0901,-8.1415,-8.1893,-8.2076,-8.2186,-8.2186,-8.2186,-8.2186,-8.2186,-8.2186,-8.2186,-8.2186,-8.2186,-8.2186,-8.1018,-7.9458,-7.8943,-7.8328,-7.6972,-7.5832,-7.5926,-7.5676,-7.5676,-7.5676,-7.5676,-7.5723,-7.5913,-7.6358,-7.6927,-7.7194,-7.7292,-7.7555,-7.7728,-7.8411,-7.9143,-8.0137,-8.1057,-8.1514,-8.2165,-8.1452,-8.2186,-8.2186,-8.2186,-8.2186,-8.2186,-8.2186,-8.2186,-8.2186,-8.2296,-8.2774,-8.3508,-8.3838,-8.3544,-8.3581,-8.3361,-8.2553,-8.2296,-8.2186,-8.2186,-8.2186,-8.2186,-8.2186,-8.2186,-8.2186,-8.215,-8.1269,-7.9677,-7.7972,-7.6517,-7.524,-7.3615,-7.324,-7.3341,-7.3409,-7.3308,-7.3206,-7.2935,-7.3206,-7.3003,-7.2563,-7.2394,-7.1785,-7.1109,-7.0567,-7.0364,-7.0195,-7.0195,-7.1002,-7.2161,-7.29,-7.369,-7.4968,-7.5938,-7.6283,-7.6019,-7.6313,-7.6497,-7.635,-7.6423,-7.6686,-7.676,-7.7017,-7.7121,-7.7928,-7.8295,-7.8405,-7.8846,-7.8516,-7.8699,-7.914,-7.8883,-7.9286,-7.9837,-8.0498,-8.0938,-8.1305,-8.1746,-8.2003,-8.2113,-8.2186,-8.2186,-8.2186,-8.2186,-8.2186,-8.2186,-8.2186,-8.2186,-8.2154,-8.2121,-8.084,-7.9222,-7.8411,-7.7822,-7.6599,-7.5676,-7.5676,-7.5676,-7.5676,-7.5676,-7.5676,-7.5865,-7.6067,-7.6645,-7.7467,-7.8245,-7.8781,-7.8943,-7.9174,-7.9893,-8.0531,-8.1127,-8.1777,-8.2257,-8.2488,-8.1489,-8.2186,-8.2186,-8.2186,-8.2186,-8.2186,-8.2186,-8.2186,-8.2223,-8.2737,-8.3618,-8.4682,-8.4572,-8.3948,-8.4095,-8.3948,-8.3251,-8.2553,-8.2296,-8.2223,-8.2186,-8.2186,-8.2186,-8.2186,-8.2186,-8.2076,-8.1493,-8.0002,-7.8322,-7.7819,-7.5909,-7.3912,-7.3988,-7.3658,-7.3612,-7.3747,-7.351,-7.3308,-7.3477,-7.3308,-7.2834,-7.2597,-7.2394,-7.209,-7.1515,-7.0939,-7.0263,-7.0395,-7.106,-7.241,-7.3216,-7.4295,-7.5753,-7.66,-7.6827,-7.6833,-7.6833,-7.698,-7.6943,-7.624,-7.5365,-7.5395,-7.5946,-7.6827,-7.7494,-7.7457,-7.7494,-7.7714,-7.7714,-7.8112,-7.8516,-7.8772,-7.947,-8.0498,-8.1195,-8.1415,-8.1672,-8.1893,-8.215,-8.2186,-8.2186,-8.2186,-8.2186,-8.2186,-8.2186,-8.2186,-8.2186,-8.2186,-8.1985,-8.1748,-8.055,-7.9222,-7.8203,-7.7248,-7.6126,-7.5676,-7.5676,-7.5676,-7.5676,-7.5676,-7.5676,-7.5926,-7.6416,-7.7449,-7.8392,-7.9333,-8.0213,-8.0573,-8.0972,-8.1376,-8.1888,-8.2466,-8.2857,-8.3307,-8.3328,-8.1893,-8.2186,-8.2186,-8.2186,-8.2186,-8.2186,-8.2186,-8.2296,-8.2737,-8.3691,-8.4829,-8.5013,-8.5013,-8.4866,-8.4499,-8.4168,-8.3471,-8.3141,-8.2663,-8.2296,-8.2186,-8.2186,-8.2186,-8.226,-8.2186,-8.2186,-8.1791,-8.1105,-7.9714,-7.8946,-7.7635,-7.6189,-7.5102,-7.4924,-7.4796,-7.439,-7.4187,-7.4289,-7.4187,-7.395,-7.3883,-7.368,-7.3341,-7.236,-7.2259,-7.1616,-7.1096,-7.1516,-7.2377,-7.3302,-7.4189,-7.5414,-7.647,-7.7096,-7.7273,-7.731,-7.731,-7.7384,-7.7347,-7.6723,-7.6393,-7.6393,-7.6717,-7.6943,-7.7273,-7.7273,-7.731,-7.731,-7.7347,-7.7928,-7.9103,-7.9433,-7.9947,-8.1158,-8.1782,-8.1893,-8.1893,-8.1966,-8.2003,-8.1929,-8.2076,-8.2186,-8.2186,-8.2186,-8.2186,-8.2186,-8.2186,-8.2154,-8.1952,-8.1439,-8.0256,-7.9183,-7.8119,-7.7105,-7.5973,-7.5771,-7.5676,-7.5676,-7.5676,-7.5818,-7.5926,-7.6565,-7.716,-7.8266,-7.9573,-8.0719,-8.1636,-8.2251,-8.2648,-8.2864,-8.3259,-8.3758,-8.4107,-8.4425,-8.4168,-8.2186,-8.2186,-8.2186,-8.2186,-8.2186,-8.2186,-8.2333,-8.2627,-8.3141,-8.4132,-8.5416,-8.527,-8.5416,-8.5563,-8.527,-8.4572,-8.3911,-8.3471,-8.3067,-8.27,-8.237,-8.2517,-8.27,-8.2774,-8.281,-8.281,-8.2784,-8.2274,-8.0632,-8.0012,-7.8559,-7.725,-7.6501,-7.6008,-7.5506,-7.527,-7.5134,-7.5134,-7.4965,-7.4424,-7.4289,-7.4119,-7.3916,-7.2766,-7.2529,-7.2157,-7.1896,-7.2253,-7.3067,-7.4093,-7.512,-7.6194,-7.6888,-7.731,-7.731,-7.7384,-7.753,-7.764,-7.7671,-7.7384,-7.731,-7.709,-7.7163,-7.7237,-7.731,-7.731,-7.731,-7.7347,-7.753,-7.8259,-7.969,-7.9984,-8.0571,-8.1709,-8.1966,-8.2039,-8.1709,-8.1636,-8.1672,-8.1672,-8.1782,-8.1819,-8.2186,-8.2186,-8.2186,-8.2186,-8.2186,-8.2121,-8.1952,-8.1264,-8.0107,-7.9063,-7.8034,-7.6972,-7.5973,-7.5818,-7.5676,-7.5676,-7.5771,-7.6067,-7.6324,-7.7105,-7.8322,-7.9755,-8.1044,-8.2287,-8.3078,-8.3727,-8.3973,-8.4214,-8.4651,-8.5168,-8.5388,-8.56,-8.5013,-8.2186,-8.2186,-8.2186,-8.2186,-8.226,-8.2223,-8.2663,-8.3361,-8.3581,-8.4132,-8.5123,-8.6151,-8.6407,-8.6004,-8.582,-8.5306,-8.4609,-8.3948,-8.3508,-8.3324,-8.2957,-8.3324,-8.3654,-8.3801,-8.3618,-8.4352,-8.3934,-8.2831,-8.1328,-8.0736,-7.9285,-7.7822,-7.6945,-7.6352,-7.5743,-7.5642,-7.5303,-7.4762,-7.4728,-7.4289,-7.4086,-7.4018,-7.3849,-7.3443,-7.3037,-7.2732,-7.2598,-7.323,-7.3947,-7.452,-7.587,-7.6829,-7.7401,-7.7604,-7.764,-7.7635,-7.8259,-7.8516,-7.8516,-7.7787,-7.7567,-7.753,-7.7567,-7.7457,-7.7347,-7.731,-7.742,-7.7567,-7.8038,-7.8809,-7.9727,-8.0498,-8.1269,-8.1856,-8.2076,-8.1966,-8.1599,-8.1305,-8.1379,-8.1415,-8.1269,-8.1305,-8.1856,-8.2186,-8.2186,-8.2186,-8.2186,-8.2051,-8.1782,-8.1124,-7.9994,-7.8705,-7.7693,-7.6882,-7.602,-7.5818,-7.5676,-7.5709,-7.596,-7.6427,-7.7144,-7.8006,-7.9428,-8.1114,-8.2432,-8.3514,-8.4376,-8.5162,-8.5306,-8.5453,-8.6114,-8.6557,-8.674,-8.6518,-8.571,-8.2186,-8.2186,-8.2186,-8.2517,-8.2957,-8.2994,-8.3471,-8.4205,-8.4756,-8.5416,-8.6151,-8.6885,-8.6921,-8.6664,-8.6481,-8.6114,-8.538,-8.527,-8.4866,-8.4168,-8.3801,-8.4095,-8.4392,-8.4431,-8.4321,-8.4296,-8.3949,-8.3337,-8.2368,-8.1295,-8.0035,-7.8671,-7.7318,-7.6502,-7.5743,-7.5371,-7.4965,-7.5168,-7.4965,-7.4695,-7.4897,-7.4864,-7.4661,-7.4255,-7.3916,-7.3591,-7.3379,-7.4294,-7.5051,-7.5461,-7.6835,-7.8098,-7.8338,-7.8442,-7.8846,-7.8883,-7.9323,-7.936,-7.936,-7.9029,-7.8699,-7.8405,-7.8075,-7.7855,-7.7488,-7.731,-7.7567,-7.8038,-7.8442,-7.9323,-8.0388,-8.0718,-8.1342,-8.1929,-8.2076,-8.1746,-8.1415,-8.1195,-8.1122,-8.1122,-8.1048,-8.1452,-8.1929,-8.2304,-8.2378,-8.2172,-8.2138,-8.1581,-8.1231,-8.0804,-7.9918,-7.8418,-7.7292,-7.6599,-7.602,-7.5818,-7.6014,-7.6284,-7.6709,-7.7247,-7.8024,-7.8974,-8.0313,-8.1924,-8.3337,-8.4707,-8.5353,-8.593,-8.6371,-8.6738,-8.6921,-8.6995,-8.6921,-8.6518,-8.5857,-8.2186,-8.2186,-8.2186,-8.2847,-8.3691,-8.3544,-8.3985,-8.5013,-8.5857,-8.6518,-8.6921,-8.6995,-8.6995,-8.6995,-8.6958,-8.6554,-8.5857,-8.5747,-8.5673,-8.4976,-8.4646,-8.5013,-8.5165,-8.4814,-8.4607,-8.4355,-8.3726,-8.2986,-8.2407,-8.1094,-7.9868,-7.8734,-7.7632,-7.6584,-7.5811,-7.5371,-7.527,-7.5473,-7.527,-7.5236,-7.5473,-7.554,-7.5405,-7.5033,-7.4708,-7.4475,-7.4827,-7.5624,-7.6592,-7.7017,-7.8155,-7.9548,-7.936,-7.9433,-7.9832,-7.9832,-8.0094,-8.0277,-8.0571,-8.0645,-8.0241,-7.958,-7.9029,-7.8516,-7.8002,-7.7745,-7.8148,-7.8552,-7.8919,-7.9764,-8.0718,-8.1012,-8.1562,-8.2186,-8.1856,-8.1525,-8.0865,-8.0608,-8.0571,-8.0645,-8.1085,-8.1525,-8.2039,-8.2345,-8.2641,-8.233,-8.2051,-8.1343,-8.0585,-7.9954,-7.9341,-7.8034,-7.6892,-7.6266,-7.5913,-7.5771,-7.6115,-7.6792,-7.7284,-7.7814,-7.9108,-8.0065,-8.1403,-8.2686,-8.413,-8.5355,-8.6045,-8.6591,-8.6775,-8.6885,-8.6958,-8.6995,-8.6995,-8.6628,-8.6151,-8.2186,-8.2186,-8.2186,-8.3104,-8.4315,-8.3985,-8.4535,-8.5894,-8.6628,-8.6958,-8.7031,-8.7031,-8.7031,-8.7031,-8.7031,-8.6628,-8.6114,-8.5967,-8.5894,-8.571,-8.5343,-8.5859,-8.5696,-8.5118,-8.4711,-8.4532,-8.3916,-8.2662,-8.1967,-8.1249,-8.0049,-7.8618,-7.7614,-7.6724,-7.6149,-7.5709,-7.5642,-7.5608,-7.5608,-7.554,-7.5676,-7.5676,-7.5608,-7.5371,-7.5114,-7.5333,-7.5828,-7.6672,-7.739,-7.8171,-7.9351,-7.9746,-7.9874,-7.9905,-7.9905,-8.0131,-8.0755,-8.1305,-8.1746,-8.1782,-8.1599,-8.0755,-7.9653,-7.9396,-7.9066,-7.8479,-7.8772,-7.936,-7.9837,-8.0388,-8.0975,-8.1489,-8.2039,-8.1929,-8.1636,-8.1012,-8.0204,-7.9947,-7.9947,-8.0241,-8.0901,-8.1452,-8.2039,-8.2451,-8.2288,-8.1922,-8.1455,-8.0861,-7.9993,-7.8647,-7.8027,-7.7424,-7.6416,-7.5926,-7.5676,-7.5676,-7.6747,-7.757,-7.7762,-7.8314,-7.9686,-8.135,-8.2685,-8.3983,-8.5099,-8.6004,-8.6518,-8.6811,-8.6958,-8.7031,-8.7031,-8.7031,-8.6995,-8.6995,-8.6664,-8.2186,-8.2186,-8.2186,-8.3141,-8.4646,-8.5563,-8.6261,-8.6701,-8.6958,-8.7031,-8.7031,-8.7031,-8.7031,-8.7031,-8.7031,-8.6848,-8.6738,-8.6664,-8.6664,-8.641,-8.6084,-8.599,-8.5626,-8.5064,-8.4593,-8.3816,-8.2945,-8.2059,-8.1666,-8.1201,-8.0194,-7.8871,-7.7908,-7.7198,-7.6487,-7.598,-7.5811,-7.5676,-7.5676,-7.5676,-7.5676,-7.5676,-7.5676,-7.5574,-7.5473,-7.5914,-7.6834,-7.7785,-7.8464,-7.9179,-8.0695,-8.1236,-8.0645,-8.1158,-8.1525,-8.1525,-8.1782,-8.1966,-8.215,-8.2186,-8.2039,-8.1709,-8.0791,-8.0131,-7.98,-7.9507,-7.9507,-8.0167,-8.0534,-8.0901,-8.1379,-8.1893,-8.2186,-8.2003,-8.1636,-8.1048,-8.0277,-7.9837,-7.9874,-8.0241,-8.0901,-8.1415,-8.2003,-8.1929,-8.1742,-8.1346,-8.0921,-8.0399,-7.9585,-7.8293,-7.7292,-7.6782,-7.639,-7.596,-7.5743,-7.5676,-7.7153,-7.8271,-7.8485,-7.9364,-8.1552,-8.3153,-8.4203,-8.5097,-8.5933,-8.6444,-8.6848,-8.7031,-8.7031,-8.7031,-8.7031,-8.7031,-8.7031,-8.7031,-8.7031,-8.2186,-8.2186,-8.2186,-8.3141,-8.4719,-8.6297,-8.7031,-8.7031,-8.7031,-8.7031,-8.7031,-8.7031,-8.7031,-8.7031,-8.7031,-8.6995,-8.6995,-8.6921,-8.6921,-8.6852,-8.6571,-8.5918,-8.5355,-8.434,-8.3253,-8.2391,-8.1436,-8.0453,-8.0392,-7.9834,-7.8889,-7.8179,-7.7874,-7.7367,-7.6623,-7.6217,-7.6048,-7.5811,-7.5676,-7.5676,-7.5676,-7.5676,-7.5676,-7.5676,-7.5676,-7.6508,-7.7779,-7.8781,-7.9367,-8.0259,-8.1908,-8.1966,-8.1489,-8.1929,-8.215,-8.2076,-8.2113,-8.2113,-8.2186,-8.2186,-8.2186,-8.2076,-8.1746,-8.1342,-8.0645,-8.0241,-8.0645,-8.1122,-8.1122,-8.1232,-8.1746,-8.2186,-8.2186,-8.215,-8.1709,-8.1269,-8.0645,-8.0021,-8.0131,-8.0424,-8.0865,-8.1379,-8.1599,-8.1415,-8.1211,-8.0864,-8.0592,-8.0294,-7.9545,-7.8407,-7.7486,-7.6802,-7.6524,-7.6183,-7.598,-7.592,-7.7088,-7.8394,-7.9239,-8.0527,-8.3142,-8.4573,-8.5213,-8.5899,-8.6557,-8.6885,-8.7031,-8.7031,-8.7031,-8.7031,-8.7031,-8.7031,-8.7031,-8.7031,-8.7031,-8.2186,-8.2223,-8.2333,-8.3324,-8.4719,-8.6334,-8.7031,-8.7031,-8.7031,-8.7031,-8.7031,-8.7031,-8.7031,-8.7031,-8.7031,-8.7031,-8.7031,-8.7031,-8.7031,-8.6925,-8.5954,-8.5317,-8.4416,-8.3006,-8.1858,-8.0684,-7.9782,-7.9148,-7.8394,-7.8179,-7.801,-7.6995,-7.7502,-7.713,-7.6115,-7.6284,-7.6115,-7.5777,-7.5676,-7.5676,-7.5676,-7.5676,-7.5676,-7.5676,-7.5973,-7.6599,-7.8287,-7.9341,-7.9994,-8.1368,-8.215,-8.215,-8.215,-8.215,-8.2186,-8.2186,-8.2186,-8.2186,-8.2186,-8.2186,-8.2186,-8.2186,-8.2186,-8.2003,-8.1452,-8.0975,-8.1305,-8.1599,-8.1636,-8.1636,-8.2003,-8.2186,-8.2186,-8.2113,-8.1856,-8.1379,-8.0865,-8.0388,-8.0277,-8.0534,-8.0791,-8.1158,-8.0764,-8.0552,-8.0185,-8.0107,-7.9754,-7.9554,-7.9693,-7.874,-7.8002,-7.7179,-7.6724,-7.6487,-7.6183,-7.6252,-7.7022,-7.8133,-7.9466,-8.1441,-8.3809,-8.5114,-8.6116,-8.6554,-8.6885,-8.6921,-8.7031,-8.7031,-8.7031,-8.7031,-8.7031,-8.7031,-8.7031,-8.7031,-8.7031,-8.2186,-8.2296,-8.3508,-8.4278,-8.4792,-8.6334,-8.7031,-8.7031,-8.7031,-8.7031,-8.7031,-8.7031,-8.7031,-8.7031,-8.7031,-8.7031,-8.7031,-8.7031,-8.7031,-8.6498,-8.566,-8.4446,-8.3709,-8.1907,-8.0522,-7.9527,-7.8684,-7.8044,-7.7807,-7.7739,-7.757,-7.6961,-7.7198,-7.669,-7.5811,-7.6115,-7.6014,-7.5709,-7.5676,-7.5676,-7.5676,-7.5676,-7.5676,-7.5676,-7.5913,-7.6882,-7.8245,-7.9063,-8.0329,-8.1748,-8.2084,-8.2186,-8.2186,-8.2186,-8.2186,-8.2186,-8.2186,-8.2186,-8.2186,-8.2186,-8.2186,-8.2186,-8.2186,-8.2186,-8.2039,-8.1746,-8.1709,-8.1966,-8.2076,-8.2113,-8.2113,-8.215,-8.2186,-8.2076,-8.1966,-8.1525,-8.1048,-8.0755,-8.0498,-8.0498,-8.0681,-8.0502,-8.0039,-7.9728,-7.925,-7.8757,-7.8217,-7.83,-7.9645,-7.9497,-7.8887,-7.8111,-7.7198,-7.6826,-7.6521,-7.691,-7.78,-7.8894,-8.0317,-8.2337,-8.4534,-8.5617,-8.6591,-8.6775,-8.6995,-8.7031,-8.7031,-8.7031,-8.7031,-8.7031,-8.7031,-8.7031,-8.7031,-8.7031,-8.7031,-8.2186,-8.2406,-8.3948,-8.4609,-8.4903,-8.6334,-8.7031,-8.7031,-8.7031,-8.7031,-8.7031,-8.7031,-8.7031,-8.7031,-8.7031,-8.7031,-8.7031,-8.7031,-8.6701,-8.6168,-8.4851,-8.3477,-8.2142,-8.0626,-7.9227,-7.8142,-7.7416,-7.6927,-7.7096,-7.6927,-7.6589,-7.6487,-7.6555,-7.6487,-7.5845,-7.5946,-7.598,-7.5709,-7.5709,-7.5676,-7.5676,-7.5676,-7.5676,-7.5676,-7.602,-7.7016,-7.8203,-7.9103,-8.0293,-8.1542,-8.2154,-8.2186,-8.2186,-8.2186,-8.2186,-8.2186,-8.2186,-8.2186,-8.2186,-8.2186,-8.2186,-8.2186,-8.2186,-8.2186,-8.2186,-8.1929,-8.1929,-8.215,-8.215,-8.215,-8.215,-8.2186,-8.2186,-8.2113,-8.1966,-8.1636,-8.1085,-8.0645,-8.0021,-7.9433,-7.9764,-8.0167,-7.9993,-8.0332,-7.9826,-7.923,-7.8399,-7.8223,-7.9371,-7.9972,-7.9464,-7.9058,-7.8145,-7.7536,-7.7382,-7.7943,-7.8816,-7.9971,-8.115,-8.34,-8.5515,-8.631,-8.7031,-8.7031,-8.7031,-8.7031,-8.7031,-8.7031,-8.7031,-8.7031,-8.7031,-8.7031,-8.7031,-8.7031,-8.7031,-8.2186,-8.2406,-8.3948,-8.4609,-8.4829,-8.6334,-8.7031,-8.7031,-8.7031,-8.7031,-8.7031,-8.7031,-8.7031,-8.7031,-8.7031,-8.7031,-8.6921,-8.6701,-8.6334,-8.5406,-8.3477,-8.2511,-8.1032,-7.9166,-7.7897,-7.6942,-7.6284,-7.6014,-7.598,-7.598,-7.6014,-7.5912,-7.6115,-7.6386,-7.6115,-7.6183,-7.6284,-7.5845,-7.5676,-7.5676,-7.5676,-7.5676,-7.5676,-7.5676,-7.5865,-7.6882,-7.8245,-7.9302,-8.0219,-8.1299,-8.2186,-8.2186,-8.2186,-8.2186,-8.2186,-8.2186,-8.2186,-8.2186,-8.2186,-8.2186,-8.2186,-8.2186,-8.2186,-8.2186,-8.2186,-8.2186,-8.2186,-8.2186,-8.2186,-8.2186,-8.2186,-8.2186,-8.2186,-8.2076,-8.1856,-8.1599,-8.1012,-8.0461,-7.9653,-7.8846,-7.925,-7.98,-8.0094,-8.0502,-8.0006,-7.9455,-7.9219,-7.9303,-7.9433,-7.9544,-7.9464,-7.9397,-7.9092,-7.8668,-7.8262,-7.8875,-7.9694,-8.0803,-8.2152,-8.4496,-8.6315,-8.6746,-8.7031,-8.7031,-8.7031,-8.7031,-8.7031,-8.7031,-8.7031,-8.7031,-8.7031,-8.7031,-8.7031,-8.7031,-8.7031,-8.2186,-8.2333,-8.3948,-8.4609,-8.4866,-8.6334,-8.7031,-8.7031,-8.7031,-8.7031,-8.7031,-8.7031,-8.7031,-8.6995,-8.7031,-8.6958,-8.6738,-8.6334,-8.604,-8.54,-8.2714,-8.1673,-8.0357,-7.8213,-7.6877,-7.6149,-7.5811,-7.5743,-7.5676,-7.5676,-7.5709,-7.5743,-7.5743,-7.5879,-7.5845,-7.5946,-7.598,-7.5777,-7.5743,-7.5709,-7.5743,-7.5743,-7.5676,-7.5676,-7.5723,-7.7115,-7.837,-7.8943,-8.0329,-8.1474,-8.2186,-8.2186,-8.2186,-8.2186,-8.2186,-8.2186,-8.2186,-8.2186,-8.2186,-8.2186,-8.2186,-8.2186,-8.2186,-8.2186,-8.2186,-8.2186,-8.2186,-8.2186,-8.2186,-8.2186,-8.2186,-8.2186,-8.215,-8.1856,-8.1599,-8.1158,-8.0681,-8.0241,-7.969,-7.947,-7.9617,-7.9874,-7.9952,-7.9798,-7.8957,-7.8412,-7.7953,-7.8118,-7.8856,-7.9121,-7.9397,-7.9498,-7.9634,-7.9498,-7.9074,-7.9671,-8.0491,-8.1668,-8.304,-8.5081,-8.6422,-8.6817,-8.7031,-8.7031,-8.7031,-8.7031,-8.7031,-8.7031,-8.7031,-8.7031,-8.7031,-8.7031,-8.7031,-8.7031,-8.7031]},{"header":{"parameterUnit":"m.s-1","parameterCategory":1,"la1":31.0,"la2":29.5877,"lo1":-88.7671,"lo2":-86.6584,"dx":0.0162,"dy":0.0185,"nx":115,"ny":88,"refTime":"2023-01-16T18:00:00:Z","depth":0,"parameterNumber":3,"parameterNumberName":"V-component_of_WINDS"},"data":[0.0,0.0,0.0,0.0,0.0,0.0,0.0,0.0,0.0,0.0,0.0,0.0,0.0,0.0,0.0,0.0,0.0,0.0,0.0,0.0,0.0,0.0,0.0,0.0,0.0,0.0,0.0,0.0,0.0,0.0,0.0,0.0,0.0,0.0,0.0,0.0,0.0,0.0,0.0,0.0,0.0,0.0,0.0,0.0,0.0,0.0,0.0,0.0,0.0,0.0,0.0,0.0,0.0,0.0,0.0,0.0,0.0,0.0,0.0,0.0,0.0,0.0,0.0,0.0,0.0,0.0,0.0,0.0,0.0,0.0,0.0,0.0,0.0,0.0,0.0,0.0,0.0,0.0,0.0,0.0,0.0,0.0,0.0,0.0,0.0,0.0,0.0,0.0,0.0,0.0,0.0,0.0,0.0,0.0,0.0,0.0,0.0,0.0,0.0,0.0,0.0,0.0,0.0,0.0,0.0,0.0,0.0,0.0,0.0,0.0,0.0,0.0,0.0,0.0,0.0,0.0,0.0,0.0,0.0,0.0,0.0,0.0,0.0,0.0,0.0,0.0,0.0,0.0,0.0,0.0,0.0,0.0,0.0,0.0,0.0,0.0,0.0,0.0,0.0,0.0,0.0,0.0,0.0,0.0,0.0,0.0,0.0,0.0,0.0,0.0,0.0,0.0,0.0,0.0,0.0,0.0,0.0,0.0,0.0,0.0,0.0,0.0,0.0,0.0,0.0,0.0,0.0,0.0,0.0,0.0,0.0,0.0,0.0,0.0,0.0,0.0,0.0,0.0,0.0,0.0,0.0,0.0,0.0,0.0,0.0,0.0,0.0,0.0,0.0,0.0,0.0,0.0,0.0,0.0,0.0,0.0,0.0,0.0,0.0,0.0,0.0,0.0,0.0,0.0,0.0,0.0,0.0,0.0,0.0,0.0,0.0,0.0,0.0,0.0,0.0,0.0,0.0,0.0,0.0,0.0,0.0,0.0,0.0,0.0,0.0,0.0,0.0,0.0,0.0,0.0,0.0,0.0,0.0,0.0,0.0,0.0,0.0,0.0,0.0,0.0,0.0,0.0,0.0,0.0,0.0,0.0,0.0,0.0,0.0,0.0,0.0,0.0,0.0,0.0,0.0,0.0,0.0,0.0,0.0,0.0,0.0,0.0,0.0,0.0,0.0,0.0,0.0,0.0,0.0,0.0,0.0,0.0,0.0,0.0,0.0,0.0,0.0,0.0,0.0,0.0,0.0,0.0,0.0,0.0,0.0,0.0,0.0,0.0,0.0,0.0,0.0,0.0,0.0,0.0,0.0,0.0,0.0,0.0,0.0,0.0,0.0,0.0,0.0,0.0,0.0,0.0,0.0,0.0,0.0,0.0,0.0,0.0,0.0,0.0,0.0,0.0,0.0,0.0,0.0,0.0,0.0,0.0,0.0,0.0,0.0,0.0,0.0,0.0,0.0,0.0,0.0,0.0,0.0,0.0,0.0,0.0,0.0,0.0,0.0,0.0,0.0,0.0,0.0,0.0,0.0,0.0,0.0,0.0,0.0,0.0,0.0,0.0,0.0,0.0,0.0,0.0,0.0,0.0,0.0,0.0,0.0,0.0,0.0,0.0,0.0,0.0,0.0,0.0,0.0,0.0,0.0,0.0,0.0,0.0,0.0,0.0,0.0,0.0,0.0,0.0,0.0,0.0,0.0,0.0,0.0,0.0,0.0,0.0,0.0,0.0,0.0,0.0,0.0,0.0,0.0,0.0,0.0,0.0,0.0,0.0,0.0,0.0,0.0,0.0,0.0,0.0,0.0,0.0,0.0,0.0,0.0,0.0,0.0,0.0,0.0,0.0,0.0,0.0,0.0,0.0,0.0,0.0,0.0,0.0,0.0,0.0,0.0,0.0,0.0,0.0,0.0,0.0,0.0,0.0,0.0,0.0,0.0,0.0,0.0,0.0,0.0,0.0,0.0,0.0,0.0,0.0,0.0,0.0,0.0,0.0,0.0,0.0,0.0,0.0,0.0,0.0,0.0,0.0,0.0,0.0,0.0,0.0,0.0,0.0,0.0,0.0,0.0,0.0,0.0,0.0,0.0,0.0,0.0,0.0,0.0,0.0,0.0,0.0,0.0,0.0,0.0,0.0,0.0,0.0,0.0,0.0,0.0,0.0,0.0,0.0,0.0,0.0,0.0,0.0,0.0,0.0,0.0,0.0,0.0,0.0,0.0,0.0,0.0,0.0,0.0,0.0,0.0,0.0,0.0,0.0,0.0,0.0,0.0,0.0,0.0,0.0,0.0,0.0,0.0,0.0,0.0,0.0,0.0,0.0,0.0,0.0,0.0,0.0,0.0,0.0,0.0,0.0,0.0,0.0,0.0,0.0,0.0,0.0,0.0,0.0,0.0,0.0,0.0,0.0,0.0,0.0,0.0,0.0,0.0,0.0,0.0,0.0,0.0,0.0,0.0,0.0,0.0,0.0,0.0,0.0,0.0,0.0,0.0,0.0,0.0,0.0,0.0,0.0,0.0,0.0,0.0,0.0,0.0,0.0,0.0,0.0,0.0,0.0,0.0,0.0,0.0,0.0,0.0,0.0,0.0,0.0,0.0,0.0,0.0,0.0,0.0,0.0,0.0,0.0,0.0,0.0,0.0,0.0,0.0,0.0,0.0,0.0,0.0,0.0,0.0,0.0,0.0,0.0,0.0,0.0,0.0,0.0,0.0,0.0,0.0,0.0,0.0,0.0,0.0,0.0,0.0,0.0,0.0,0.0,0.0,0.0,0.0,0.0,0.0,0.0,0.0,0.0,0.0,0.0,0.0,0.0,0.0,0.0,0.0,0.0,0.0,0.0,0.0,0.0,0.0,0.0,0.0,0.0,0.0,0.0,0.0,0.0,0.0,0.0,0.0,0.0,0.0,0.0,0.0,0.0,0.0,0.0,0.0,0.0,0.0,0.0,0.0,0.0,0.0,0.0,0.0,0.0,0.0,0.0,0.0,0.0,0.0,0.0,0.0,0.0,0.0,0.0,0.0,0.0,0.0,0.0,0.0,0.0,0.0,0.0,0.0,0.0,0.0,0.0,0.0,0.0,0.0,0.0,0.0,0.0,0.0,0.0,0.0,0.0,0.0,0.0,0.0,0.0,0.0,0.0,0.0,0.0,0.0,0.0,0.0,0.0,0.0,0.0,0.0,0.0,0.0,0.0,0.0,0.0,0.0,0.0,0.0,0.0,0.0,0.0,0.0,0.0,0.0,0.0,0.0,0.0,0.0,0.0,0.0,0.0,0.0,0.0,0.0,0.0,0.0,0.0,0.0,0.0,0.0,0.0,0.0,0.0,0.0,0.0,0.0,0.0,0.0,0.0,0.0,0.0,0.0,0.0,0.0,0.0,0.0,0.0,0.0,0.0,0.0,0.0,0.0,0.0,0.0,0.0,0.0,0.0,0.0,0.0,0.0,0.0,0.0,0.0,0.0,0.0,0.0,0.0,0.0,0.0,0.0,0.0,0.0,0.0,0.0,0.0,0.0,0.0,0.0,0.0,0.0,0.0,0.0,0.0,0.0,0.0,0.0,0.0,0.0,0.0,0.0,0.0,0.0,0.0,0.0,0.0,0.0,0.0,0.0,0.0,0.0,0.0,0.0,0.0,0.0,0.0,0.0,0.0,0.0,0.0,0.0,0.0,0.0,0.0,0.0,0.0,0.0,0.0,0.0,0.0,0.0,0.0,0.0,0.0,0.0,0.0,0.0,0.0,0.0,0.0,0.0,0.0,0.0,0.0,0.0,0.0,0.0,0.0,0.0,0.0,0.0,0.0,0.0,0.0,0.0,0.0,0.0,0.0,0.0,0.0,0.0,0.0,0.0,0.0,0.0,0.0,0.0,0.0,0.0,0.0,0.0,0.0,0.0,0.0,0.0,0.0,0.0,0.0,0.0,0.0,0.0,0.0,0.0,0.0,0.0,0.0,0.0,0.0,0.0,0.0,0.0,0.0,0.0,0.0,0.0,0.0,0.0,0.0,0.0,0.0,0.0,0.0,0.0,0.0,0.0,0.0,0.0,0.0,0.0,0.0,0.0,0.0,0.0,0.0,0.0,0.0,0.0,0.0,0.0,0.0,0.0,0.0,0.0,0.0,0.0,0.0,0.0,0.0,0.0,0.0,0.0,0.0,0.0,0.0,0.0,0.0,0.0,0.0,0.0,0.0,0.0,0.0,0.0,0.0,0.0,0.0,0.0,0.0,0.0,0.0,0.0,0.0,0.0,0.0,0.0,0.0,0.0,0.0,-0.5637,0.0,0.0,0.0,0.0,0.0,0.0,0.0,0.0,0.0,0.0,0.0,0.0,0.0,0.0,0.0,0.0,0.0,0.0,0.0,0.0,0.0,0.0,0.0,0.0,0.0,0.0,0.0,0.0,0.0,0.0,0.0,0.0,0.0,0.0,0.0,0.0,0.0,0.0,0.0,0.0,0.0,0.0,0.0,0.0,0.0,0.0,0.0,0.0,0.0,0.0,0.0,0.0,0.0,0.0,0.0,0.0,0.0,0.0,0.0,0.0,0.0,0.0,0.0,0.0,0.0,0.0,0.0,0.0,0.0,0.0,0.0,0.0,0.0,0.0,0.0,0.0,0.0,0.0,0.0,0.0,0.0,0.0,0.0,0.0,0.0,0.0,0.0,0.0,0.0,0.0,0.0,0.0,0.0,0.0,0.0,0.0,0.0,0.0,0.0,0.0,0.0,0.0,0.0,0.0,0.0,0.0,0.0,0.0,0.0,0.0,-0.4823,-0.4092,-0.5396,-0.571,-0.4798,0.0,0.0,0.0,0.0,0.0,0.0,0.0,0.0,0.0,0.0,0.0,0.0,0.0,0.0,0.0,0.0,0.0,0.0,0.0,0.0,0.0,0.0,0.0,0.0,0.0,0.0,0.0,0.0,0.0,0.0,0.0,0.0,0.0,0.0,0.0,0.0,0.0,0.0,0.0,0.0,0.0,0.0,0.0,0.0,0.0,0.0,0.0,0.0,0.0,0.0,0.0,0.0,0.0,0.0,0.0,0.0,0.0,0.0,0.0,0.0,0.0,0.0,0.0,0.0,0.0,0.0,0.0,0.0,0.0,0.0,0.0,0.0,0.0,0.0,0.0,0.0,0.0,0.0,0.0,0.0,0.0,0.0,0.0,0.0,0.0,0.0,0.0,0.0,0.0,0.0,0.0,0.0,0.0,0.0,0.0,0.0,0.0,0.0,0.0,0.0,0.0,0.0,0.0,0.0,0.0,0.0,0.0,0.0,0.0,0.0,0.0,0.0,-0.4538,-0.5103,-0.4135,0.0,0.0,0.0,0.0,0.0,0.0,0.0,0.0,0.0,0.0,0.0,0.0,0.0,0.0,0.0,0.0,0.0,0.0,0.0,0.0,0.0,0.0,0.0,0.0,0.0,0.0,0.0,0.0,0.0,0.0,0.0,0.0,0.0,0.0,0.0,0.0,0.0,0.0,0.0,0.0,0.0,0.0,0.0,0.0,0.0,0.0,0.0,0.0,0.0,0.0,0.0,0.0,0.0,0.0,0.0,0.0,0.0,0.0,0.0,0.0,0.0,0.0,0.0,0.0,0.0,0.0,0.0,0.0,0.0,0.0,0.0,0.0,0.0,0.0,0.0,0.0,0.0,0.0,0.0,0.0,0.0,0.0,0.0,0.0,0.0,0.0,0.0,0.0,0.0,0.0,0.0,0.0,0.0,0.0,0.0,0.0,0.0,0.0,0.0,0.0,0.0,0.0,0.0,0.0,0.0,0.0,0.0,0.0,0.0,0.0,-0.3006,-0.2881,-0.3123,0.0,-0.4212,0.0,0.0,0.0,0.0,0.0,0.0,0.0,0.0,0.0,0.0,0.0,0.0,0.0,0.0,0.0,0.0,0.0,0.0,0.0,0.0,0.0,0.0,0.0,0.0,0.0,0.0,0.0,0.0,0.0,0.0,0.0,0.0,0.0,0.0,0.0,0.0,0.0,0.0,0.0,0.0,0.0,0.0,0.0,0.0,0.0,0.0,0.0,0.0,0.0,0.0,0.0,0.0,0.0,0.0,0.0,0.0,0.0,0.0,0.0,0.0,0.0,0.0,0.0,0.0,0.0,0.0,0.0,0.0,0.0,0.0,0.0,0.0,0.0,0.0,0.0,0.0,0.0,0.0,0.0,0.0,0.0,0.0,0.0,0.0,0.0,0.0,0.0,0.0,0.0,0.0,0.0,0.0,0.0,0.0,0.0,0.0,0.0,0.0,0.0,0.0,0.0,0.0,0.0,0.0,0.0,0.0,0.0,0.0,0.0,0.0,-0.2563,-0.1234,-0.2221,-0.3573,0.0,0.0,0.0,0.0,0.0,0.0,0.0,0.0,0.0,0.0,0.0,0.0,0.0,0.0,0.0,0.0,0.0,0.0,0.0,0.0,0.0,0.0,0.0,0.0,0.0,0.0,0.0,0.0,0.0,0.0,0.0,0.0,0.0,0.0,0.0,0.0,0.0,0.0,0.0,0.0,0.0,0.0,0.0,0.0,0.0,0.0,0.0,0.0,0.0,0.0,0.0,0.0,0.0,0.0,0.0,0.0,0.0,0.0,0.0,0.0,0.0,0.0,0.0,0.0,0.0,0.0,0.0,0.0,0.0,0.0,0.0,0.0,0.0,0.0,0.0,0.0,0.0,0.0,0.0,0.0,0.0,0.0,0.0,0.0,0.0,0.0,0.0,0.0,0.0,0.0,0.0,0.0,0.0,0.0,0.0,0.0,0.0,0.0,0.0,0.0,0.0,0.0,0.0,0.0,0.0,0.0,0.0,0.0,0.0,0.0,-0.1802,-0.1687,-0.0199,-0.1995,-0.3722,-0.5052,0.0,0.0,0.0,0.0,0.0,0.0,0.0,0.0,0.0,0.0,0.0,0.0,0.0,0.0,0.0,0.0,0.0,0.0,0.0,0.0,0.0,0.0,0.0,0.0,0.0,0.0,0.0,0.0,0.0,0.0,0.0,0.0,0.0,0.0,0.0,0.0,0.0,0.0,0.0,0.0,0.0,0.0,0.0,0.0,0.0,0.0,0.0,0.0,0.0,0.0,0.0,0.0,0.0,0.0,0.0,0.0,0.0,0.0,0.0,0.0,0.0,0.0,0.0,0.0,0.0,0.0,0.0,0.0,0.0,0.0,0.0,0.0,0.0,0.0,0.0,0.0,0.0,0.0,0.0,0.0,0.0,0.0,0.0,0.0,0.0,0.0,0.0,0.0,0.0,0.0,0.0,0.0,0.0,0.0,0.0,0.0,0.0,0.0,0.0,0.0,0.0,0.0,0.0,0.0,0.0,0.0,0.0,0.0,0.0,-0.0791,-0.0153,-0.0167,-0.2548,-0.3601,0.0,0.0,0.0,0.0,0.0,0.0,0.0,0.0,0.0,0.0,0.0,0.0,0.0,0.0,0.0,0.0,0.0,0.0,0.0,0.0,0.0,0.0,0.0,0.0,0.0,0.0,0.0,0.0,0.0,0.0,0.0,0.0,0.0,0.0,0.0,0.0,0.0,0.0,0.0,0.0,0.0,0.0,0.0,0.0,0.0,0.0,0.0,0.0,0.0,0.0,0.0,0.0,0.0,0.0,0.0,0.0,0.0,0.0,0.0,0.0,0.0,0.0,0.0,0.0,0.0,0.0,0.0,0.0,0.0,0.0,0.0,0.0,0.0,0.0,0.0,0.0,0.0,0.0,0.0,0.0,0.0,0.0,0.0,0.0,0.0,0.0,0.0,0.0,0.0,0.0,0.0,0.0,0.0,0.0,0.0,0.0,0.0,0.0,0.0,0.0,0.0,0.0,0.0,0.0,0.0,0.0,0.0,0.0,0.0,-0.1506,-0.1104,-0.1664,-0.3405,-0.3821,-0.3994,0.0,0.0,0.0,0.0,0.0,0.0,0.0,0.0,0.0,0.0,0.0,0.0,0.0,0.0,0.0,0.0,0.0,0.0,0.0,0.0,0.0,0.0,0.0,0.0,0.0,0.0,0.0,0.0,0.0,0.0,0.0,0.0,0.0,0.0,0.0,0.0,0.0,0.0,0.0,0.0,0.0,0.0,0.0,0.0,0.0,0.0,0.0,0.0,0.0,0.0,0.0,0.0,0.0,0.0,0.0,0.0,0.0,0.0,0.0,0.0,0.0,0.0,0.0,0.0,0.0,0.0,0.0,0.0,0.0,0.0,0.0,0.0,0.0,0.0,0.0,0.0,0.0,0.0,0.0,0.0,0.0,0.0,0.0,0.0,0.0,0.0,0.0,0.0,0.0,0.0,0.0,0.0,0.0,0.0,0.0,0.0,0.0,0.0,0.0,0.0,0.0,0.0,0.0,0.0,0.0,0.0,0.0,0.0,0.0,-0.0918,0.0,-0.2219,-0.3554,-0.3736,-0.3869,0.0,0.0,0.0,0.0,0.0,0.0,0.0,0.0,0.0,0.0,0.0,0.0,0.0,0.0,0.0,0.0,0.0,0.0,0.0,0.0,0.0,0.0,0.0,0.0,0.0,0.0,0.0,0.0,0.0,0.0,0.0,0.0,0.0,0.0,0.0,0.0,0.0,0.0,0.0,0.0,0.0,0.0,0.0,0.0,0.0,0.0,0.0,0.0,0.0,0.0,0.0,0.0,0.0,0.0,0.0,0.0,0.0,0.0,0.0,0.0,0.0,0.0,0.0,0.0,0.0,0.0,0.0,0.0,0.0,0.0,0.0,0.0,0.0,0.0,0.0,0.0,0.0,0.0,0.0,0.0,0.0,0.0,0.0,0.0,0.0,0.0,0.0,0.0,0.0,0.0,0.0,0.0,0.0,0.0,0.0,0.0,0.0,0.0,0.0,0.0,0.0,0.0,0.0,0.0,0.0,0.0,0.0,0.0,-0.1729,-0.0234,-0.1435,-0.1606,-0.0211,-0.2305,-0.3142,0.0,0.0,0.0,0.0,0.0,0.0,0.0,0.0,0.0,0.0,0.0,0.0,0.0,0.0,0.0,0.0,0.0,0.0,0.0,0.0,0.0,0.0,0.0,0.0,0.0,0.0,0.0,0.0,0.0,0.0,0.0,0.0,0.0,0.0,0.0,0.0,0.0,0.0,0.0,0.0,0.0,0.0,0.0,0.0,0.0,0.0,0.0,0.0,0.0,0.0,0.0,0.0,0.0,0.0,0.0,0.0,0.0,0.0,0.0,0.0,0.0,0.0,0.0,0.0,0.0,0.0,0.0,0.0,0.0,0.0,0.0,0.0,0.0,0.0,0.0,0.0,0.0,0.0,0.0,0.0,0.0,0.0,0.0,0.0,0.0,0.0,0.0,0.0,0.0,0.0,0.0,0.0,0.0,0.0,0.0,0.0,0.0,0.0,0.0,0.0,0.0,0.0,0.0,0.0,0.0,0.0,0.0,0.0,0.0,-0.3157,-0.4018,-0.3747,-0.2279,-0.3608,-0.3583,0.0,0.0,0.0,0.0,0.0,0.0,0.0,0.0,0.0,0.0,0.0,0.0,0.0,0.0,0.0,0.0,0.0,0.0,0.0,0.0,0.0,0.0,0.0,0.0,0.0,0.0,0.0,0.0,0.0,0.0,0.0,0.0,0.0,0.0,0.0,0.0,0.0,0.0,0.0,0.0,0.0,0.0,0.0,0.0,0.0,0.0,0.0,0.0,0.0,0.0,0.0,0.0,0.0,0.0,0.0,0.0,0.0,0.0,0.0,0.0,0.0,0.0,0.0,0.0,0.0,0.0,0.0,0.0,0.0,0.0,0.0,0.0,0.0,0.0,0.0,0.0,0.0,0.0,0.0,0.0,0.0,0.0,0.0,0.0,0.0,0.0,0.0,0.0,0.0,0.0,0.0,0.0,0.0,0.0,0.0,0.0,0.0,0.0,0.0,0.0,0.0,0.0,0.0,0.0,0.0,0.0,0.0,0.0,0.0,-0.5613,-0.5367,-0.4733,-0.3695,-0.4581,-0.4371,-0.2824,0.0,0.0,0.0,0.0,0.0,0.0,0.0,0.0,0.0,0.0,0.0,0.0,0.0,0.0,0.0,0.0,0.0,0.0,0.0,0.0,0.0,0.0,0.0,0.0,0.0,0.0,0.0,0.0,0.0,0.0,0.0,0.0,0.0,0.0,0.0,0.0,0.0,0.0,0.0,0.0,0.0,0.0,0.0,0.0,0.0,0.0,0.0,0.0,0.0,0.0,0.0,0.0,0.0,0.0,0.0,0.0,0.0,0.0,0.0,0.0,0.0,0.0,0.0,0.0,0.0,0.0,0.0,0.0,0.0,0.0,0.0,0.0,0.0,0.0,0.0,0.0,0.0,0.0,0.0,0.0,0.0,0.0,0.0,0.0,0.0,0.0,0.0,0.0,0.0,0.0,0.0,0.0,0.0,0.0,0.0,0.0,0.0,0.0,0.0,0.0,0.0,0.0,0.0,0.0,0.0,0.0,0.0,0.0,-0.7665,-0.5779,-0.4833,-0.4855,-0.5256,-0.5304,0.0,0.0,0.0,0.0,0.0,0.0,0.0,0.0,0.0,0.0,0.0,0.0,0.0,0.0,0.0,0.0,0.0,0.0,0.0,0.0,0.0,0.0,0.0,0.0,0.0,0.0,0.0,0.0,0.0,0.0,0.0,0.0,0.0,0.0,0.0,0.0,0.0,0.0,0.0,0.0,0.0,0.0,0.0,0.0,0.0,0.0,0.0,0.0,0.0,0.0,0.0,0.0,0.0,0.0,0.0,0.0,0.0,0.0,0.0,0.0,0.0,0.0,0.0,0.0,0.0,0.0,0.0,0.0,0.0,0.0,0.0,0.0,0.0,0.0,0.0,0.0,0.0,0.0,0.0,0.0,0.0,0.0,0.0,0.0,0.0,0.0,0.0,0.0,0.0,0.0,0.0,0.0,0.0,0.0,0.0,0.0,0.0,0.0,0.0,0.0,0.0,0.0,0.0,0.0,0.0,0.0,0.0,0.0,0.0,-0.8501,-0.8477,-0.7721,-0.6364,-0.6265,-0.5653,0.0,0.0,0.0,0.0,0.0,0.0,0.0,0.0,0.0,0.0,0.0,0.0,0.0,0.0,0.0,0.0,0.0,0.0,0.0,0.0,0.0,0.0,0.0,0.0,0.0,0.0,0.0,0.0,0.0,0.0,0.0,0.0,0.0,0.0,0.0,0.0,0.0,0.0,0.0,0.0,0.0,0.0,0.0,0.0,0.0,0.0,0.0,0.0,0.0,0.0,0.0,0.0,0.0,0.0,0.0,0.0,0.0,0.0,0.0,0.0,0.0,0.0,0.0,0.0,0.0,0.0,0.0,0.0,0.0,0.0,0.0,0.0,0.0,0.0,0.0,0.0,0.0,0.0,0.0,0.0,0.0,0.0,0.0,0.0,0.0,0.0,0.0,0.0,0.0,0.0,0.0,0.0,0.0,0.0,0.0,0.0,0.0,0.0,0.0,0.0,0.0,0.0,0.0,0.0,0.0,0.0,0.0,0.0,-0.8119,-0.9141,-0.9924,-0.9718,-0.8534,-0.7913,-0.6855,0.0,0.0,0.0,0.0,0.0,0.0,0.0,0.0,0.0,0.0,0.0,0.0,0.0,0.0,0.0,0.0,0.0,0.0,0.0,0.0,0.0,0.0,0.0,0.0,0.0,0.0,0.0,0.0,0.0,0.0,0.0,0.0,0.0,0.0,0.0,0.0,0.0,0.0,0.0,0.0,0.0,0.0,0.0,0.0,0.0,0.0,0.0,0.0,0.0,0.0,0.0,0.0,0.0,0.0,0.0,0.0,0.0,0.0,0.0,0.0,0.0,0.0,0.0,0.0,0.0,0.0,0.0,0.0,0.0,0.0,0.0,0.0,0.0,0.0,0.0,0.0,0.0,0.0,0.0,0.0,0.0,0.0,0.0,0.0,0.0,0.0,0.0,0.0,0.0,0.0,0.0,0.0,0.0,0.0,0.0,0.0,0.0,0.0,0.0,0.0,0.0,0.0,0.0,0.0,0.0,0.0,0.0,0.0,-0.8893,-0.9693,-1.0534,-1.0914,-1.0765,-0.9741,-0.8394,0.0,0.0,0.0,0.0,0.0,0.0,0.0,0.0,0.0,0.0,0.0,0.0,0.0,0.0,0.0,0.0,0.0,0.0,0.0,0.0,0.0,0.0,0.0,0.0,0.0,0.0,0.0,0.0,0.0,0.0,0.0,0.0,0.0,0.0,0.0,0.0,0.0,0.0,0.0,0.0,0.0,0.0,0.0,0.0,0.0,0.0,0.0,0.0,0.0,0.0,0.0,0.0,0.0,0.0,0.0,0.0,0.0,0.0,0.0,0.0,0.0,0.0,0.0,0.0,0.0,0.0,0.0,0.0,0.0,0.0,0.0,0.0,0.0,0.0,0.0,0.0,0.0,0.0,0.0,0.0,0.0,0.0,0.0,0.0,0.0,0.0,0.0,0.0,0.0,0.0,0.0,0.0,0.0,0.0,0.0,0.0,0.0,0.0,0.0,0.0,0.0,0.0,0.0,0.0,0.0,0.0,0.0,0.0,-0.9198,-1.0276,-1.0839,-1.1158,-1.124,-1.0005,-0.8576,0.0,0.0,0.0,0.0,0.0,0.0,0.0,0.0,0.0,0.0,0.0,0.0,0.0,0.0,0.0,0.0,0.0,0.0,0.0,0.0,0.0,0.0,0.0,0.0,0.0,0.0,0.0,0.0,0.0,0.0,0.0,0.0,0.0,0.0,0.0,0.0,0.0,0.0,0.0,0.0,0.0,0.0,0.0,0.0,0.0,0.0,0.0,0.0,-0.9493,0.0,0.0,0.0,0.0,0.0,0.0,0.0,0.0,0.0,0.0,0.0,0.0,0.0,0.0,0.0,0.0,0.0,0.0,0.0,0.0,0.0,0.0,0.0,0.0,0.0,0.0,0.0,0.0,0.0,0.0,0.0,0.0,0.0,0.0,0.0,0.0,0.0,0.0,0.0,0.0,0.0,0.0,0.0,0.0,0.0,0.0,0.0,0.0,0.0,0.0,0.0,0.0,0.0,0.0,0.0,0.0,0.0,0.0,0.0,-0.9571,-1.067,-1.1145,-1.1382,-1.1362,-1.0561,-0.9127,0.0,0.0,0.0,0.0,0.0,0.0,0.0,0.0,0.0,0.0,0.0,0.0,0.0,0.0,0.0,0.0,0.0,0.0,0.0,0.0,0.0,0.0,0.0,0.0,0.0,0.0,0.0,0.0,0.0,0.0,0.0,0.0,0.0,0.0,0.0,0.0,0.0,0.0,0.0,0.0,0.0,0.0,0.0,0.0,0.0,0.0,0.0,0.0,0.0,0.0,0.0,0.0,0.0,0.0,0.0,0.0,0.0,0.0,0.0,0.0,0.0,0.0,0.0,0.0,0.0,0.0,0.0,0.0,0.0,0.0,0.0,0.0,0.0,0.0,0.0,0.0,0.0,0.0,0.0,0.0,0.0,0.0,0.0,0.0,0.0,0.0,0.0,0.0,0.0,0.0,0.0,0.0,0.0,0.0,0.0,0.0,0.0,0.0,0.0,0.0,0.0,0.0,0.0,0.0,0.0,0.0,0.0,-0.8825,-0.989,-1.0907,-1.1409,-1.1558,-1.143,-1.1118,-0.9748,-0.7226,0.0,0.0,0.0,0.0,0.0,0.0,0.0,0.0,0.0,0.0,0.0,0.0,0.0,0.0,0.0,0.0,0.0,0.0,0.0,0.0,0.0,0.0,0.0,0.0,0.0,0.0,0.0,0.0,0.0,0.0,0.0,0.0,0.0,0.0,0.0,0.0,0.0,0.0,-0.6724,-0.9191,0.0,0.0,0.0,0.0,0.0,0.0,0.0,0.0,-1.0922,0.0,0.0,0.0,0.0,0.0,0.0,0.0,0.0,0.0,0.0,0.0,0.0,0.0,0.0,0.0,0.0,0.0,0.0,0.0,0.0,0.0,0.0,0.0,0.0,0.0,0.0,0.0,0.0,0.0,0.0,0.0,0.0,0.0,0.0,0.0,0.0,0.0,0.0,0.0,0.0,0.0,0.0,0.0,0.0,0.0,0.0,0.0,0.0,0.0,0.0,0.0,0.0,0.0,0.0,0.0,0.0,-0.8635,-0.9028,-0.9876,-1.1274,-1.1511,-1.1606,-1.1572,-1.1103,-0.9774,-0.7477,0.0,0.0,0.0,0.0,0.0,0.0,0.0,0.0,0.0,0.0,0.0,0.0,0.0,0.0,0.0,0.0,0.0,0.0,0.0,0.0,0.0,0.0,0.0,0.0,0.0,0.0,0.0,0.0,0.0,0.0,0.0,0.0,0.0,0.0,0.0,0.0,0.0,0.0,0.0,-1.1132,-1.2457,0.0,0.0,0.0,0.0,0.0,0.0,0.0,0.0,-1.2057,0.0,0.0,0.0,0.0,0.0,0.0,0.0,0.0,0.0,0.0,0.0,0.0,0.0,0.0,0.0,0.0,0.0,0.0,0.0,0.0,0.0,0.0,0.0,0.0,0.0,0.0,0.0,0.0,0.0,0.0,0.0,0.0,0.0,0.0,0.0,0.0,0.0,0.0,0.0,0.0,0.0,0.0,0.0,0.0,0.0,0.0,0.0,0.0,0.0,0.0,0.0,0.0,0.0,0.0,0.0,-0.8648,-0.9456,-1.0385,-1.1463,-1.1579,-1.1619,-1.1541,-1.0404,-0.8722,0.0,0.0,0.0,0.0,0.0,0.0,0.0,0.0,0.0,0.0,0.0,0.0,0.0,0.0,0.0,0.0,0.0,0.0,0.0,0.0,0.0,0.0,0.0,0.0,0.0,0.0,0.0,0.0,0.0,0.0,0.0,0.0,0.0,0.0,0.0,0.0,0.0,0.0,0.0,0.0,-1.1994,-1.3445,-1.4781,0.0,0.0,0.0,0.0,0.0,0.0,-1.3327,-1.3588,0.0,0.0,0.0,0.0,0.0,0.0,0.0,0.0,0.0,0.0,0.0,0.0,0.0,0.0,0.0,0.0,0.0,0.0,0.0,0.0,0.0,0.0,0.0,0.0,0.0,0.0,0.0,0.0,0.0,0.0,0.0,0.0,0.0,0.0,0.0,0.0,0.0,0.0,0.0,0.0,0.0,0.0,0.0,0.0,0.0,0.0,0.0,0.0,0.0,0.0,0.0,0.0,0.0,0.0,0.0,-0.8479,-0.9747,-1.0812,-1.1619,-1.1694,-1.1694,-1.1581,-1.0028,-0.8086,0.0,0.0,0.0,0.0,0.0,0.0,0.0,0.0,0.0,0.0,0.0,0.0,0.0,0.0,0.0,0.0,0.0,0.0,0.0,0.0,0.0,0.0,0.0,0.0,0.0,0.0,0.0,0.0,0.0,0.0,0.0,0.0,0.0,0.0,0.0,0.0,0.0,0.0,0.0,0.0,0.0,-1.4359,-1.5484,-1.4603,0.0,0.0,0.0,0.0,-1.5211,-1.5109,0.0,0.0,0.0,0.0,0.0,0.0,0.0,0.0,0.0,0.0,0.0,0.0,0.0,0.0,0.0,0.0,0.0,0.0,0.0,0.0,0.0,0.0,0.0,0.0,0.0,0.0,0.0,0.0,0.0,0.0,0.0,0.0,0.0,0.0,0.0,0.0,0.0,0.0,0.0,0.0,0.0,0.0,0.0,0.0,0.0,0.0,0.0,0.0,0.0,0.0,0.0,0.0,0.0,0.0,0.0,0.0,-0.8459,-0.961,-1.0656,-1.1742,-1.1938,-1.1945,-1.173,-1.1051,-0.915,0.0,0.0,0.0,0.0,0.0,0.0,0.0,0.0,0.0,0.0,0.0,0.0,0.0,0.0,0.0,0.0,0.0,0.0,0.0,0.0,0.0,0.0,0.0,0.0,0.0,0.0,0.0,0.0,0.0,0.0,0.0,0.0,0.0,0.0,0.0,0.0,0.0,0.0,0.0,0.0,0.0,-1.515,-1.5115,-1.4696,-1.4916,0.0,0.0,-1.4713,-1.5812,-1.6622,0.0,0.0,0.0,0.0,0.0,0.0,0.0,0.0,0.0,0.0,0.0,0.0,0.0,0.0,0.0,0.0,0.0,0.0,0.0,0.0,0.0,0.0,0.0,0.0,0.0,0.0,0.0,0.0,0.0,0.0,0.0,0.0,0.0,0.0,0.0,0.0,0.0,0.0,0.0,0.0,0.0,0.0,0.0,0.0,0.0,0.0,0.0,0.0,0.0,0.0,0.0,0.0,0.0,0.0,0.0,-0.8745,-0.8798,-1.1243,-1.2365,-1.1998,-1.1945,-1.1898,-1.183,-1.026,-0.8262,0.0,0.0,0.0,0.0,0.0,0.0,0.0,0.0,0.0,0.0,0.0,0.0,0.0,0.0,0.0,0.0,0.0,0.0,0.0,0.0,0.0,0.0,0.0,0.0,0.0,0.0,0.0,0.0,0.0,0.0,0.0,0.0,0.0,0.0,0.0,0.0,0.0,0.0,0.0,0.0,0.0,0.0,-1.6388,-1.6516,0.0,0.0,0.0,-1.7153,-1.8218,0.0,0.0,0.0,0.0,0.0,0.0,0.0,0.0,0.0,0.0,0.0,0.0,0.0,0.0,0.0,0.0,0.0,0.0,0.0,0.0,0.0,0.0,0.0,0.0,0.0,0.0,0.0,0.0,0.0,0.0,0.0,0.0,0.0,0.0,0.0,0.0,0.0,0.0,0.0,0.0,0.0,0.0,0.0,0.0,0.0,0.0,0.0,0.0,0.0,0.0,0.0,0.0,0.0,0.0,0.0,0.0,0.0,-0.9009,-1.2568,-1.3729,-1.2121,-1.1986,-1.1911,-1.175,-1.0019,0.0,0.0,0.0,0.0,0.0,0.0,0.0,0.0,0.0,0.0,0.0,0.0,0.0,0.0,0.0,0.0,0.0,0.0,0.0,0.0,0.0,0.0,0.0,0.0,0.0,0.0,0.0,-0.7939,0.0,0.0,0.0,0.0,0.0,0.0,0.0,0.0,0.0,0.0,0.0,0.0,0.0,0.0,-1.5979,-1.7301,-1.8195,-1.9194,0.0,0.0,-1.9284,-2.0165,-1.9634,-1.9169,0.0,0.0,0.0,0.0,0.0,0.0,0.0,0.0,0.0,0.0,0.0,0.0,0.0,0.0,0.0,0.0,0.0,0.0,0.0,0.0,0.0,0.0,0.0,0.0,0.0,0.0,0.0,0.0,0.0,0.0,0.0,0.0,0.0,0.0,0.0,0.0,0.0,0.0,0.0,0.0,0.0,0.0,0.0,0.0,0.0,0.0,0.0,0.0,0.0,0.0,0.0,0.0,0.0,0.0,0.0,-0.9078,-1.2688,-1.3856,-1.221,-1.2196,-1.2121,-1.1763,-1.1375,-0.9856,0.0,0.0,0.0,0.0,0.0,0.0,0.0,0.0,0.0,0.0,0.0,0.0,0.0,0.0,0.0,0.0,0.0,0.0,0.0,0.0,0.0,0.0,0.0,0.0,0.0,0.0,0.0,0.0,0.0,0.0,0.0,0.0,0.0,0.0,0.0,0.0,0.0,0.0,0.0,0.0,0.0,-1.6139,-1.7099,-1.9122,-2.0689,0.0,0.0,-2.0332,-2.0793,-2.0005,-1.9111,-1.8303,0.0,0.0,0.0,0.0,0.0,0.0,0.0,0.0,0.0,0.0,0.0,0.0,0.0,0.0,0.0,0.0,0.0,0.0,0.0,0.0,0.0,0.0,0.0,0.0,0.0,0.0,0.0,0.0,0.0,0.0,0.0,0.0,0.0,0.0,0.0,0.0,0.0,0.0,0.0,0.0,0.0,0.0,0.0,0.0,0.0,0.0,0.0,0.0,0.0,0.0,0.0,0.0,0.0,-1.1499,-0.9332,-1.3996,-1.5083,-1.2333,-1.2074,-1.1952,-1.1837,-1.145,-1.0201,0.0,0.0,0.0,0.0,0.0,0.0,0.0,0.0,0.0,0.0,0.0,0.0,0.0,0.0,0.0,0.0,0.0,0.0,0.0,0.0,0.0,0.0,0.0,0.0,0.0,0.0,0.0,0.0,-0.9068,-0.8751,-0.7838,0.0,0.0,0.0,0.0,0.0,0.0,0.0,0.0,0.0,0.0,-1.8339,-1.8063,-1.9706,0.0,0.0,-2.1237,-2.1405,-2.2862,-2.1466,-2.0485,-2.1372,-2.0537,0.0,0.0,0.0,0.0,0.0,0.0,0.0,0.0,0.0,0.0,0.0,0.0,0.0,0.0,0.0,0.0,0.0,0.0,0.0,0.0,0.0,0.0,0.0,0.0,0.0,0.0,0.0,0.0,0.0,0.0,0.0,0.0,0.0,0.0,0.0,0.0,0.0,0.0,0.0,0.0,0.0,0.0,0.0,0.0,0.0,0.0,0.0,0.0,0.0,0.0,0.0,0.0,-1.2725,-1.0286,-1.5071,-1.6067,-1.3035,-1.2234,-1.1809,-1.1762,-1.1463,-1.0517,0.0,0.0,0.0,0.0,0.0,0.0,0.0,0.0,0.0,0.0,0.0,0.0,0.0,0.0,0.0,0.0,0.0,0.0,0.0,0.0,0.0,0.0,0.0,0.0,0.0,0.0,0.0,0.0,-0.934,-0.8758,-0.7425,0.0,0.0,0.0,0.0,0.0,0.0,0.0,0.0,0.0,0.0,-1.9613,-1.9626,-2.1013,-2.2242,-2.2809,-2.2529,-2.2648,-2.3727,-2.264,-2.1861,-2.2568,0.0,0.0,0.0,0.0,0.0,0.0,0.0,0.0,0.0,0.0,0.0,0.0,0.0,0.0,0.0,0.0,0.0,0.0,0.0,0.0,0.0,0.0,0.0,0.0,0.0,0.0,0.0,0.0,0.0,0.0,0.0,0.0,0.0,0.0,0.0,0.0,0.0,0.0,0.0,0.0,0.0,0.0,0.0,0.0,0.0,0.0,0.0,0.0,0.0,0.0,0.0,0.0,0.0,-1.3299,-1.2175,-1.5595,-1.6577,-1.4591,-1.2773,-1.1689,-1.1633,-1.1613,-1.1111,-1.0066,0.0,0.0,0.0,0.0,0.0,0.0,0.0,0.0,0.0,0.0,0.0,0.0,0.0,0.0,0.0,0.0,0.0,0.0,0.0,0.0,0.0,0.0,0.0,0.0,0.0,0.0,-0.9994,-0.9587,-0.8863,0.0,0.0,0.0,0.0,0.0,0.0,0.0,0.0,0.0,0.0,-1.8259,-1.9444,-2.1769,-2.3205,-2.417,-2.4687,-2.4734,-2.4211,-2.2897,-2.3228,-2.2977,0.0,0.0,0.0,0.0,0.0,0.0,0.0,0.0,0.0,0.0,0.0,0.0,0.0,0.0,0.0,0.0,0.0,0.0,0.0,0.0,0.0,0.0,0.0,0.0,0.0,0.0,0.0,-0.9504,-0.8313,0.0,0.0,0.0,0.0,0.0,0.0,0.0,0.0,0.0,0.0,0.0,-1.199,-1.3319,0.0,0.0,0.0,0.0,0.0,0.0,0.0,0.0,0.0,0.0,0.0,0.0,-1.2979,-1.0781,-1.5015,-1.5864,-1.2911,-1.2025,-1.1667,-1.1619,-1.2817,-1.3493,-1.3616,0.0,0.0,0.0,0.0,0.0,0.0,0.0,0.0,0.0,0.0,0.0,0.0,0.0,0.0,0.0,0.0,0.0,0.0,0.0,0.0,0.0,0.0,0.0,0.0,0.0,-0.9893,0.0,0.0,0.0,0.0,0.0,0.0,0.0,0.0,0.0,0.0,0.0,-1.822,-1.9022,-2.1873,-2.3802,-2.3747,-2.4685,-2.5071,0.0,0.0,0.0,0.0,0.0,0.0,0.0,0.0,0.0,0.0,0.0,0.0,0.0,0.0,-2.0888,-1.7884,-1.8184,-1.894,-1.9027,0.0,0.0,0.0,0.0,0.0,0.0,0.0,0.0,0.0,0.0,0.0,0.0,0.0,0.0,0.0,0.0,-1.1059,0.0,0.0,0.0,0.0,0.0,0.0,0.0,0.0,-1.3417,-1.4499,-1.4941,-1.6322,-1.686,0.0,-1.6255,-1.4045,0.0,0.0,0.0,0.0,0.0,0.0,0.0,0.0,-1.3236,-1.1111,-1.5022,-1.5772,-1.2815,-1.2021,-1.1592,-1.1538,-1.3232,-1.499,-1.6757,-1.554,-1.4223,0.0,0.0,0.0,0.0,0.0,0.0,0.0,0.0,0.0,0.0,0.0,0.0,0.0,0.0,0.0,0.0,0.0,0.0,0.0,0.0,0.0,0.0,0.0,-1.1132,0.0,0.0,0.0,0.0,0.0,0.0,0.0,0.0,0.0,-1.4166,-1.7842,-2.073,-2.1393,-2.3811,-2.5534,-2.5686,0.0,0.0,0.0,0.0,0.0,0.0,0.0,-2.5918,-2.6866,-2.5523,-2.4263,-2.3754,-2.4399,-2.4973,-2.4817,0.0,0.0,-2.2229,-2.2349,-2.3131,-2.3201,-2.3531,-2.3772,-2.3651,-2.4233,-2.4616,0.0,0.0,0.0,0.0,0.0,0.0,0.0,0.0,-1.0658,-1.0328,0.0,-1.2081,0.0,0.0,0.0,0.0,0.0,0.0,0.0,0.0,-1.7116,-1.7856,-1.7898,-1.7895,-1.7931,-1.7879,-1.7453,-1.6969,-1.6516,-1.5591,0.0,0.0,0.0,0.0,0.0,0.0,-1.4086,-1.3206,-1.5701,-1.6192,-1.4282,-1.2523,-1.1609,-1.1671,-1.3157,-1.5634,-1.8962,-1.6841,-1.6087,-1.7272,-1.2464,0.0,0.0,0.0,0.0,0.0,0.0,0.0,0.0,0.0,0.0,0.0,0.0,0.0,0.0,0.0,0.0,0.0,0.0,0.0,0.0,-1.3426,0.0,0.0,0.0,0.0,0.0,0.0,0.0,0.0,0.0,0.0,-1.811,-1.9663,-2.1744,-2.44,0.0,0.0,0.0,0.0,-2.6363,-2.9508,-2.8978,-2.8168,-2.8118,-2.7769,-2.6813,-2.4968,0.0,0.0,-2.3322,-2.552,-2.7137,-2.6024,-2.8374,-2.9646,-2.7098,-2.6045,-2.5629,-2.5823,-2.5966,-2.5929,-2.6202,-2.7098,-2.7599,-1.1341,0.0,0.0,0.0,0.0,-1.067,-1.1002,-1.1736,-1.2835,-1.2353,-1.1015,-1.2904,0.0,0.0,0.0,0.0,0.0,0.0,-1.3108,-1.3013,-1.477,-1.6727,-1.8831,-2.0298,-2.1688,-2.2928,-2.2847,-2.2578,-2.2205,-2.1748,-1.7937,-1.1047,0.0,0.0,0.0,0.0,-1.3414,-1.3479,-1.4611,-1.4231,-1.2292,-1.1733,-1.2632,-1.5055,-1.5536,-1.7598,-2.1322,-2.0539,-1.9449,-1.8186,-1.5038,0.0,0.0,0.0,0.0,0.0,0.0,0.0,0.0,0.0,0.0,0.0,0.0,0.0,0.0,0.0,0.0,0.0,0.0,0.0,-1.2811,-1.3281,-1.3347,0.0,0.0,0.0,0.0,0.0,0.0,0.0,0.0,0.0,-2.1012,-2.3529,-2.5635,0.0,0.0,-2.8508,-2.9051,-2.8177,-2.7529,-2.7781,0.0,0.0,0.0,-2.5736,-2.5807,-2.6163,-2.7248,-2.7929,-2.7641,-2.9372,-3.0771,-3.0667,-3.1465,-3.1908,-3.1558,-3.1195,-3.1011,-3.1143,-3.1162,-3.12,-3.1289,-3.1483,-3.1626,-1.2664,-1.1959,-1.1362,-1.128,-1.1592,-1.1518,-1.1803,-1.2394,-1.3386,-1.3052,-1.1983,-1.3961,-1.3421,-1.0988,-1.1439,0.0,0.0,0.0,-1.4695,-1.4375,-1.6479,-1.852,-2.0535,-2.2609,-2.4163,-2.5251,-2.513,-2.505,-2.4895,-2.3775,-2.0411,-1.5026,0.0,0.0,-1.3057,-1.3765,-1.4025,-1.3839,-1.4162,-1.3436,-1.1466,-1.128,-1.2872,-1.6258,-1.6449,-1.8306,-2.2098,-2.2191,-2.1476,-2.009,-1.7649,-1.5333,0.0,0.0,0.0,0.0,0.0,0.0,0.0,0.0,0.0,0.0,0.0,-0.8327,-0.7664,0.0,0.0,0.0,-1.333,-1.4122,-1.4995,-1.5111,0.0,0.0,0.0,0.0,0.0,0.0,0.0,-1.9184,-2.1178,-2.2526,-2.2932,-2.5288,-2.6685,-2.5973,-2.6935,-2.7896,-2.8268,0.0,-2.6877,-2.7031,-2.6917,-2.6583,-2.6102,-2.5448,-2.5375,-2.618,-2.7824,-2.9246,-2.9987,-3.1483,-3.2692,-3.2969,-3.3047,-3.3125,-3.3379,-3.3418,-3.3418,-3.3418,-3.3418,-3.3418,-3.3418,-3.3555,-3.3672,-1.3752,-1.3637,-1.2366,-1.2033,-1.2386,-1.2379,-1.2535,-1.2793,-1.2922,-1.282,-1.2745,-1.4954,-1.4392,-1.1839,-1.336,0.0,-1.6706,-1.7198,-1.755,-1.8113,-2.0386,-2.1708,-2.2261,-2.4367,-2.5445,-2.5585,-2.5291,-2.5277,-2.5375,-2.3104,-2.1521,-2.0773,-1.9957,-1.8354,-1.6074,-1.5908,-1.5429,-1.4501,-1.4393,-1.3554,-1.186,-1.1488,-1.2925,-1.6257,-1.6389,-1.816,-2.1806,-2.2138,-2.2284,-2.2324,-1.9978,-1.8277,-1.7466,0.0,0.0,0.0,0.0,0.0,0.0,0.0,0.0,0.0,0.0,0.0,0.0,0.0,0.0,0.0,-1.721,0.0,-1.8517,-1.8063,0.0,0.0,0.0,-1.6393,-1.742,-1.841,-1.935,-2.0045,0.0,0.0,-2.4034,0.0,-2.5643,-2.4063,-2.4082,-2.4747,-2.6251,-2.5406,-2.5085,-2.6905,-2.7003,-2.7066,-2.6835,-2.5883,-2.5263,-2.5712,-2.7051,-2.8905,-3.0602,-3.2332,-3.3389,-3.3555,-3.3535,-3.3535,-3.3535,-3.3574,-3.3516,-3.3555,-3.3516,-3.3496,-3.3594,-3.3867,-3.4121,-1.3752,-1.3725,-1.3458,-1.3315,-1.3302,-1.3186,-1.318,-1.3234,-1.3159,-1.3078,-1.309,-1.3566,-1.3345,-1.2807,-1.5027,-1.5342,-1.4173,-1.5864,-1.598,-1.49,-1.7138,-1.9212,-2.1053,-2.3098,-2.4773,-2.6094,-2.5892,-2.5665,-2.5504,-2.4911,-2.3415,-2.1306,-2.1019,-1.9369,-1.6287,-1.5082,-1.5264,-1.6737,-1.5104,-1.4605,-1.531,-1.4911,-1.5879,-1.8233,-1.6918,-1.8106,-2.2084,-2.1007,-2.1077,-2.2589,-2.0701,-1.934,-1.906,-1.3957,0.0,0.0,0.0,0.0,0.0,0.0,0.0,0.0,0.0,-1.1331,-1.0202,0.0,-1.4983,0.0,-1.9426,-2.0201,-1.8945,-1.9092,0.0,0.0,-1.825,-1.821,-1.996,-2.0227,-2.0958,-2.2783,-2.3986,-2.458,-2.4327,-2.4604,-2.4372,-2.3012,-2.4543,-2.605,-2.6514,-2.5587,-2.5128,-2.5854,-2.512,-2.4371,-2.4707,-2.4441,-2.4708,-2.6126,-2.7815,-2.9598,-3.1492,-3.3246,-3.4394,-3.4394,-3.4394,-3.4394,-3.431,-3.4394,-3.4394,-3.4375,-3.4141,-3.4023,-3.4336,-3.4492,-3.4551,-1.4041,-1.4041,-1.3973,-1.3858,-1.3709,-1.3566,-1.3424,-1.3302,-1.3281,-1.3275,-1.3275,-1.3261,-1.4267,-1.6046,-1.7385,-1.7161,-1.6035,-1.7163,-1.618,-1.3673,-1.6857,-1.9129,-2.0568,-2.3587,-2.51,-2.519,-2.5924,-2.5649,-2.4378,-2.5229,-2.4772,-2.3078,-2.2866,-2.1353,-1.8508,-1.5543,-1.4707,-1.5843,-1.4733,-1.4937,-1.6523,-1.6404,-1.6621,-1.7282,-1.6737,-1.7378,-1.9338,-1.8774,-1.8799,-1.971,-1.8692,-1.7976,-1.7693,-1.3945,-1.1799,0.0,0.0,0.0,0.0,0.0,0.0,0.0,0.0,0.0,0.0,0.0,-1.6901,0.0,-2.0094,-2.0935,-1.9452,-1.996,-2.0481,-2.0748,-2.0187,-2.0347,-2.1737,-2.175,-2.2155,-2.3389,-2.3795,-2.3994,-2.3898,-2.3837,-2.3588,-2.309,-2.4195,-2.5045,-2.5092,-2.4578,-2.438,-2.4974,-2.4339,-2.3768,-2.3941,-2.3968,-2.4816,-2.7215,-2.8551,-2.9851,-3.1644,-3.2799,-3.3198,-3.2448,-3.2866,-3.3482,-3.3482,-3.4401,-3.5039,-3.5234,-3.5254,-3.5098,-3.4785,-3.5019,-3.5293,-1.4299,-1.4292,-1.4156,-1.4027,-1.3885,-1.377,-1.3519,-1.3214,-1.3342,-1.3397,-1.341,-1.3811,-1.6012,-1.9238,-1.9192,-1.9104,-1.8947,-1.8833,-1.6837,-1.3617,-1.791,-2.0119,-2.0528,-2.4807,-2.5886,-2.4157,-2.5967,-2.5615,-2.3344,-2.5153,-2.5615,-2.4776,-2.4398,-2.3108,-2.066,-1.6705,-1.4526,-1.4253,-1.4562,-1.5479,-1.6902,-1.6773,-1.6203,-1.537,-1.5984,-1.6186,-1.5867,-1.6232,-1.6293,-1.6055,-1.5993,-1.6044,-1.5977,-1.4115,-1.2931,0.0,-1.0779,0.0,0.0,0.0,0.0,0.0,0.0,0.0,0.0,-1.8755,-1.8677,-1.8036,-2.0214,-2.1256,-2.0281,-2.0882,-2.1537,-2.2031,-2.2098,-2.2298,-2.2792,-2.2859,-2.2859,-2.2859,-2.2899,-2.3033,-2.3316,-2.3113,-2.3276,-2.3661,-2.3695,-2.3687,-2.3544,-2.3601,-2.3776,-2.4182,-2.4289,-2.4342,-2.4409,-2.4396,-2.545,-2.8309,-2.8991,-2.9724,-3.1474,-3.1815,-3.1285,-3.0033,-3.1218,-3.2291,-3.2219,-3.4161,-3.5694,-3.6113,-3.6426,-3.6328,-3.5508,-3.5703,-3.6152,-1.4299,-1.4299,-1.4272,-1.4238,-1.4211,-1.4183,-1.3865,-1.3356,-1.339,-1.3397,-1.3576,-1.5453,-1.6576,-1.7156,-1.7434,-1.7539,-1.7429,-1.5856,-1.4657,-1.4071,-1.8582,-2.0635,-2.0827,-2.5092,-2.7012,-2.6591,-2.7012,-2.6839,-2.6,-2.6255,-2.5166,-2.2836,-2.2481,-2.0974,-1.847,0.0,0.0,0.0,-1.8034,-1.8746,-1.8653,-1.6774,-1.5721,-1.5587,-1.4623,0.0,-1.6471,-1.5287,-1.5162,-1.6537,-1.6594,0.0,0.0,0.0,0.0,0.0,0.0,0.0,0.0,0.0,0.0,0.0,-1.8506,-1.8861,-1.8288,-2.0112,-2.0975,-2.0227,-2.1403,-2.2271,-2.2285,-2.2432,-2.2579,-2.2672,-2.2767,-2.2739,-2.2859,-2.2859,-2.2859,-2.2873,-2.3086,-2.326,-2.334,-2.3474,-2.3728,-2.4048,-2.4075,-2.4142,-2.4342,-2.4168,-2.4182,-2.4502,-2.4743,-2.4997,-2.5224,-2.5237,-2.5896,-2.797,-2.8547,-2.9294,-3.0832,-3.1282,-3.1315,-3.0631,-3.2429,-3.3696,-3.3785,-3.5506,-3.6934,-3.7031,-3.7148,-3.7109,-3.6855,-3.6934,-3.7051,-1.4516,0.0,-1.4516,-1.4475,0.0,-1.4333,-1.4129,-1.3831,-1.3682,-1.4111,-1.5036,-1.6262,-1.7882,-1.9826,-1.9975,-2.0066,-1.9993,-1.9023,-1.7993,-1.7162,-2.0402,-2.1976,-2.2141,-2.5458,-2.646,-2.5552,-2.6541,-2.625,-2.4853,-2.5767,-2.5465,-2.4163,-2.3808,-2.3005,-2.1846,-2.1555,-2.0668,-1.9104,-1.9842,-2.0551,-2.1111,-2.0025,-1.8771,-1.7467,0.0,0.0,0.0,0.0,0.0,0.0,0.0,0.0,0.0,0.0,0.0,-1.7535,-1.6342,-1.5981,-1.6954,-1.7684,-1.8853,-2.0657,-2.1542,-2.1528,-2.0539,-2.1846,-2.2392,-2.183,-2.2311,-2.2699,-2.2846,-2.2859,-2.2859,-2.2859,-2.2859,-2.2859,-2.2886,-2.2993,-2.3086,-2.3113,-2.3354,-2.3594,-2.3741,-2.3875,-2.4102,-2.4369,-2.4556,-2.4676,-2.481,-2.473,-2.4743,-2.501,-2.5184,-2.5344,-2.5478,-2.5518,-2.6191,-2.7891,-2.8402,-2.8777,-2.9641,-2.979,-2.9567,-2.8896,-3.0794,-3.2788,-3.3113,-3.5536,-3.793,-3.7969,-3.8281,-3.8555,-3.8535,-3.8066,-3.7598,-1.4713,-1.474,-1.474,-1.4665,-1.4543,-1.4428,-1.4612,-1.4882,0.0,0.0,0.0,-1.7375,-1.9735,-2.306,-2.314,-2.3164,-2.3119,-2.2717,-2.1588,-2.0039,-2.2153,-2.3293,-2.362,-2.5809,-2.5915,-2.4271,-2.6047,-2.5721,-2.355,-2.5179,-2.609,-2.601,-2.5651,-2.5638,-2.5825,-2.5344,-2.3918,-2.1603,-2.0981,-2.141,-2.2736,-2.2406,-2.1137,-1.8792,-1.9119,-1.8362,-1.6316,-1.6619,-1.6567,-1.6108,-1.6066,-1.6297,-1.6624,-1.6698,-1.7077,-1.7966,-1.8042,-1.8755,-2.0412,-2.0768,-2.1652,-2.339,-2.3661,-2.3541,-2.2993,-2.318,-2.3193,-2.2954,-2.2859,-2.2859,-2.2859,-2.2859,-2.2954,-2.2939,-2.2953,-2.2966,-2.3033,-2.3233,-2.3407,-2.3434,-2.3661,-2.3928,-2.4142,-2.4235,-2.4382,-2.4663,-2.489,-2.5144,-2.5211,-2.5184,-2.5224,-2.5504,-2.5585,-2.5625,-2.5745,-2.5798,-2.6438,-2.787,-2.8515,-2.876,-2.8745,-2.8745,-2.8151,-2.7284,-2.9472,-3.153,-3.2143,-3.5704,-3.8623,-3.8809,-3.9375,-3.9883,-3.9805,-3.8728,-3.7812,-1.4624,-1.474,-1.474,-1.4635,-1.4706,-1.4685,-1.5682,-1.7222,-1.6869,-1.6676,-1.6811,-2.0544,-2.2487,-2.314,-2.314,-2.3177,-2.3214,-2.1409,-2.0344,0.0,-2.2307,-2.3283,-2.3291,-2.5638,-2.6653,-2.6425,-2.6905,-2.6865,-2.6293,-2.6281,-2.6213,-2.6037,-2.5665,-2.5545,-2.5545,-2.5251,-2.4922,-2.4424,-2.1969,-2.0776,-2.0842,-1.9016,-1.774,-1.7023,-1.7446,-1.7308,-1.6717,-1.6809,-1.6789,-1.6665,-1.6655,-1.7569,-1.9551,-1.9699,-2.0626,-2.2576,-2.2795,-2.2949,-2.3201,-2.3253,-2.3541,-2.4035,-2.3888,-2.3621,-2.33,-2.33,-2.3193,-2.2899,-2.2886,-2.2859,-2.2859,-2.2886,-2.3006,-2.322,-2.326,-2.3354,-2.3651,-2.3674,-2.3714,-2.3714,-2.3968,-2.4155,-2.4235,-2.4436,-2.4676,-2.4943,-2.5104,-2.5277,-2.5678,-2.5611,-2.5598,-2.5812,-2.597,-2.6106,-2.6453,-2.6627,-2.7066,-2.7297,-2.9123,-3.0302,-3.0287,-3.0287,-3.0145,-2.9868,-3.1715,-3.3149,-3.3415,-3.6776,-3.9198,-3.9668,-3.9883,-3.998,-3.9754,-3.816,-3.7366,-1.4726,-1.5039,-1.6308,-1.6903,-1.7072,-1.8351,-1.9177,-1.9845,-2.0882,-2.103,-2.0848,-2.2724,-2.4214,-2.5375,-2.5375,-2.535,-2.5163,-2.4178,-2.3608,-2.3558,-2.4536,-2.4966,-2.5025,-2.6029,-2.6587,-2.66,-2.672,-2.672,-2.6573,-2.6453,-2.64,-2.6413,-2.6293,-2.6066,-2.5758,-2.5625,-2.5474,-2.5077,-2.358,-2.2814,-2.2685,-2.1616,-2.0999,-2.0959,-2.0979,-2.0957,-2.0837,-2.0825,-2.0692,-2.0347,-2.0335,-2.08,-2.1811,-2.1906,-2.2517,-2.3728,-2.3781,-2.3781,-2.3781,-2.3915,-2.4128,-2.4409,-2.4315,-2.4115,-2.3821,-2.3661,-2.35,-2.3367,-2.3423,-2.3354,-2.3354,-2.3354,-2.342,-2.3554,-2.3567,-2.3621,-2.3754,-2.3928,-2.4008,-2.4035,-2.4262,-2.4436,-2.4436,-2.469,-2.4903,-2.509,-2.5317,-2.5758,-2.6319,-2.6306,-2.6266,-2.64,-2.6426,-2.66,-2.7055,-2.8158,-2.8778,-2.8987,-3.082,-3.2079,-3.2316,-3.2316,-3.2316,-3.2396,-3.3987,-3.5141,-3.5331,-3.7942,-3.9796,-4.0254,-4.0449,-4.024,-3.9045,-3.7041,-3.6332,-1.5048,-1.5916,-1.7727,-1.8892,-1.9748,-2.213,-2.2773,-2.2459,-2.4702,-2.547,-2.496,-2.4802,-2.5672,-2.7186,-2.735,-2.7134,-2.6947,-2.6921,-2.68,-2.66,-2.6587,-2.6587,-2.6573,-2.652,-2.648,-2.648,-2.6426,-2.64,-2.64,-2.64,-2.6507,-2.6707,-2.6734,-2.6493,-2.6144,-2.5985,-2.5692,-2.5197,-2.4957,-2.477,-2.4636,-2.4476,-2.4476,-2.4596,-2.4336,-2.4262,-2.4209,-2.4142,-2.3901,-2.3474,-2.342,-2.3658,-2.4063,-2.3725,-2.386,-2.4473,-2.4242,-2.3995,-2.4075,-2.4262,-2.4502,-2.4716,-2.4676,-2.4543,-2.4315,-2.4035,-2.3834,-2.3781,-2.3754,-2.3754,-2.3741,-2.3825,-2.3794,-2.3861,-2.3861,-2.3901,-2.3981,-2.4168,-2.4342,-2.4409,-2.4609,-2.4756,-2.485,-2.5037,-2.5211,-2.5358,-2.5785,-2.6333,-2.6734,-2.6867,-2.6934,-2.6987,-2.6974,-2.7351,-2.7934,-2.9425,-3.065,-3.1243,-3.3287,-3.4525,-3.4745,-3.4711,-3.4694,-3.4919,-3.6009,-3.6976,-3.7348,-3.9236,-4.0725,-4.1055,-4.1269,-4.0759,-3.8579,-3.7667,-3.6435,-1.5777,-1.7805,-1.8174,-1.9518,-2.178,-2.4108,-2.4898,-2.4945,-2.7177,-2.8063,-2.7654,-2.7248,-2.7036,-2.7268,-2.7363,-2.7268,-2.7228,-2.7228,-2.7201,-2.7175,-2.7188,-2.7188,-2.7121,-2.6907,-2.6787,-2.6747,-2.652,-2.6413,-2.64,-2.64,-2.64,-2.6426,-2.6426,-2.6413,-2.6319,-2.6171,-2.5876,-2.5478,-2.5451,-2.517,-2.4616,-2.4877,-2.489,-2.4636,-2.4623,-2.4476,-2.4262,-2.3955,-2.3794,-2.3741,-2.3799,-2.4676,-2.621,-2.5082,-2.5032,-2.688,-2.5482,-2.4663,-2.4917,-2.4983,-2.4997,-2.501,-2.4783,-2.4623,-2.4496,-2.4329,-2.4048,-2.3875,-2.3794,-2.3821,-2.3781,-2.3794,-2.3915,-2.4142,-2.4168,-2.4262,-2.4489,-2.4583,-2.4703,-2.497,-2.501,-2.513,-2.5317,-2.5451,-2.5598,-2.5852,-2.6346,-2.6747,-2.6894,-2.7094,-2.7321,-2.7482,-2.7415,-2.8262,-2.9914,-3.0706,-3.2112,-3.3888,-3.608,-3.7276,-3.7514,-3.755,-3.755,-3.7834,-3.8076,-3.8559,-3.9086,-4.0363,-4.2069,-4.1893,-4.1812,-4.1391,-3.9449,-3.9258,-3.9393,-1.5876,-1.8152,-1.9667,-2.2486,-2.5982,-2.7072,-2.7357,-2.719,-2.8162,-2.843,-2.8221,-2.7966,-2.7872,-2.7872,-2.7872,-2.7779,-2.7522,-2.7522,-2.7428,-2.7363,-2.735,-2.735,-2.7255,-2.7148,-2.7001,-2.6827,-2.6694,-2.656,-2.6413,-2.64,-2.64,-2.64,-2.64,-2.64,-2.6452,-2.7493,-2.7353,-2.6104,-2.706,-2.6926,-2.559,-2.5358,-2.5371,-2.5411,-2.5411,-2.5277,-2.4997,-2.4863,-2.5057,-2.5598,-2.5684,-2.6724,-2.8932,-2.7209,-2.675,-2.7881,-2.6257,-2.5211,-2.5331,-2.5184,-2.5077,-2.5077,-2.481,-2.4636,-2.4636,-2.4529,-2.4409,-2.4315,-2.4289,-2.4289,-2.4289,-2.4275,-2.4329,-2.4436,-2.4449,-2.4583,-2.4863,-2.4903,-2.501,-2.5277,-2.5344,-2.5371,-2.5545,-2.5825,-2.6132,-2.644,-2.6841,-2.7121,-2.7295,-2.7455,-2.7642,-2.7953,-2.7843,-2.8814,-3.0854,-3.2492,-3.4115,-3.6489,-3.8737,-4.0164,-4.0428,-4.0565,-4.0641,-4.0787,-4.0896,-4.1009,-4.1352,-4.1771,-4.2773,-4.2456,-4.1095,-4.0091,-3.9096,-3.8571,-3.8238,-1.6774,-1.9193,-2.2162,-2.55,-2.8705,-2.8791,-2.8671,-2.8497,-2.8484,-2.835,-2.8234,-2.8234,-2.8234,-2.8234,-2.8234,-2.8016,-2.7843,-2.7829,-2.7709,-2.7522,-2.7509,-2.7509,-2.7495,-2.7415,-2.7228,-2.6974,-2.6854,-2.6667,-2.6413,-2.64,-2.64,-2.64,-2.64,-2.6689,-2.7305,-2.8749,-2.8686,-2.7527,-2.8603,-2.8207,-2.6364,-2.5945,-2.5905,-2.5959,-2.6037,-2.5852,-2.5638,-2.5998,-2.6485,-2.7224,-2.7661,-2.89,-3.1,-2.8923,-2.7673,-2.7592,-2.633,-2.5558,-2.5625,-2.5438,-2.5317,-2.5291,-2.505,-2.4836,-2.4796,-2.4823,-2.4877,-2.489,-2.5024,-2.5077,-2.477,-2.4756,-2.4783,-2.4863,-2.4877,-2.4997,-2.5277,-2.5264,-2.5344,-2.5678,-2.5692,-2.5705,-2.5892,-2.6239,-2.6587,-2.6894,-2.7188,-2.7442,-2.7655,-2.7749,-2.7909,-2.8194,-2.8683,-3.0222,-3.2107,-3.3574,-3.6025,-3.8831,-4.1059,-4.187,-4.25,-4.2578,-4.2654,-4.2303,-4.304,-4.3336,-4.3007,-4.3254,-4.3262,-4.2585,-4.158,-4.0443,-4.0614,-3.8984,-3.8883,-1.9069,-2.1597,-2.5993,-2.7852,-2.8274,-2.8301,-2.8274,-2.8274,-2.8177,-2.8248,-2.8234,-2.8234,-2.8234,-2.8234,-2.8234,-2.8221,-2.8207,-2.8181,-2.8167,-2.814,-2.8154,-2.8181,-2.8167,-2.7816,-2.7522,-2.7201,-2.6974,-2.6694,-2.6413,-2.64,-2.64,-2.64,-2.64,-2.7305,-2.8793,-2.9245,-2.9386,-2.9037,-2.9669,-2.8819,-2.6822,-2.6707,-2.6612,-2.6259,-2.6037,-2.6037,-2.6175,-2.7173,-2.7836,-2.7924,-2.9401,-3.1087,-3.2578,-2.9809,-2.742,-2.6012,-2.5608,-2.5651,-2.5892,-2.597,-2.5943,-2.5929,-2.5571,-2.5344,-2.5104,-2.5291,-2.5424,-2.5464,-2.5892,-2.5879,-2.5291,-2.5184,-2.5237,-2.5438,-2.5478,-2.5611,-2.5879,-2.5692,-2.5785,-2.6146,-2.6119,-2.6159,-2.664,-2.6787,-2.6961,-2.7215,-2.7495,-2.7722,-2.7802,-2.7976,-2.8221,-2.8653,-3.0043,-3.2525,-3.4504,-3.5574,-3.7643,-4.0242,-4.194,-4.2578,-4.2832,-4.3086,-4.334,-4.3652,-4.4062,-4.4297,-4.4336,-4.4199,-4.3926,-4.357,-4.3394,-4.2765,-4.2302,-4.276,-4.2553,-2.0236,-2.3641,-2.6842,-2.8234,-2.8234,-2.8234,-2.8234,-2.8234,-2.8234,-2.8234,-2.8234,-2.8234,-2.8234,-2.8234,-2.8234,-2.8234,-2.8234,-2.8234,-2.8234,-2.8234,-2.8234,-2.8234,-2.8207,-2.8114,-2.7722,-2.7308,-2.7161,-2.6854,-2.6426,-2.64,-2.64,-2.64,-2.64,-2.6863,-2.7792,-2.907,-2.9325,-2.8674,-3.0794,-3.1196,-2.9123,-2.8892,-2.8633,-2.8167,-2.6918,-2.6836,-2.7913,-2.8352,-2.952,-3.1536,-3.2241,-3.339,-3.4831,-3.227,-2.9033,-2.6248,-2.5959,-2.6119,-2.6186,-2.613,-2.6037,-2.601,-2.5678,-2.5491,-2.5424,-2.5625,-2.5798,-2.5879,-2.6146,-2.6239,-2.6239,-2.6026,-2.5959,-2.6039,-2.6079,-2.6186,-2.6373,-2.6266,-2.6239,-2.6547,-2.656,-2.6627,-2.6827,-2.7148,-2.7415,-2.7549,-2.7802,-2.8043,-2.8243,-2.839,-2.8484,-2.8757,-2.9553,-3.1451,-3.5637,-3.7153,-3.8896,-4.1222,-4.291,-4.3281,-4.3574,-4.3769,-4.3984,-4.4492,-4.4941,-4.4824,-4.4707,-4.4219,-4.4043,-4.3848,-4.3711,-4.3848,-4.3906,-4.375,-4.3945,-2.2466,-2.5835,-2.7532,-2.8234,-2.8234,-2.8234,-2.8234,-2.8234,-2.8234,-2.8234,-2.8234,-2.8234,-2.8234,-2.8234,-2.8234,-2.8234,-2.8234,-2.8234,-2.8234,-2.8234,-2.8234,-2.8234,-2.8234,-2.8234,-2.7829,-2.7321,-2.7161,-2.6894,-2.6587,-2.6627,-2.668,-2.668,-2.6667,-2.7147,-2.8033,-2.9391,-2.9749,-3.0211,-3.2443,-3.2952,-3.1647,-3.1476,-3.112,-3.0515,-2.9301,-2.8686,-2.9211,-3.0218,-3.1804,-3.3822,-3.4477,-3.4826,-3.4658,-3.225,-2.9351,-2.6612,-2.6266,-2.64,-2.6373,-2.6199,-2.6092,-2.6092,-2.5932,-2.5798,-2.5812,-2.6146,-2.6425,-2.6519,-2.6747,-2.7054,-2.7148,-2.7068,-2.6881,-2.6734,-2.668,-2.6787,-2.7028,-2.676,-2.664,-2.6747,-2.6787,-2.6881,-2.7094,-2.7455,-2.7749,-2.7949,-2.8177,-2.8404,-2.8671,-2.8751,-2.8804,-2.9092,-2.9955,-3.2289,-3.5593,-3.7802,-3.9896,-4.2226,-4.3242,-4.3691,-4.4062,-4.4297,-4.4629,-4.5215,-4.5371,-4.5215,-4.4844,-4.4297,-4.3984,-4.3769,-4.3887,-4.4062,-4.4199,-4.4394,-4.4473,-2.5823,-2.7883,-2.8234,-2.8234,-2.8234,-2.8234,-2.8234,-2.8234,-2.8234,-2.8234,-2.8234,-2.8234,-2.8234,-2.8234,-2.8234,-2.8234,-2.8234,-2.8234,-2.8234,-2.8234,-2.8234,-2.8234,-2.8221,-2.8194,-2.7899,-2.7268,-2.6974,-2.6841,-2.6841,-2.7284,-2.75,-2.731,-2.7419,-2.8365,-3.0195,-3.0275,-3.1468,-3.3194,-3.4043,-3.4186,-3.4186,-3.412,-3.3851,-3.3193,-3.2923,-3.1911,-2.9913,-3.2909,-3.4627,-3.5048,-3.6015,-3.4923,-3.1924,-2.9763,-2.7893,-2.6683,-2.6373,-2.6386,-2.64,-2.636,-2.6346,-2.6346,-2.6373,-2.6346,-2.64,-2.6854,-2.7188,-2.7241,-2.7725,-2.8127,-2.81,-2.8073,-2.7859,-2.747,-2.7268,-2.7388,-2.7495,-2.7188,-2.6827,-2.6867,-2.6894,-2.7094,-2.7509,-2.7722,-2.7936,-2.8364,-2.8537,-2.8684,-2.8965,-2.9045,-2.9045,-2.9474,-3.0423,-3.2512,-3.551,-3.8522,-4.0869,-4.2972,-4.3366,-4.3808,-4.4141,-4.4414,-4.459,-4.5058,-4.5058,-4.4883,-4.4687,-4.4199,-4.4004,-4.3867,-4.4062,-4.418,-4.4277,-4.4414,-4.4648,-2.4594,-2.8052,-2.8234,-2.8234,-2.8234,-2.8234,-2.8234,-2.8234,-2.8234,-2.8234,-2.8234,-2.8234,-2.8234,-2.8234,-2.8234,-2.8234,-2.8234,-2.8234,-2.8234,-2.8234,-2.8234,-2.8234,-2.8194,-2.7936,-2.7642,-2.7268,-2.6961,-2.6934,-2.7351,-2.873,-2.8839,-2.7826,-2.8853,-2.991,-3.083,-3.0845,-3.1969,-3.4356,-3.5932,-3.6544,-3.6395,-3.6438,-3.6174,-3.5716,-3.534,-3.4824,-3.4246,-3.4861,-3.5669,-3.6504,-3.6874,-3.5194,-3.1571,-2.9526,-2.7932,-2.6378,-2.6293,-2.64,-2.64,-2.64,-2.64,-2.6426,-2.6573,-2.668,-2.6747,-2.7228,-2.7549,-2.7589,-2.7923,-2.8234,-2.8234,-2.8234,-2.8127,-2.7896,-2.7953,-2.7953,-2.7896,-2.7642,-2.7362,-2.7188,-2.7308,-2.7509,-2.7682,-2.7843,-2.8177,-2.8551,-2.8644,-2.8804,-2.9219,-2.9339,-2.9446,-2.9783,-3.1119,-3.2573,-3.5719,-3.8049,-3.9916,-4.2409,-4.3546,-4.3769,-4.4121,-4.4336,-4.4551,-4.4648,-4.4629,-4.4551,-4.4355,-4.416,-4.3926,-4.3828,-4.3887,-4.4023,-4.418,-4.4414,-4.4687,-2.4764,-2.8052,-2.8234,-2.8234,-2.8234,-2.8234,-2.8234,-2.8234,-2.8234,-2.8234,-2.8234,-2.8234,-2.8234,-2.8234,-2.8234,-2.8234,-2.8234,-2.8234,-2.8234,-2.8234,-2.8234,-2.8234,-2.811,-2.7843,-2.7615,-2.7428,-2.7241,-2.7241,-2.7593,-2.9612,-3.0144,-2.9357,-3.1022,-3.2165,-3.2367,-3.2464,-3.3564,-3.5765,-3.7162,-3.8183,-3.8646,-3.8825,-3.8639,-3.8229,-3.7968,-3.7763,-3.7613,-3.711,-3.7047,-3.7138,-3.6119,-3.3696,-3.1046,-2.8958,-2.7291,-2.6524,-2.6266,-2.64,-2.64,-2.6493,-2.6547,-2.6613,-2.6921,-2.7148,-2.7228,-2.7615,-2.7843,-2.7896,-2.803,-2.8234,-2.8234,-2.8234,-2.8234,-2.8221,-2.8207,-2.8181,-2.8087,-2.7923,-2.7736,-2.7549,-2.7575,-2.7776,-2.8016,-2.8163,-2.8497,-2.8804,-2.8938,-2.9072,-2.9499,-2.9646,-2.978,-2.986,-3.0204,-3.2558,-3.5951,-3.7759,-3.897,-4.137,-4.3609,-4.3769,-4.3984,-4.4023,-4.416,-4.418,-4.418,-4.416,-4.3984,-4.3906,-4.375,-4.373,-4.3769,-4.3965,-4.4199,-4.4531,-4.4596,-2.5908,-2.8052,-2.8234,-2.8234,-2.8234,-2.8261,-2.8261,-2.8234,-2.8274,-2.8261,-2.8234,-2.8234,-2.8234,-2.8234,-2.8234,-2.8234,-2.8234,-2.8234,-2.8261,-2.8288,-2.8288,-2.8261,-2.8043,-2.7856,-2.7736,-2.7669,-2.7642,-2.7835,-2.8372,-3.0689,-3.1557,-3.1729,-3.3645,-3.4861,-3.4844,-3.4878,-3.5909,-3.7798,-3.8231,-3.9276,-4.0802,-4.0977,-4.0802,-4.0336,-4.022,-4.0025,-3.96,-3.9038,-3.8418,-3.736,-3.3941,-3.1776,-3.0553,-2.7846,-2.6276,-2.6333,-2.6386,-2.6413,-2.6466,-2.664,-2.6814,-2.6881,-2.7308,-2.7696,-2.7669,-2.7883,-2.8167,-2.8181,-2.8207,-2.8234,-2.8234,-2.8234,-2.8234,-2.8261,-2.8315,-2.8096,-2.7816,-2.8003,-2.8016,-2.7816,-2.7762,-2.7936,-2.847,-2.8564,-2.8885,-2.9232,-2.9392,-2.9526,-2.974,-2.9833,-2.9887,-2.9913,-2.9913,-3.182,-3.494,-3.6917,-3.8289,-4.068,-4.3093,-4.375,-4.3808,-4.3828,-4.3848,-4.3848,-4.3848,-4.3789,-4.373,-4.3711,-4.3691,-4.3711,-4.3828,-4.4004,-4.3993,-4.4143,-4.3452,-2.4597,-2.8065,-2.8234,-2.8234,-2.8261,-2.8377,-2.835,-2.8274,-2.839,-2.8364,-2.8288,-2.8234,-2.8248,-2.8234,-2.8234,-2.8234,-2.8234,-2.8234,-2.8283,-2.8457,-2.8484,-2.8203,-2.7936,-2.7976,-2.7923,-2.7762,-2.7832,-2.862,-3.0447,-3.2566,-3.3773,-3.392,-3.5943,-3.7082,-3.7082,-3.7082,-3.8231,-4.0021,-4.0275,-4.0431,-4.0997,-4.1172,-4.1133,-4.1016,-4.0703,-4.0488,-4.0234,-3.9297,-3.7827,-3.5981,-3.3352,-3.1044,-2.9824,-2.7607,-2.6346,-2.6413,-2.6426,-2.6507,-2.668,-2.68,-2.6934,-2.7148,-2.7509,-2.7696,-2.7709,-2.7976,-2.8207,-2.8234,-2.8234,-2.8234,-2.8234,-2.8234,-2.8315,-2.8444,-2.8457,-2.8337,-2.815,-2.8283,-2.8364,-2.811,-2.8217,-2.8417,-2.8617,-2.8831,-2.9072,-2.9392,-2.9526,-2.9593,-2.9833,-2.9913,-2.9913,-2.9913,-3.0169,-3.1657,-3.3556,-3.562,-3.7775,-4.0174,-4.2224,-4.3711,-4.373,-4.375,-4.373,-4.373,-4.3769,-4.373,-4.3711,-4.3691,-4.3691,-4.3691,-4.375,-4.3848,-4.3125,-4.2926,-4.1918,-2.4091,-2.8323,-2.8274,-2.8283,-2.8511,-2.8577,-2.8564,-2.8564,-2.8698,-2.8698,-2.8524,-2.8377,-2.8337,-2.8323,-2.8288,-2.8234,-2.8234,-2.8234,-2.831,-2.8617,-2.8871,-2.8711,-2.839,-2.8364,-2.8243,-2.8083,-2.7936,-2.9202,-3.1362,-3.3594,-3.5056,-3.6281,-3.8231,-3.9276,-3.9276,-3.9374,-3.9864,-4.1016,-4.1172,-4.1172,-4.1172,-4.1172,-4.1172,-4.1133,-4.0898,-4.0742,-4.0449,-3.9785,-3.8175,-3.5548,-3.3211,-3.1201,-2.9472,-2.7783,-2.6841,-2.676,-2.676,-2.6841,-2.6987,-2.7108,-2.7268,-2.7455,-2.7722,-2.7856,-2.7909,-2.814,-2.8234,-2.8234,-2.8234,-2.8234,-2.8234,-2.8234,-2.8382,-2.8524,-2.8604,-2.8537,-2.8337,-2.8484,-2.8511,-2.843,-2.8497,-2.8738,-2.8911,-2.9125,-2.9352,-2.9579,-2.9686,-2.9766,-2.9887,-2.99,-2.9913,-2.9913,-3.0348,-3.1657,-3.3644,-3.5793,-3.863,-4.095,-4.2141,-4.3609,-4.3691,-4.3691,-4.3691,-4.3691,-4.3691,-4.3691,-4.3691,-4.3691,-4.3691,-4.3691,-4.3691,-4.3526,-4.3093,-4.1388,-4.0354,-2.408,-2.8591,-2.831,-2.8511,-2.8938,-2.8804,-2.8831,-2.9005,-2.9058,-2.9045,-2.8951,-2.8751,-2.8657,-2.8631,-2.8377,-2.8301,-2.8301,-2.8328,-2.8457,-2.8831,-2.9205,-2.9325,-2.9085,-2.8831,-2.8657,-2.8511,-2.8297,-2.9816,-3.1902,-3.4002,-3.604,-3.7993,-4.0197,-4.0997,-4.0841,-4.0997,-4.1172,-4.1172,-4.1172,-4.1172,-4.1172,-4.1172,-4.1172,-4.1152,-4.1152,-4.0898,-4.0625,-4.0199,-3.8766,-3.5224,-3.3399,-3.1524,-2.973,-2.7974,-2.7378,-2.7201,-2.7175,-2.7215,-2.7335,-2.7509,-2.7696,-2.7776,-2.806,-2.8221,-2.8194,-2.8221,-2.8234,-2.8234,-2.8234,-2.8234,-2.8248,-2.8248,-2.8337,-2.8551,-2.8604,-2.8604,-2.8604,-2.8631,-2.8644,-2.8631,-2.8631,-2.8978,-2.9285,-2.9526,-2.9619,-2.974,-2.982,-2.9847,-2.99,-2.99,-2.9913,-2.9913,-3.0616,-3.1479,-3.3731,-3.614,-3.931,-4.2057,-4.2825,-4.3691,-4.3691,-4.3691,-4.3691,-4.3691,-4.3691,-4.3691,-4.3691,-4.3691,-4.3691,-4.3691,-4.3691,-4.3691,-4.3361,-4.068,-3.899,-2.4153,-2.8604,-2.8537,-2.8711,-2.9032,-2.9219,-2.9192,-2.9085,-2.9299,-2.9272,-2.9072,-2.8978,-2.8951,-2.8925,-2.8631,-2.8511,-2.8511,-2.8551,-2.8778,-2.9312,-2.9646,-2.9793,-2.9646,-2.9406,-2.9045,-2.8724,-2.8551,-3.0435,-3.3265,-3.457,-3.6682,-4.0099,-4.0685,-4.1172,-4.1172,-4.1172,-4.1172,-4.1172,-4.1172,-4.1172,-4.1172,-4.1172,-4.1172,-4.1172,-4.1172,-4.0957,-4.0625,-4.0527,-3.8452,-3.5253,-3.3512,-3.1857,-2.8914,-2.7689,-2.7417,-2.7417,-2.739,-2.7388,-2.7575,-2.7682,-2.7802,-2.8087,-2.8154,-2.8234,-2.8234,-2.8234,-2.8234,-2.8234,-2.8234,-2.8234,-2.8274,-2.8377,-2.8511,-2.8591,-2.8591,-2.8591,-2.8644,-2.8791,-2.8791,-2.8764,-2.9005,-2.9339,-2.9486,-2.97,-2.9806,-2.99,-2.9913,-2.9913,-2.9913,-2.9913,-2.9913,-2.9913,-3.0169,-3.1137,-3.3116,-3.5967,-3.9752,-4.2326,-4.3259,-4.3691,-4.3691,-4.3691,-4.3691,-4.3691,-4.3691,-4.3691,-4.3691,-4.3691,-4.3691,-4.3691,-4.3609,-4.3443,-4.2493,-3.9903,-3.7518,-2.4456,-2.8718,-2.8804,-2.9058,-2.9419,-2.9472,-2.9472,-2.9486,-2.9606,-2.9606,-2.9446,-2.9325,-2.9245,-2.9205,-2.8831,-2.8671,-2.8831,-2.8965,-2.9179,-2.9499,-2.9766,-2.99,-2.99,-2.9726,-2.9392,-2.8871,-2.8657,-3.0913,-3.369,-3.5073,-3.6842,-4.0841,-4.1172,-4.1172,-4.1172,-4.1172,-4.1172,-4.1172,-4.1172,-4.1172,-4.1172,-4.1172,-4.1172,-4.1172,-4.1172,-4.1035,-4.0859,-4.084,-3.9056,-3.6491,-3.4668,-3.2227,-2.8828,-2.7846,-2.7682,-2.7752,-2.7765,-2.7722,-2.7883,-2.7923,-2.806,-2.8207,-2.8234,-2.8234,-2.8234,-2.8234,-2.8234,-2.8234,-2.8234,-2.8261,-2.8337,-2.8297,-2.847,-2.8698,-2.8551,-2.8511,-2.8738,-2.8831,-2.8871,-2.8871,-2.9192,-2.9486,-2.9686,-2.9833,-2.9873,-2.9913,-2.9913,-2.9913,-2.9913,-2.9913,-2.9913,-2.9913,-2.9913,-3.0781,-3.2602,-3.5707,-4.0005,-4.2243,-4.3526,-4.3691,-4.3691,-4.3691,-4.3691,-4.3691,-4.3691,-4.3691,-4.3691,-4.3691,-4.3691,-4.3691,-4.3526,-4.3093,-4.1704,-3.9055,-3.6744,-2.466,-2.8958,-2.9085,-2.9419,-2.9833,-2.9659,-2.9686,-2.9873,-2.9913,-2.986,-2.9873,-2.9646,-2.9553,-2.9432,-2.9018,-2.8925,-2.9112,-2.9312,-2.9472,-2.9619,-2.9806,-2.99,-2.99,-2.9833,-2.9579,-2.9072,-2.8818,-3.0916,-3.3706,-3.4992,-3.702,-4.0509,-4.1172,-4.1172,-4.1172,-4.1172,-4.1172,-4.1172,-4.1172,-4.1172,-4.1172,-4.1172,-4.1172,-4.1172,-4.1172,-4.1152,-4.1113,-4.0958,-4.008,-3.7975,-3.588,-3.271,-2.9857,-2.8221,-2.8221,-2.8207,-2.8154,-2.8154,-2.8154,-2.8194,-2.8207,-2.8234,-2.8234,-2.8234,-2.8234,-2.8234,-2.8234,-2.8261,-2.8288,-2.8337,-2.8551,-2.8524,-2.8564,-2.8684,-2.843,-2.8511,-2.8778,-2.8778,-2.8871,-2.9098,-2.9392,-2.9673,-2.9793,-2.99,-2.9913,-2.9913,-2.9913,-2.9913,-2.9913,-2.9913,-2.9913,-3.0526,-3.0691,-3.3204,-3.5273,-3.621,-4.0427,-4.2326,-4.3691,-4.3691,-4.3691,-4.3691,-4.3691,-4.3691,-4.3691,-4.3691,-4.3691,-4.3691,-4.3691,-4.3711,-4.2927,-4.2057,-4.0259,-3.8118,-3.5967,-2.466,-2.9058,-2.9312,-2.9606,-2.9873,-2.986,-2.986,-2.99,-2.9913,-2.9913,-2.99,-2.986,-2.982,-2.974,-2.9499,-2.9379,-2.9379,-2.9499,-2.9633,-2.978,-2.99,-2.9913,-2.9913,-2.99,-2.9593,-2.9179,-2.9011,-3.0991,-3.3918,-3.4992,-3.7135,-4.0353,-4.1172,-4.1172,-4.1172,-4.1172,-4.1172,-4.1172,-4.1172,-4.1172,-4.1172,-4.1172,-4.1133,-4.1113,-4.1094,-4.1113,-4.1133,-4.1074,-4.0197,-3.7975,-3.5863,-3.3497,-3.1031,-2.9244,-2.8278,-2.8194,-2.8181,-2.8167,-2.8181,-2.8221,-2.8221,-2.8234,-2.8234,-2.8234,-2.8234,-2.8248,-2.8301,-2.827,-2.8404,-2.8551,-2.8604,-2.8644,-2.8604,-2.8497,-2.847,-2.8564,-2.8711,-2.8885,-2.9085,-2.9379,-2.9646,-2.982,-2.9873,-2.9913,-2.9913,-2.9913,-2.9913,-2.9913,-2.9913,-2.9913,-2.9913,-3.0781,-3.1745,-3.5186,-3.8613,-3.9038,-4.0932,-4.2576,-4.3691,-4.3691,-4.3691,-4.3691,-4.3691,-4.3691,-4.3691,-4.3691,-4.3691,-4.3691,-4.3691,-4.3691,-4.2409,-4.0848,-3.897,-3.7089,-3.4853,-2.4968,-2.9211,-2.9593,-2.978,-2.99,-2.9913,-2.9913,-2.9913,-2.9913,-2.9913,-2.9913,-2.9927,-3.0007,-2.9993,-2.9659,-2.9486,-2.9513,-2.9659,-2.978,-2.99,-2.9913,-2.9913,-2.9913,-2.9913,-2.9659,-2.9325,-2.9273,-3.1079,-3.4637,-3.4734,-3.7285,-4.0426,-4.1308,-4.1172,-4.1172,-4.1172,-4.1172,-4.1172,-4.1172,-4.1172,-4.1172,-4.1172,-4.1094,-4.0898,-4.0859,-4.084,-4.084,-4.084,-4.055,-3.9183,-3.6331,-3.4226,-3.2201,-2.9947,-2.7923,-2.7923,-2.7923,-2.7923,-2.7963,-2.8114,-2.8221,-2.8234,-2.8221,-2.8234,-2.8274,-2.8283,-2.8404,-2.8551,-2.8511,-2.8671,-2.8818,-2.8711,-2.8511,-2.847,-2.8524,-2.8657,-2.8845,-2.9098,-2.9366,-2.9619,-2.978,-2.9873,-2.9887,-2.9913,-2.9913,-2.9913,-2.9913,-2.9913,-2.9913,-2.9913,-2.9913,-3.139,-3.2778,-3.6053,-3.948,-4.0596,-4.1286,-4.2844,-4.3691,-4.3691,-4.3691,-4.3691,-4.3691,-4.3691,-4.3691,-4.3278,-4.3691,-4.3691,-4.3691,-4.3443,-4.1723,-3.9987,-3.8118,-3.614,-3.3731,-2.5669,-2.9513,-2.9793,-2.9913,-2.9913,-2.9913,-2.9913,-2.9913,-2.9913,-2.9913,-2.9913,-2.9927,-3.0074,-3.0181,-2.9927,-2.9646,-2.9606,-2.9833,-2.99,-2.9913,-2.9913,-2.9913,-2.9913,-2.9873,-2.974,-2.9446,-2.9165,-3.1222,-3.4405,-3.4898,-3.7454,-4.0268,-4.1269,-4.1172,-4.1172,-4.1172,-4.1172,-4.1172,-4.1172,-4.1191,-4.1289,-4.1289,-4.1152,-4.0801,-4.0703,-4.0664,-4.0586,-4.0586,-4.0241,-3.8943,-3.6561,-3.3883,-3.3002,-2.9867,-2.7779,-2.7709,-2.7709,-2.7669,-2.7669,-2.7776,-2.7953,-2.7953,-2.7989,-2.8114,-2.8194,-2.8257,-2.8564,-2.8831,-2.8778,-2.8671,-2.8778,-2.8537,-2.843,-2.8511,-2.8604,-2.8738,-2.9058,-2.9325,-2.9539,-2.974,-2.9873,-2.9913,-2.9913,-2.9913,-2.9913,-2.9913,-2.9913,-2.9913,-2.9913,-2.9913,-3.0348,-3.2086,-3.3979,-3.683,-3.948,-4.1453,-4.2141,-4.3278,-4.3691,-4.3691,-4.3691,-4.3691,-4.3691,-4.3526,-4.2595,-4.2345,-4.301,-4.3443,-4.3176,-4.2409,-4.0848,-3.8885,-3.6485,-3.4329,-3.2086,-2.7063,-2.9513,-2.9793,-2.9913,-2.9913,-2.9913,-2.9913,-2.9913,-2.9913,-2.9913,-2.9913,-2.994,-3.01,-3.0261,-3.0287,-3.0087,-2.994,-2.9873,-2.9913,-2.9913,-2.9913,-2.9913,-2.9913,-2.9913,-2.978,-2.9526,-2.9219,-3.1393,-3.4285,-3.4932,-3.709,-4.0526,-4.1406,-4.1211,-4.1348,-4.1367,-4.1172,-4.1191,-4.1211,-4.1367,-4.1621,-4.168,-4.1621,-4.1445,-4.1172,-4.084,-4.0566,-4.0431,-3.9779,-3.7531,-3.5467,-3.321,-3.1386,-2.9142,-2.7944,-2.7709,-2.7682,-2.7589,-2.7442,-2.7522,-2.7671,-2.7738,-2.7709,-2.7749,-2.7963,-2.815,-2.843,-2.8617,-2.8617,-2.8657,-2.8738,-2.8604,-2.8577,-2.8631,-2.8711,-2.8965,-2.9285,-2.9486,-2.97,-2.9793,-2.99,-2.9913,-2.9913,-2.9913,-2.9913,-2.9913,-2.9913,-2.9913,-2.9913,-2.9913,-3.1642,-3.3644,-3.4925,-3.7604,-4.0343,-4.2141,-4.2742,-4.3628,-4.3711,-4.3691,-4.3691,-4.3691,-4.3443,-4.3093,-4.1992,-4.1221,-4.1639,-4.1974,-4.2159,-4.095,-3.88,-3.6572,-3.4257,-3.2263,-3.0705,-2.8576,-2.974,-2.9873,-2.9913,-2.9913,-2.9913,-2.9913,-2.9913,-2.9913,-2.9913,-2.9953,-3.01,-3.0247,-3.0354,-3.0368,-3.0194,-2.9967,-2.9913,-2.9913,-2.9913,-2.9913,-2.9913,-2.9913,-2.9913,-2.982,-2.9686,-2.9873,-3.1743,-3.425,-3.5691,-3.7326,-4.1183,-4.1875,-4.1914,-4.1797,-4.1855,-4.1894,-4.1914,-4.1894,-4.1855,-4.1816,-4.1758,-4.1562,-4.1133,-4.0937,-4.0742,-4.0586,-4.0431,-3.9547,-3.7379,-3.5418,-3.3146,-3.1076,-2.906,-2.7642,-2.7468,-2.7615,-2.7629,-2.7562,-2.7655,-2.7752,-2.7832,-2.7869,-2.8043,-2.8177,-2.831,-2.8497,-2.8831,-2.8698,-2.8684,-2.8738,-2.8698,-2.8738,-2.8804,-2.8938,-2.9152,-2.9446,-2.9633,-2.9806,-2.9873,-2.9913,-2.9913,-2.9913,-2.9913,-2.9913,-2.9913,-2.9913,-2.9913,-2.9913,-2.9913,-3.2425,-3.5793,-3.6917,-3.8203,-4.1034,-4.3341,-4.3176,-4.3691,-4.3691,-4.3691,-4.3691,-4.3609,-4.3278,-4.2326,-4.1118,-4.0614,-4.0343,-3.9836,-3.9497,-3.8032,-3.6485,-3.4741,-3.3161,-3.1699,-3.0312,-2.9646,-2.9913,-2.9913,-2.9913,-2.9913,-2.9913,-2.9913,-2.9913,-2.9913,-2.9953,-3.0127,-3.0394,-3.0515,-3.0408,-3.0421,-3.0341,-3.0047,-2.9953,-2.9913,-2.9913,-2.9913,-2.9913,-2.9913,-2.9913,-2.9913,-2.99,-2.9579,-3.199,-3.4716,-3.6292,-3.7924,-4.2181,-4.2285,-4.2344,-4.2383,-4.2324,-4.2266,-4.2109,-4.2266,-4.2148,-4.1894,-4.1797,-4.1445,-4.1055,-4.0742,-4.0625,-4.0527,-4.0527,-3.9661,-3.657,-3.5163,-3.2905,-3.0194,-2.8676,-2.7859,-2.7669,-2.7776,-2.7843,-2.7789,-2.7816,-2.8006,-2.8033,-2.8127,-2.807,-2.8364,-2.8497,-2.8537,-2.8698,-2.8577,-2.8644,-2.8804,-2.8711,-2.8858,-2.9058,-2.9299,-2.9459,-2.9593,-2.9753,-2.9847,-2.9887,-2.9913,-2.9913,-2.9913,-2.9913,-2.9913,-2.9913,-2.9913,-2.9913,-3.0003,-3.0093,-3.2867,-3.6313,-3.8032,-3.9225,-4.1807,-4.3691,-4.3691,-4.3691,-4.3691,-4.3691,-4.3691,-4.3361,-4.2927,-4.1723,-4.0005,-3.8374,-3.7261,-3.6917,-3.6605,-3.578,-3.4912,-3.3811,-3.2419,-3.0959,-3.0227,-2.9659,-2.9913,-2.9913,-2.9913,-2.9913,-2.9913,-2.9913,-2.9913,-2.9927,-3.0114,-3.0434,-3.0822,-3.0782,-3.0555,-3.0608,-3.0555,-3.0301,-3.0047,-2.9953,-2.9927,-2.9913,-2.9913,-2.9913,-2.9913,-2.9913,-2.9873,-2.9762,-3.2019,-3.5179,-3.6184,-3.8678,-4.1817,-4.2395,-4.242,-4.25,-4.2578,-4.2441,-4.2324,-4.2422,-4.2324,-4.2051,-4.1914,-4.1797,-4.1621,-4.1289,-4.0957,-4.0566,-4.0336,-3.8583,-3.4829,-3.3947,-3.2112,-2.9269,-2.8354,-2.7963,-2.806,-2.806,-2.8114,-2.81,-2.7749,-2.7524,-2.7442,-2.7642,-2.7963,-2.8301,-2.8288,-2.8301,-2.8382,-2.8382,-2.843,-2.8577,-2.8671,-2.8925,-2.9299,-2.9553,-2.9633,-2.9726,-2.9806,-2.99,-2.9913,-2.9913,-2.9913,-2.9913,-2.9913,-2.9913,-2.9913,-2.9913,-2.9913,-3.0348,-3.087,-3.3468,-3.6313,-3.8459,-4.0427,-4.2742,-4.3691,-4.3691,-4.3691,-4.3691,-4.3691,-4.3691,-4.3176,-4.2141,-4.021,-3.834,-3.6259,-3.4566,-3.4617,-3.4579,-3.4228,-3.3501,-3.2588,-3.1909,-3.094,-3.0432,-2.9806,-2.9913,-2.9913,-2.9913,-2.9913,-2.9913,-2.9913,-2.9953,-3.0114,-3.0461,-3.0875,-3.0942,-3.0942,-3.0889,-3.0755,-3.0635,-3.0381,-3.0261,-3.0087,-2.9953,-2.9913,-2.9913,-2.9913,-2.994,-2.9913,-2.9913,-2.9972,-3.1133,-3.4145,-3.5978,-3.8286,-4.051,-4.2491,-4.304,-4.3183,-4.2949,-4.2832,-4.2891,-4.2832,-4.2695,-4.2656,-4.2539,-4.2344,-4.1777,-4.1719,-4.1348,-4.0841,-3.954,-3.7177,-3.4865,-3.3225,-3.0757,-2.8591,-2.8251,-2.8221,-2.8234,-2.8234,-2.8261,-2.8248,-2.802,-2.7899,-2.7899,-2.7923,-2.81,-2.8221,-2.8221,-2.8234,-2.8234,-2.8248,-2.8364,-2.8791,-2.8911,-2.9098,-2.9539,-2.9766,-2.9806,-2.9806,-2.9833,-2.9847,-2.982,-2.9873,-2.9913,-2.9913,-2.9913,-2.9913,-2.9913,-2.9913,-3.0003,-3.0437,-3.1568,-3.4067,-3.6399,-3.863,-4.0782,-4.3093,-4.3526,-4.3691,-4.3691,-4.3691,-4.3443,-4.3176,-4.1788,-4.0596,-3.8597,-3.6579,-3.4575,-3.3294,-3.2919,-3.266,-3.2537,-3.2169,-3.1629,-3.1029,-3.0728,-3.0635,-2.9913,-2.9913,-2.9913,-2.9913,-2.9913,-2.9913,-2.9967,-3.0074,-3.0261,-3.0621,-3.1089,-3.1036,-3.1089,-3.1142,-3.1036,-3.0782,-3.0541,-3.0381,-3.0234,-3.01,-2.998,-3.0034,-3.01,-3.0127,-3.014,-3.014,-3.0438,-3.1685,-3.5269,-3.6464,-3.9061,-4.1508,-4.2952,-4.3662,-4.3594,-4.3457,-4.3379,-4.3379,-4.3281,-4.2969,-4.2891,-4.2793,-4.2676,-4.2012,-4.1875,-4.166,-4.078,-3.9333,-3.7029,-3.4747,-3.2663,-3.0495,-2.9034,-2.8234,-2.8234,-2.8261,-2.8315,-2.8355,-2.827,-2.8261,-2.8234,-2.8154,-2.8181,-2.8207,-2.8234,-2.8234,-2.8234,-2.8248,-2.8315,-2.8484,-2.9005,-2.9112,-2.9325,-2.974,-2.9833,-2.986,-2.974,-2.9713,-2.9726,-2.9726,-2.9766,-2.978,-2.9913,-2.9913,-2.9913,-2.9913,-2.9913,-3.0093,-3.0437,-3.1909,-3.4417,-3.6658,-3.88,-4.1034,-4.3093,-4.3443,-4.3691,-4.3691,-4.3526,-4.2927,-4.2307,-4.0782,-3.8837,-3.6557,-3.461,-3.2829,-3.2203,-3.193,-3.1501,-3.0964,-3.102,-3.1314,-3.1395,-3.1156,-3.0942,-2.9913,-2.9913,-2.9913,-2.9913,-2.994,-2.9927,-3.0087,-3.0341,-3.0421,-3.0621,-3.0982,-3.1356,-3.145,-3.1303,-3.1236,-3.1049,-3.0795,-3.0555,-3.0394,-3.0327,-3.0194,-3.0327,-3.0448,-3.0501,-3.0434,-3.0702,-3.1382,-3.3361,-3.7063,-3.797,-4.0398,-4.2584,-4.3755,-4.4082,-4.373,-4.3672,-4.3476,-4.3164,-4.3144,-4.2891,-4.2773,-4.2734,-4.2637,-4.2402,-4.2168,-4.1992,-4.1283,-3.8835,-3.6667,-3.4848,-3.2303,-3.0167,-2.8555,-2.8341,-2.8355,-2.8257,-2.8484,-2.8577,-2.8577,-2.8408,-2.8328,-2.8315,-2.8328,-2.8288,-2.8248,-2.8234,-2.8274,-2.8328,-2.8404,-2.8684,-2.9018,-2.9299,-2.9579,-2.9793,-2.9873,-2.9833,-2.97,-2.9593,-2.9619,-2.9633,-2.9579,-2.9593,-2.9793,-2.9913,-2.9913,-2.9913,-2.9913,-3.0169,-3.0781,-3.2263,-3.4679,-3.733,-3.948,-4.1202,-4.301,-4.3443,-4.3691,-4.3711,-4.3195,-4.2364,-4.1126,-3.9639,-3.7355,-3.4745,-3.3305,-3.2267,-3.1652,-3.1102,-3.1049,-3.1102,-3.1343,-3.1611,-3.1678,-3.149,-3.1196,-2.9913,-2.9913,-2.9913,-3.0034,-3.0194,-3.0207,-3.0381,-3.0648,-3.0849,-3.1089,-3.1356,-3.1623,-3.1637,-3.1543,-3.1476,-3.1343,-3.1076,-3.1036,-3.0889,-3.0635,-3.0501,-3.0608,-3.082,-3.0939,-3.0899,-3.1307,-3.2225,-3.3776,-3.5388,-3.8341,-4.056,-4.2493,-4.3967,-4.4057,-4.373,-4.3516,-4.3281,-4.3398,-4.3281,-4.3125,-4.3242,-4.3223,-4.3105,-4.2871,-4.2676,-4.2381,-4.1728,-3.8572,-3.6099,-3.4489,-3.1924,-2.9589,-2.8609,-2.8551,-2.8698,-2.8711,-2.8871,-2.8885,-2.8885,-2.8764,-2.8644,-2.8537,-2.8417,-2.8337,-2.8203,-2.8234,-2.8328,-2.8404,-2.8551,-2.8871,-2.9259,-2.9379,-2.9606,-2.982,-2.9873,-2.9753,-2.9633,-2.9553,-2.9526,-2.9526,-2.9499,-2.9646,-2.982,-3.016,-3.0187,-3.0519,-3.0608,-3.1418,-3.21,-3.2955,-3.4853,-3.793,-4.0343,-4.1807,-4.301,-4.3443,-4.3887,-4.4043,-4.274,-4.1181,-3.9862,-3.8305,-3.6178,-3.3725,-3.2722,-3.1881,-3.1488,-3.1276,-3.1436,-3.157,-3.1637,-3.1664,-3.1637,-3.149,-3.1249,-2.9913,-2.9913,-2.9913,-3.0154,-3.0461,-3.0408,-3.0568,-3.0942,-3.1249,-3.149,-3.1637,-3.1664,-3.1664,-3.1664,-3.165,-3.1503,-3.1249,-3.1209,-3.1183,-3.0929,-3.0808,-3.0942,-3.1208,-3.1816,-3.2583,-3.3016,-3.4681,-3.6515,-3.799,-4.0542,-4.2243,-4.3195,-4.381,-4.3993,-4.3769,-4.3516,-4.3457,-4.3574,-4.3457,-4.3437,-4.3574,-4.3613,-4.3535,-4.332,-4.3024,-4.2566,-4.0733,-3.8118,-3.5208,-3.3688,-3.1378,-2.9052,-2.8885,-2.8911,-2.8958,-2.8958,-2.9152,-2.9219,-2.9325,-2.9352,-2.9205,-2.8965,-2.8764,-2.8577,-2.839,-2.8297,-2.8444,-2.8591,-2.8724,-2.9032,-2.9379,-2.9486,-2.9686,-2.9913,-2.9793,-2.9673,-2.9432,-2.9339,-2.9325,-2.9352,-2.9513,-2.9673,-2.986,-3.0276,-3.0488,-3.0987,-3.1394,-3.2453,-3.3689,-3.4869,-3.6053,-3.88,-4.11,-4.2493,-4.3278,-4.3526,-4.3945,-4.4336,-4.2509,-4.0185,-3.8477,-3.6911,-3.4763,-3.2988,-3.2189,-3.1595,-3.1531,-3.1517,-3.1583,-3.1623,-3.165,-3.1664,-3.1664,-3.153,-3.1356,-2.9913,-2.9913,-2.9913,-3.0247,-3.0688,-3.0568,-3.0768,-3.1263,-3.153,-3.165,-3.1677,-3.1677,-3.1677,-3.1677,-3.1677,-3.153,-3.1343,-3.1289,-3.1263,-3.1196,-3.1062,-3.1356,-3.2467,-3.3636,-3.4441,-3.5991,-3.7691,-3.9649,-4.2103,-4.2974,-4.3803,-4.4367,-4.4473,-4.4297,-4.3965,-4.3711,-4.3672,-4.3652,-4.3652,-4.3613,-4.3691,-4.3691,-4.3652,-4.3516,-4.3258,-4.208,-4.0106,-3.7499,-3.4963,-3.278,-3.0361,-2.942,-2.9072,-2.8985,-2.8985,-2.9165,-2.9392,-2.9593,-2.9753,-2.9766,-2.97,-2.9392,-2.8991,-2.8898,-2.8778,-2.8564,-2.8671,-2.8885,-2.9058,-2.9259,-2.9472,-2.9659,-2.986,-2.982,-2.9713,-2.9486,-2.9192,-2.9098,-2.9098,-2.9205,-2.9446,-2.9646,-2.986,-3.0214,-3.0766,-3.2477,-3.3324,-3.474,-3.6034,-3.7724,-3.8903,-4.009,-4.2141,-4.3176,-4.3691,-4.3691,-4.3311,-4.3441,-4.1129,-3.8939,-3.7264,-3.5478,-3.3512,-3.2028,-3.15,-3.1303,-3.149,-3.1597,-3.165,-3.1677,-3.1677,-3.1677,-3.1664,-3.1664,-3.1543,-2.9913,-2.9913,-2.9913,-3.0261,-3.0808,-3.1142,-3.1396,-3.1557,-3.165,-3.1677,-3.1677,-3.1677,-3.1677,-3.1677,-3.1677,-3.161,-3.157,-3.1543,-3.1543,-3.1557,-3.1651,-3.2793,-3.3945,-3.5126,-3.6344,-3.8197,-4.0231,-4.1924,-4.2853,-4.3974,-4.4911,-4.5422,-4.498,-4.457,-4.416,-4.3867,-4.3769,-4.3691,-4.3691,-4.3691,-4.3691,-4.3691,-4.3691,-4.3633,-4.3574,-4.208,-3.9784,-3.7624,-3.5243,-3.2696,-3.0673,-2.9668,-2.9352,-2.9539,-2.9673,-2.9673,-2.9766,-2.9833,-2.99,-2.9913,-2.986,-2.974,-2.9406,-2.9165,-2.9045,-2.8938,-2.8938,-2.9179,-2.9312,-2.9446,-2.9619,-2.9806,-2.9913,-2.9847,-2.9713,-2.9499,-2.9219,-2.9058,-2.9072,-2.9205,-2.9446,-2.9633,-2.9847,-2.982,-3.0664,-3.3176,-3.529,-3.6746,-3.8387,-4.0108,-4.1097,-4.2124,-4.2671,-4.3745,-4.373,-4.3691,-4.2987,-4.2166,-3.999,-3.7855,-3.599,-3.4125,-3.2217,-3.1394,-3.1383,-3.1463,-3.161,-3.1677,-3.1677,-3.1677,-3.1677,-3.1677,-3.1677,-3.1677,-3.1677,-2.9913,-2.9913,-2.9913,-3.0261,-3.0835,-3.141,-3.1677,-3.1677,-3.1677,-3.1677,-3.1677,-3.1677,-3.1677,-3.1677,-3.1677,-3.1664,-3.1664,-3.1637,-3.1637,-3.1826,-3.2583,-3.3844,-3.5137,-3.722,-3.9043,-4.0742,-4.228,-4.3796,-4.399,-4.4595,-4.5547,-4.5137,-4.4961,-4.4668,-4.4238,-4.4004,-4.3906,-4.3769,-4.3691,-4.3691,-4.3691,-4.3691,-4.3691,-4.3691,-4.3691,-4.1974,-3.931,-3.7261,-3.5233,-3.2427,-3.0218,-2.9833,-2.9659,-2.982,-2.99,-2.9873,-2.9887,-2.9887,-2.9913,-2.9913,-2.9913,-2.9873,-2.9753,-2.9606,-2.9352,-2.9205,-2.9352,-2.9526,-2.9526,-2.9566,-2.9753,-2.9913,-2.9913,-2.99,-2.974,-2.9579,-2.9352,-2.9125,-2.9165,-2.9272,-2.9432,-2.9619,-2.97,-2.9633,-3.1073,-3.4533,-3.726,-3.9162,-4.0749,-4.2571,-4.2951,-4.3452,-4.3626,-4.3984,-4.3867,-4.3502,-4.2621,-4.1354,-3.9184,-3.7123,-3.4864,-3.3208,-3.1754,-3.1477,-3.1611,-3.1623,-3.1677,-3.1677,-3.1677,-3.1677,-3.1677,-3.1677,-3.1677,-3.1677,-3.1677,-2.9913,-2.9927,-2.9967,-3.0327,-3.0835,-3.1423,-3.1677,-3.1677,-3.1677,-3.1677,-3.1677,-3.1677,-3.1677,-3.1677,-3.1677,-3.1677,-3.1677,-3.1677,-3.1677,-3.1853,-3.3858,-3.523,-3.7144,-3.9926,-4.1372,-4.2788,-4.3883,-4.478,-4.4919,-4.5137,-4.5039,-4.4453,-4.4746,-4.4531,-4.3945,-4.4043,-4.3945,-4.375,-4.3691,-4.3691,-4.3691,-4.3691,-4.3691,-4.3691,-4.3093,-4.1807,-3.8289,-3.6053,-3.4679,-3.1642,-2.99,-2.99,-2.99,-2.99,-2.9913,-2.9913,-2.9913,-2.9913,-2.9913,-2.9913,-2.9913,-2.9913,-2.9913,-2.9847,-2.9646,-2.9472,-2.9593,-2.97,-2.9713,-2.9713,-2.9847,-2.9913,-2.9913,-2.9887,-2.9793,-2.9619,-2.9432,-2.9259,-2.9219,-2.9312,-2.9406,-2.9539,-2.9595,-2.9717,-3.2193,-3.5875,-3.8576,-4.0644,-4.2821,-4.4549,-4.4582,-4.4447,-4.4297,-4.416,-4.3984,-4.3471,-4.2256,-4.0673,-3.8544,-3.6047,-3.3755,-3.2459,-3.145,-3.1503,-3.1623,-3.1637,-3.1677,-3.1677,-3.1677,-3.1677,-3.1677,-3.1677,-3.1677,-3.1677,-3.1677,-2.9913,-2.9953,-3.0394,-3.0675,-3.0862,-3.1423,-3.1677,-3.1677,-3.1677,-3.1677,-3.1677,-3.1677,-3.1677,-3.1677,-3.1677,-3.1677,-3.1677,-3.1677,-3.1677,-3.2556,-3.4283,-3.639,-3.8148,-4.0837,-4.2927,-4.4424,-4.5199,-4.5058,-4.4922,-4.4883,-4.4785,-4.4433,-4.457,-4.4277,-4.3769,-4.3945,-4.3887,-4.3711,-4.3691,-4.3691,-4.3691,-4.3691,-4.3691,-4.3691,-4.3278,-4.1202,-3.8374,-3.6658,-3.3994,-3.087,-3.0079,-2.9913,-2.9913,-2.9913,-2.9913,-2.9913,-2.9913,-2.9913,-2.9913,-2.9913,-2.9913,-2.9913,-2.9913,-2.9913,-2.986,-2.9753,-2.974,-2.9833,-2.9873,-2.9887,-2.9887,-2.99,-2.9913,-2.9873,-2.9833,-2.9673,-2.9499,-2.9392,-2.9299,-2.9299,-2.9366,-2.94,-2.9528,-3.0904,-3.3538,-3.6203,-3.8785,-4.1196,-4.3808,-4.5666,-4.5316,-4.5098,-4.457,-4.4355,-4.418,-4.3182,-4.1804,-3.9874,-3.7666,-3.5162,-3.2662,-3.2011,-3.1517,-3.1583,-3.1664,-3.1677,-3.1677,-3.1677,-3.1677,-3.1677,-3.1677,-3.1677,-3.1677,-3.1677,-3.1677,-2.9913,-2.9993,-3.0555,-3.0795,-3.0902,-3.1423,-3.1677,-3.1677,-3.1677,-3.1677,-3.1677,-3.1677,-3.1677,-3.1677,-3.1677,-3.1677,-3.1677,-3.1677,-3.1557,-3.2324,-3.4822,-3.6948,-3.929,-4.1636,-4.3353,-4.4888,-4.4583,-4.4414,-4.4512,-4.4414,-4.4219,-4.416,-4.4199,-4.416,-4.3789,-4.3848,-4.3867,-4.3711,-4.3711,-4.3691,-4.3691,-4.3691,-4.3691,-4.3691,-4.301,-4.095,-3.8459,-3.6572,-3.3979,-3.1301,-3.0003,-2.9913,-2.9913,-2.9913,-2.9913,-2.9913,-2.9913,-2.9913,-2.9913,-2.9913,-2.9913,-2.9913,-2.9913,-2.9913,-2.9913,-2.982,-2.982,-2.99,-2.99,-2.99,-2.99,-2.9913,-2.9913,-2.9887,-2.9833,-2.9713,-2.9513,-2.9352,-2.9125,-2.8911,-2.9032,-2.9179,-2.9313,-2.9636,-3.2455,-3.6107,-3.8768,-4.1592,-4.4223,-4.6172,-4.5879,-4.5644,-4.5117,-4.4766,-4.4564,-4.3093,-4.1138,-3.9112,-3.6982,-3.4652,-3.2505,-3.2055,-3.1677,-3.1677,-3.1677,-3.1677,-3.1677,-3.1677,-3.1677,-3.1677,-3.1677,-3.1677,-3.1677,-3.1677,-3.1677,-2.9913,-2.9993,-3.0555,-3.0795,-3.0875,-3.1423,-3.1677,-3.1677,-3.1677,-3.1677,-3.1677,-3.1677,-3.1677,-3.1677,-3.1677,-3.1677,-3.1637,-3.1557,-3.1423,-3.2571,-3.5973,-3.7385,-3.9522,-4.2315,-4.3736,-4.4311,-4.4043,-4.3887,-4.3867,-4.3867,-4.3887,-4.3828,-4.3945,-4.4101,-4.3945,-4.3984,-4.4043,-4.3789,-4.3691,-4.3691,-4.3691,-4.3691,-4.3691,-4.3691,-4.3361,-4.1202,-3.8374,-3.614,-3.4154,-3.182,-2.9913,-2.9913,-2.9913,-2.9913,-2.9913,-2.9913,-2.9913,-2.9913,-2.9913,-2.9913,-2.9913,-2.9913,-2.9913,-2.9913,-2.9913,-2.9913,-2.9913,-2.9913,-2.9913,-2.9913,-2.9913,-2.9913,-2.9913,-2.9873,-2.9793,-2.97,-2.9486,-2.9285,-2.8991,-2.8698,-2.8845,-2.9045,-2.9152,-2.94,-3.2324,-3.5896,-3.8959,-4.1723,-4.403,-4.5348,-4.5879,-4.584,-4.5664,-4.5305,-4.5071,-4.2937,-4.0715,-3.8649,-3.6469,-3.4246,-3.2487,-3.2002,-3.1677,-3.1677,-3.1677,-3.1677,-3.1677,-3.1677,-3.1677,-3.1677,-3.1677,-3.1677,-3.1677,-3.1677,-3.1677,-2.9913,-2.9967,-3.0555,-3.0795,-3.0889,-3.1423,-3.1677,-3.1677,-3.1677,-3.1677,-3.1677,-3.1677,-3.1677,-3.1664,-3.1677,-3.165,-3.157,-3.1423,-3.1316,-3.2036,-3.5965,-3.7436,-3.9301,-4.2356,-4.3716,-4.3965,-4.3769,-4.373,-4.3691,-4.3691,-4.3711,-4.373,-4.373,-4.3808,-4.3789,-4.3848,-4.3867,-4.375,-4.373,-4.3711,-4.373,-4.373,-4.3691,-4.3691,-4.3609,-4.068,-3.8118,-3.6917,-3.3994,-3.1479,-2.9913,-2.9913,-2.9913,-2.9913,-2.9913,-2.9913,-2.9913,-2.9913,-2.9913,-2.9913,-2.9913,-2.9913,-2.9913,-2.9913,-2.9913,-2.9913,-2.9913,-2.9913,-2.9913,-2.9913,-2.9913,-2.9913,-2.99,-2.9793,-2.97,-2.9539,-2.9366,-2.9205,-2.9005,-2.8925,-2.8978,-2.9072,-2.9199,-3.0831,-3.4025,-3.7401,-4.0256,-4.2857,-4.4501,-4.5222,-4.584,-4.5898,-4.5976,-4.5898,-4.5539,-4.2697,-4.0351,-3.8191,-3.5999,-3.3836,-3.2312,-3.1921,-3.1677,-3.1677,-3.1677,-3.1677,-3.1677,-3.1677,-3.1677,-3.1677,-3.1677,-3.1677,-3.1677,-3.1677,-3.1677]}]]